<?xml version="1.0" encoding="utf-8"?>
<gpx xmlns:xsi="http://www.w3.org/2001/XMLSchema-instance" xmlns:xsd="http://www.w3.org/2001/XMLSchema" version="1.1" creator="Shapelink.com" xmlns="http://www.topografix.com/GPX/1/1" xmlns:gpxtpx="http://www.garmin.com/xmlschemas/TrackPointExtension/v1">
  <metadata>
    <name>Cykling - Mtb 36.24 km, 2012-09-27</name>
    <desc></desc>
    <author><name>Alexander Engvall</name></author> 
    <time>2012-09-27T19:55:22Z</time>
  </metadata>
  <trk>
    <name>Cykling - Mtb 36.24 km, 2012-09-27</name>
    <trkseg>
      <trkpt lat="59.4575331113" lon="17.8048458101">
        <ele>133.2</ele>
        <time>2012-09-27T19:55:22Z</time>
      </trkpt>
      <trkpt lat="59.4575074627" lon="17.8048867976">
        <ele>134.2</ele>
        <time>2012-09-27T19:55:23Z</time>
      </trkpt>
      <trkpt lat="59.4574812274" lon="17.804926444">
        <ele>135</ele>
        <time>2012-09-27T19:55:24Z</time>
      </trkpt>
      <trkpt lat="59.4574565007" lon="17.8049696108">
        <ele>135.4</ele>
        <time>2012-09-27T19:55:25Z</time>
      </trkpt>
      <trkpt lat="59.4572904553" lon="17.8053161185">
        <ele>135.4</ele>
        <time>2012-09-27T19:55:30Z</time>
      </trkpt>
      <trkpt lat="59.4571680796" lon="17.8055518176">
        <ele>135.4</ele>
        <time>2012-09-27T19:55:33Z</time>
      </trkpt>
      <trkpt lat="59.4571128428" lon="17.8055858481">
        <ele>135.4</ele>
        <time>2012-09-27T19:55:34Z</time>
      </trkpt>
      <trkpt lat="59.4569114258" lon="17.8055527396">
        <ele>135.4</ele>
        <time>2012-09-27T19:55:37Z</time>
      </trkpt>
      <trkpt lat="59.4568173809" lon="17.8055263366">
        <ele>135.4</ele>
        <time>2012-09-27T19:55:38Z</time>
      </trkpt>
      <trkpt lat="59.4565044007" lon="17.8054210599">
        <ele>135.4</ele>
        <time>2012-09-27T19:55:42Z</time>
      </trkpt>
      <trkpt lat="59.4563852101" lon="17.8053397555">
        <ele>135.4</ele>
        <time>2012-09-27T19:55:44Z</time>
      </trkpt>
      <trkpt lat="59.455856396" lon="17.8050902263">
        <ele>135.4</ele>
        <time>2012-09-27T19:55:52Z</time>
      </trkpt>
      <trkpt lat="59.4557884188" lon="17.8050437906">
        <ele>135.4</ele>
        <time>2012-09-27T19:55:53Z</time>
      </trkpt>
      <trkpt lat="59.4553565833" lon="17.8046676109">
        <ele>135.4</ele>
        <time>2012-09-27T19:56:00Z</time>
      </trkpt>
      <trkpt lat="59.4551194594" lon="17.8045312374">
        <ele>134.6</ele>
        <time>2012-09-27T19:56:04Z</time>
      </trkpt>
      <trkpt lat="59.45507009" lon="17.8045411281">
        <ele>133.8</ele>
        <time>2012-09-27T19:56:05Z</time>
      </trkpt>
      <trkpt lat="59.4550159429" lon="17.8045498452">
        <ele>133</ele>
        <time>2012-09-27T19:56:06Z</time>
      </trkpt>
      <trkpt lat="59.4549513185" lon="17.8045530304">
        <ele>132.2</ele>
        <time>2012-09-27T19:56:07Z</time>
      </trkpt>
      <trkpt lat="59.4548892924" lon="17.8045731469">
        <ele>131.6</ele>
        <time>2012-09-27T19:56:08Z</time>
      </trkpt>
      <trkpt lat="59.4548255062" lon="17.8045918386">
        <ele>130.8</ele>
        <time>2012-09-27T19:56:09Z</time>
      </trkpt>
      <trkpt lat="59.4547564393" lon="17.804627294">
        <ele>130</ele>
        <time>2012-09-27T19:56:10Z</time>
      </trkpt>
      <trkpt lat="59.4546860313" lon="17.8046734783">
        <ele>129.4</ele>
        <time>2012-09-27T19:56:11Z</time>
      </trkpt>
      <trkpt lat="59.4543504201" lon="17.8050298767">
        <ele>129.4</ele>
        <time>2012-09-27T19:56:16Z</time>
      </trkpt>
      <trkpt lat="59.4539505196" lon="17.8056393246">
        <ele>129.4</ele>
        <time>2012-09-27T19:56:23Z</time>
      </trkpt>
      <trkpt lat="59.4536491903" lon="17.8061540571">
        <ele>129.4</ele>
        <time>2012-09-27T19:56:29Z</time>
      </trkpt>
      <trkpt lat="59.4534053608" lon="17.8065806958">
        <ele>129.4</ele>
        <time>2012-09-27T19:56:35Z</time>
      </trkpt>
      <trkpt lat="59.4532982402" lon="17.8067780057">
        <ele>129.4</ele>
        <time>2012-09-27T19:56:38Z</time>
      </trkpt>
      <trkpt lat="59.4532766987" lon="17.8068631658">
        <ele>129.4</ele>
        <time>2012-09-27T19:56:39Z</time>
      </trkpt>
      <trkpt lat="59.4532976534" lon="17.8070266129">
        <ele>128.8</ele>
        <time>2012-09-27T19:56:41Z</time>
      </trkpt>
      <trkpt lat="59.4533249784" lon="17.8071007089">
        <ele>128.4</ele>
        <time>2012-09-27T19:56:42Z</time>
      </trkpt>
      <trkpt lat="59.4533537283" lon="17.807191401">
        <ele>128</ele>
        <time>2012-09-27T19:56:43Z</time>
      </trkpt>
      <trkpt lat="59.453381221" lon="17.807300701">
        <ele>127.6</ele>
        <time>2012-09-27T19:56:44Z</time>
      </trkpt>
      <trkpt lat="59.4534093841" lon="17.8074147787">
        <ele>127.2</ele>
        <time>2012-09-27T19:56:45Z</time>
      </trkpt>
      <trkpt lat="59.4534430794" lon="17.8075275152">
        <ele>127.2</ele>
        <time>2012-09-27T19:56:46Z</time>
      </trkpt>
      <trkpt lat="59.4535203605" lon="17.8077318659">
        <ele>127.2</ele>
        <time>2012-09-27T19:56:48Z</time>
      </trkpt>
      <trkpt lat="59.4535586658" lon="17.8078010166">
        <ele>127.2</ele>
        <time>2012-09-27T19:56:49Z</time>
      </trkpt>
      <trkpt lat="59.453756311" lon="17.8081172657">
        <ele>127.2</ele>
        <time>2012-09-27T19:56:54Z</time>
      </trkpt>
      <trkpt lat="59.4539794372" lon="17.8085527054">
        <ele>127.2</ele>
        <time>2012-09-27T19:57:00Z</time>
      </trkpt>
      <trkpt lat="59.4540539523" lon="17.8087293959">
        <ele>127.2</ele>
        <time>2012-09-27T19:57:02Z</time>
      </trkpt>
      <trkpt lat="59.454153194" lon="17.8088949384">
        <ele>127.2</ele>
        <time>2012-09-27T19:57:04Z</time>
      </trkpt>
      <trkpt lat="59.4544727958" lon="17.8094397619">
        <ele>127.2</ele>
        <time>2012-09-27T19:57:10Z</time>
      </trkpt>
      <trkpt lat="59.4546294535" lon="17.8097799832">
        <ele>127.8</ele>
        <time>2012-09-27T19:57:13Z</time>
      </trkpt>
      <trkpt lat="59.4546768112" lon="17.8099052926">
        <ele>128.2</ele>
        <time>2012-09-27T19:57:14Z</time>
      </trkpt>
      <trkpt lat="59.4547227441" lon="17.810031524">
        <ele>128.6</ele>
        <time>2012-09-27T19:57:15Z</time>
      </trkpt>
      <trkpt lat="59.454769096" lon="17.8101580069">
        <ele>129</ele>
        <time>2012-09-27T19:57:16Z</time>
      </trkpt>
      <trkpt lat="59.4548174595" lon="17.8102901056">
        <ele>129.6</ele>
        <time>2012-09-27T19:57:17Z</time>
      </trkpt>
      <trkpt lat="59.4551208843" lon="17.81121706">
        <ele>129.6</ele>
        <time>2012-09-27T19:57:24Z</time>
      </trkpt>
      <trkpt lat="59.4553225528" lon="17.8121368897">
        <ele>129.6</ele>
        <time>2012-09-27T19:57:31Z</time>
      </trkpt>
      <trkpt lat="59.4554497901" lon="17.8127005724">
        <ele>129.6</ele>
        <time>2012-09-27T19:57:35Z</time>
      </trkpt>
      <trkpt lat="59.4555588386" lon="17.813149507">
        <ele>129.6</ele>
        <time>2012-09-27T19:57:38Z</time>
      </trkpt>
      <trkpt lat="59.4558308312" lon="17.8139913012">
        <ele>129.6</ele>
        <time>2012-09-27T19:57:44Z</time>
      </trkpt>
      <trkpt lat="59.4561545402" lon="17.8147601729">
        <ele>129.6</ele>
        <time>2012-09-27T19:57:50Z</time>
      </trkpt>
      <trkpt lat="59.4564709569" lon="17.815447824">
        <ele>129.6</ele>
        <time>2012-09-27T19:57:56Z</time>
      </trkpt>
      <trkpt lat="59.4568800775" lon="17.8160986785">
        <ele>129.6</ele>
        <time>2012-09-27T19:58:03Z</time>
      </trkpt>
      <trkpt lat="59.4572226457" lon="17.8167340265">
        <ele>129.6</ele>
        <time>2012-09-27T19:58:09Z</time>
      </trkpt>
      <trkpt lat="59.4575313511" lon="17.8175449754">
        <ele>129.6</ele>
        <time>2012-09-27T19:58:16Z</time>
      </trkpt>
      <trkpt lat="59.457626318" lon="17.817780842">
        <ele>129.6</ele>
        <time>2012-09-27T19:58:18Z</time>
      </trkpt>
      <trkpt lat="59.4577510407" lon="17.8179847737">
        <ele>130</ele>
        <time>2012-09-27T19:58:20Z</time>
      </trkpt>
      <trkpt lat="59.4578164195" lon="17.8180696823">
        <ele>130.4</ele>
        <time>2012-09-27T19:58:21Z</time>
      </trkpt>
      <trkpt lat="59.4578802896" lon="17.818144868">
        <ele>130.8</ele>
        <time>2012-09-27T19:58:22Z</time>
      </trkpt>
      <trkpt lat="59.4579455008" lon="17.8182182934">
        <ele>131.2</ele>
        <time>2012-09-27T19:58:23Z</time>
      </trkpt>
      <trkpt lat="59.4580079459" lon="17.8182902101">
        <ele>131.6</ele>
        <time>2012-09-27T19:58:24Z</time>
      </trkpt>
      <trkpt lat="59.4581918448" lon="17.8185011825">
        <ele>131.6</ele>
        <time>2012-09-27T19:58:27Z</time>
      </trkpt>
      <trkpt lat="59.4586762348" lon="17.8190515381">
        <ele>131.6</ele>
        <time>2012-09-27T19:58:35Z</time>
      </trkpt>
      <trkpt lat="59.4589192261" lon="17.8193252071">
        <ele>132.4</ele>
        <time>2012-09-27T19:58:39Z</time>
      </trkpt>
      <trkpt lat="59.4589795758" lon="17.8193988002">
        <ele>132.8</ele>
        <time>2012-09-27T19:58:40Z</time>
      </trkpt>
      <trkpt lat="59.4590406798" lon="17.8194645143">
        <ele>133.4</ele>
        <time>2012-09-27T19:58:41Z</time>
      </trkpt>
      <trkpt lat="59.4590998561" lon="17.8195282167">
        <ele>133.8</ele>
        <time>2012-09-27T19:58:42Z</time>
      </trkpt>
      <trkpt lat="59.4593928035" lon="17.8198593018">
        <ele>133.8</ele>
        <time>2012-09-27T19:58:47Z</time>
      </trkpt>
      <trkpt lat="59.459452315" lon="17.8199193162">
        <ele>133.8</ele>
        <time>2012-09-27T19:58:48Z</time>
      </trkpt>
      <trkpt lat="59.4598001638" lon="17.8203187137">
        <ele>133.8</ele>
        <time>2012-09-27T19:58:54Z</time>
      </trkpt>
      <trkpt lat="59.4602378666" lon="17.8208196161">
        <ele>133.8</ele>
        <time>2012-09-27T19:59:02Z</time>
      </trkpt>
      <trkpt lat="59.4603925965" lon="17.821001168">
        <ele>134.2</ele>
        <time>2012-09-27T19:59:05Z</time>
      </trkpt>
      <trkpt lat="59.4604475818" lon="17.8210592546">
        <ele>134.6</ele>
        <time>2012-09-27T19:59:06Z</time>
      </trkpt>
      <trkpt lat="59.4604994657" lon="17.8211175926">
        <ele>135</ele>
        <time>2012-09-27T19:59:07Z</time>
      </trkpt>
      <trkpt lat="59.4605513497" lon="17.8211777746">
        <ele>135.4</ele>
        <time>2012-09-27T19:59:08Z</time>
      </trkpt>
      <trkpt lat="59.4606048262" lon="17.8212328437">
        <ele>135.8</ele>
        <time>2012-09-27T19:59:09Z</time>
      </trkpt>
      <trkpt lat="59.4609740489" lon="17.8216526931">
        <ele>135.8</ele>
        <time>2012-09-27T19:59:16Z</time>
      </trkpt>
      <trkpt lat="59.4610269387" lon="17.8217189939">
        <ele>135.8</ele>
        <time>2012-09-27T19:59:17Z</time>
      </trkpt>
      <trkpt lat="59.4611358196" lon="17.8218528529">
        <ele>136.2</ele>
        <time>2012-09-27T19:59:19Z</time>
      </trkpt>
      <trkpt lat="59.4611884579" lon="17.8219126158">
        <ele>136.6</ele>
        <time>2012-09-27T19:59:20Z</time>
      </trkpt>
      <trkpt lat="59.4612427726" lon="17.8219762344">
        <ele>137</ele>
        <time>2012-09-27T19:59:21Z</time>
      </trkpt>
      <trkpt lat="59.4612965006" lon="17.8220391825">
        <ele>137.4</ele>
        <time>2012-09-27T19:59:22Z</time>
      </trkpt>
      <trkpt lat="59.4613487198" lon="17.8221069921">
        <ele>137.8</ele>
        <time>2012-09-27T19:59:23Z</time>
      </trkpt>
      <trkpt lat="59.4616132526" lon="17.8224250852">
        <ele>137.8</ele>
        <time>2012-09-27T19:59:28Z</time>
      </trkpt>
      <trkpt lat="59.4617542362" lon="17.8226296035">
        <ele>137.8</ele>
        <time>2012-09-27T19:59:31Z</time>
      </trkpt>
      <trkpt lat="59.4618254823" lon="17.8228010134">
        <ele>137.8</ele>
        <time>2012-09-27T19:59:33Z</time>
      </trkpt>
      <trkpt lat="59.4619540606" lon="17.8231862455">
        <ele>138.2</ele>
        <time>2012-09-27T19:59:37Z</time>
      </trkpt>
      <trkpt lat="59.4619811342" lon="17.823289762">
        <ele>138.6</ele>
        <time>2012-09-27T19:59:38Z</time>
      </trkpt>
      <trkpt lat="59.4620123149" lon="17.8233891713">
        <ele>139</ele>
        <time>2012-09-27T19:59:39Z</time>
      </trkpt>
      <trkpt lat="59.4620394722" lon="17.8234905923">
        <ele>139.4</ele>
        <time>2012-09-27T19:59:40Z</time>
      </trkpt>
      <trkpt lat="59.4620680545" lon="17.8235879062">
        <ele>139.8</ele>
        <time>2012-09-27T19:59:41Z</time>
      </trkpt>
      <trkpt lat="59.4621135682" lon="17.8236696297">
        <ele>139.8</ele>
        <time>2012-09-27T19:59:42Z</time>
      </trkpt>
      <trkpt lat="59.4621720739" lon="17.8237271295">
        <ele>139.8</ele>
        <time>2012-09-27T19:59:43Z</time>
      </trkpt>
      <trkpt lat="59.4623616724" lon="17.8237683685">
        <ele>139.8</ele>
        <time>2012-09-27T19:59:46Z</time>
      </trkpt>
      <trkpt lat="59.4624843835" lon="17.8236922608">
        <ele>139.8</ele>
        <time>2012-09-27T19:59:48Z</time>
      </trkpt>
      <trkpt lat="59.4625397878" lon="17.8237024029">
        <ele>139.8</ele>
        <time>2012-09-27T19:59:49Z</time>
      </trkpt>
      <trkpt lat="59.4626858005" lon="17.823873729">
        <ele>140.2</ele>
        <time>2012-09-27T19:59:52Z</time>
      </trkpt>
      <trkpt lat="59.4627352537" lon="17.8239559554">
        <ele>140.6</ele>
        <time>2012-09-27T19:59:53Z</time>
      </trkpt>
      <trkpt lat="59.4627844555" lon="17.8240393553">
        <ele>141.4</ele>
        <time>2012-09-27T19:59:54Z</time>
      </trkpt>
      <trkpt lat="59.4628375967" lon="17.8241385132">
        <ele>141.8</ele>
        <time>2012-09-27T19:59:55Z</time>
      </trkpt>
      <trkpt lat="59.4629510038" lon="17.8243560235">
        <ele>141.8</ele>
        <time>2012-09-27T19:59:57Z</time>
      </trkpt>
      <trkpt lat="59.4630786602" lon="17.8245841788">
        <ele>141.8</ele>
        <time>2012-09-27T19:59:59Z</time>
      </trkpt>
      <trkpt lat="59.4632192246" lon="17.8247842548">
        <ele>141.8</ele>
        <time>2012-09-27T20:00:01Z</time>
      </trkpt>
      <trkpt lat="59.4635981703" lon="17.8254506158">
        <ele>141.8</ele>
        <time>2012-09-27T20:00:07Z</time>
      </trkpt>
      <trkpt lat="59.4637799737" lon="17.8258434755">
        <ele>141.4</ele>
        <time>2012-09-27T20:00:10Z</time>
      </trkpt>
      <trkpt lat="59.4638371383" lon="17.8259772506">
        <ele>141</ele>
        <time>2012-09-27T20:00:11Z</time>
      </trkpt>
      <trkpt lat="59.4638962307" lon="17.8261160549">
        <ele>140.6</ele>
        <time>2012-09-27T20:00:12Z</time>
      </trkpt>
      <trkpt lat="59.4639554907" lon="17.8262600559">
        <ele>140.2</ele>
        <time>2012-09-27T20:00:13Z</time>
      </trkpt>
      <trkpt lat="59.4640129906" lon="17.8264118521">
        <ele>139.8</ele>
        <time>2012-09-27T20:00:14Z</time>
      </trkpt>
      <trkpt lat="59.4640655451" lon="17.8265683422">
        <ele>139.8</ele>
        <time>2012-09-27T20:00:15Z</time>
      </trkpt>
      <trkpt lat="59.4641177643" lon="17.826731873">
        <ele>139.4</ele>
        <time>2012-09-27T20:00:16Z</time>
      </trkpt>
      <trkpt lat="59.4641634457" lon="17.8268886984">
        <ele>139</ele>
        <time>2012-09-27T20:00:17Z</time>
      </trkpt>
      <trkpt lat="59.4642087079" lon="17.8270488765">
        <ele>138.2</ele>
        <time>2012-09-27T20:00:18Z</time>
      </trkpt>
      <trkpt lat="59.4642513718" lon="17.8272099766">
        <ele>137.6</ele>
        <time>2012-09-27T20:00:19Z</time>
      </trkpt>
      <trkpt lat="59.4643227018" lon="17.8275279021">
        <ele>137.6</ele>
        <time>2012-09-27T20:00:21Z</time>
      </trkpt>
      <trkpt lat="59.4644951175" lon="17.8282532717">
        <ele>137.2</ele>
        <time>2012-09-27T20:00:26Z</time>
      </trkpt>
      <trkpt lat="59.4645283936" lon="17.8283919083">
        <ele>136.8</ele>
        <time>2012-09-27T20:00:27Z</time>
      </trkpt>
      <trkpt lat="59.4645604963" lon="17.8285276113">
        <ele>136.4</ele>
        <time>2012-09-27T20:00:28Z</time>
      </trkpt>
      <trkpt lat="59.4645921799" lon="17.8286651583">
        <ele>136</ele>
        <time>2012-09-27T20:00:29Z</time>
      </trkpt>
      <trkpt lat="59.4646259589" lon="17.8288042978">
        <ele>135.6</ele>
        <time>2012-09-27T20:00:30Z</time>
      </trkpt>
      <trkpt lat="59.4648188264" lon="17.8296348603">
        <ele>135.6</ele>
        <time>2012-09-27T20:00:36Z</time>
      </trkpt>
      <trkpt lat="59.4649291322" lon="17.8300780952">
        <ele>135.6</ele>
        <time>2012-09-27T20:00:40Z</time>
      </trkpt>
      <trkpt lat="59.4649751489" lon="17.8302452302">
        <ele>135.2</ele>
        <time>2012-09-27T20:00:42Z</time>
      </trkpt>
      <trkpt lat="59.4649971094" lon="17.8303359224">
        <ele>134.8</ele>
        <time>2012-09-27T20:00:43Z</time>
      </trkpt>
      <trkpt lat="59.4650199082" lon="17.8304328172">
        <ele>133.8</ele>
        <time>2012-09-27T20:00:44Z</time>
      </trkpt>
      <trkpt lat="59.4650450539" lon="17.8305386806">
        <ele>133.4</ele>
        <time>2012-09-27T20:00:45Z</time>
      </trkpt>
      <trkpt lat="59.4651473131" lon="17.8310107492">
        <ele>133.4</ele>
        <time>2012-09-27T20:00:49Z</time>
      </trkpt>
      <trkpt lat="59.4652152903" lon="17.8315813889">
        <ele>133.4</ele>
        <time>2012-09-27T20:00:54Z</time>
      </trkpt>
      <trkpt lat="59.4652480635" lon="17.832081034">
        <ele>133.4</ele>
        <time>2012-09-27T20:00:59Z</time>
      </trkpt>
      <trkpt lat="59.4652650788" lon="17.8323402862">
        <ele>133.4</ele>
        <time>2012-09-27T20:01:01Z</time>
      </trkpt>
      <trkpt lat="59.4652779031" lon="17.8324875561">
        <ele>133.8</ele>
        <time>2012-09-27T20:01:02Z</time>
      </trkpt>
      <trkpt lat="59.4652903921" lon="17.83262745">
        <ele>134.2</ele>
        <time>2012-09-27T20:01:03Z</time>
      </trkpt>
      <trkpt lat="59.4653056472" lon="17.8327658352">
        <ele>134.8</ele>
        <time>2012-09-27T20:01:04Z</time>
      </trkpt>
      <trkpt lat="59.4653199802" lon="17.8329100039">
        <ele>135.2</ele>
        <time>2012-09-27T20:01:05Z</time>
      </trkpt>
      <trkpt lat="59.4653354029" lon="17.8330568548">
        <ele>135.6</ele>
        <time>2012-09-27T20:01:06Z</time>
      </trkpt>
      <trkpt lat="59.4653502389" lon="17.8332045439">
        <ele>135.6</ele>
        <time>2012-09-27T20:01:07Z</time>
      </trkpt>
      <trkpt lat="59.465421485" lon="17.8339597531">
        <ele>136</ele>
        <time>2012-09-27T20:01:12Z</time>
      </trkpt>
      <trkpt lat="59.4654346446" lon="17.8341024968">
        <ele>136.4</ele>
        <time>2012-09-27T20:01:13Z</time>
      </trkpt>
      <trkpt lat="59.4654500673" lon="17.8342438156">
        <ele>136.8</ele>
        <time>2012-09-27T20:01:14Z</time>
      </trkpt>
      <trkpt lat="59.4654661606" lon="17.8343749924">
        <ele>137.2</ele>
        <time>2012-09-27T20:01:15Z</time>
      </trkpt>
      <trkpt lat="59.4654866124" lon="17.8344912493">
        <ele>137.6</ele>
        <time>2012-09-27T20:01:16Z</time>
      </trkpt>
      <trkpt lat="59.465565989" lon="17.8348006253">
        <ele>138</ele>
        <time>2012-09-27T20:01:19Z</time>
      </trkpt>
      <trkpt lat="59.4656015283" lon="17.8348912336">
        <ele>138.4</ele>
        <time>2012-09-27T20:01:20Z</time>
      </trkpt>
      <trkpt lat="59.4656370675" lon="17.8349789921">
        <ele>139</ele>
        <time>2012-09-27T20:01:21Z</time>
      </trkpt>
      <trkpt lat="59.4656726906" lon="17.8350639007">
        <ele>139.4</ele>
        <time>2012-09-27T20:01:22Z</time>
      </trkpt>
      <trkpt lat="59.4657082298" lon="17.8351473006">
        <ele>139.8</ele>
        <time>2012-09-27T20:01:23Z</time>
      </trkpt>
      <trkpt lat="59.4659361337" lon="17.8355868475">
        <ele>139.8</ele>
        <time>2012-09-27T20:01:28Z</time>
      </trkpt>
      <trkpt lat="59.4659880177" lon="17.8356774558">
        <ele>139.8</ele>
        <time>2012-09-27T20:01:29Z</time>
      </trkpt>
      <trkpt lat="59.4661507103" lon="17.8359952136">
        <ele>139.8</ele>
        <time>2012-09-27T20:01:32Z</time>
      </trkpt>
      <trkpt lat="59.4662061985" lon="17.8361317548">
        <ele>139.8</ele>
        <time>2012-09-27T20:01:33Z</time>
      </trkpt>
      <trkpt lat="59.4663587491" lon="17.8366853793">
        <ele>139.4</ele>
        <time>2012-09-27T20:01:37Z</time>
      </trkpt>
      <trkpt lat="59.4663927796" lon="17.8368259438">
        <ele>139</ele>
        <time>2012-09-27T20:01:38Z</time>
      </trkpt>
      <trkpt lat="59.4664279836" lon="17.8369658377">
        <ele>138.6</ele>
        <time>2012-09-27T20:01:39Z</time>
      </trkpt>
      <trkpt lat="59.4664640258" lon="17.8371027141">
        <ele>138.2</ele>
        <time>2012-09-27T20:01:40Z</time>
      </trkpt>
      <trkpt lat="59.4665019119" lon="17.8372440329">
        <ele>137.8</ele>
        <time>2012-09-27T20:01:41Z</time>
      </trkpt>
      <trkpt lat="59.4666403809" lon="17.8377287582">
        <ele>137.8</ele>
        <time>2012-09-27T20:01:45Z</time>
      </trkpt>
      <trkpt lat="59.4667680373" lon="17.8381197738">
        <ele>137.8</ele>
        <time>2012-09-27T20:01:49Z</time>
      </trkpt>
      <trkpt lat="59.4668012296" lon="17.8382074485">
        <ele>137.8</ele>
        <time>2012-09-27T20:01:50Z</time>
      </trkpt>
      <trkpt lat="59.4669609886" lon="17.8387565468">
        <ele>137.8</ele>
        <time>2012-09-27T20:01:56Z</time>
      </trkpt>
      <trkpt lat="59.4669777524" lon="17.8388634998">
        <ele>137.8</ele>
        <time>2012-09-27T20:01:57Z</time>
      </trkpt>
      <trkpt lat="59.466992756" lon="17.8389721293">
        <ele>138.6</ele>
        <time>2012-09-27T20:01:58Z</time>
      </trkpt>
      <trkpt lat="59.4670018085" lon="17.8390846143">
        <ele>139</ele>
        <time>2012-09-27T20:01:59Z</time>
      </trkpt>
      <trkpt lat="59.4670042392" lon="17.8392009551">
        <ele>139.6</ele>
        <time>2012-09-27T20:02:00Z</time>
      </trkpt>
      <trkpt lat="59.4670011379" lon="17.8393114286">
        <ele>140</ele>
        <time>2012-09-27T20:02:01Z</time>
      </trkpt>
      <trkpt lat="59.4669506789" lon="17.8398787156">
        <ele>140</ele>
        <time>2012-09-27T20:02:06Z</time>
      </trkpt>
      <trkpt lat="59.4669121221" lon="17.8400937113">
        <ele>140</ele>
        <time>2012-09-27T20:02:08Z</time>
      </trkpt>
      <trkpt lat="59.4668113717" lon="17.8404986409">
        <ele>140</ele>
        <time>2012-09-27T20:02:12Z</time>
      </trkpt>
      <trkpt lat="59.4667396226" lon="17.8406552148">
        <ele>140.4</ele>
        <time>2012-09-27T20:02:14Z</time>
      </trkpt>
      <trkpt lat="59.4666992219" lon="17.8407333341">
        <ele>140.8</ele>
        <time>2012-09-27T20:02:15Z</time>
      </trkpt>
      <trkpt lat="59.4666578153" lon="17.8408090226">
        <ele>141.2</ele>
        <time>2012-09-27T20:02:16Z</time>
      </trkpt>
      <trkpt lat="59.4666165763" lon="17.8408911653">
        <ele>141.6</ele>
        <time>2012-09-27T20:02:17Z</time>
      </trkpt>
      <trkpt lat="59.4665763432" lon="17.8409800134">
        <ele>142</ele>
        <time>2012-09-27T20:02:18Z</time>
      </trkpt>
      <trkpt lat="59.4661912787" lon="17.8418075584">
        <ele>142</ele>
        <time>2012-09-27T20:02:26Z</time>
      </trkpt>
      <trkpt lat="59.466011487" lon="17.8421574189">
        <ele>141.6</ele>
        <time>2012-09-27T20:02:29Z</time>
      </trkpt>
      <trkpt lat="59.4659547415" lon="17.8422744302">
        <ele>141.2</ele>
        <time>2012-09-27T20:02:30Z</time>
      </trkpt>
      <trkpt lat="59.4658979961" lon="17.8423926988">
        <ele>140.6</ele>
        <time>2012-09-27T20:02:31Z</time>
      </trkpt>
      <trkpt lat="59.4658426755" lon="17.8425113865">
        <ele>140.2</ele>
        <time>2012-09-27T20:02:32Z</time>
      </trkpt>
      <trkpt lat="59.4657860139" lon="17.8426313315">
        <ele>139.8</ele>
        <time>2012-09-27T20:02:33Z</time>
      </trkpt>
      <trkpt lat="59.4656723553" lon="17.8428749933">
        <ele>139.8</ele>
        <time>2012-09-27T20:02:35Z</time>
      </trkpt>
      <trkpt lat="59.4654390032" lon="17.8433523426">
        <ele>139.4</ele>
        <time>2012-09-27T20:02:39Z</time>
      </trkpt>
      <trkpt lat="59.4653757199" lon="17.8434691024">
        <ele>139</ele>
        <time>2012-09-27T20:02:40Z</time>
      </trkpt>
      <trkpt lat="59.4653064854" lon="17.8435860299">
        <ele>138.4</ele>
        <time>2012-09-27T20:02:41Z</time>
      </trkpt>
      <trkpt lat="59.4652372509" lon="17.8436912228">
        <ele>138</ele>
        <time>2012-09-27T20:02:42Z</time>
      </trkpt>
      <trkpt lat="59.4651670944" lon="17.8437695097">
        <ele>137.6</ele>
        <time>2012-09-27T20:02:43Z</time>
      </trkpt>
      <trkpt lat="59.4651032243" lon="17.8438220642">
        <ele>137.2</ele>
        <time>2012-09-27T20:02:44Z</time>
      </trkpt>
      <trkpt lat="59.4650344089" lon="17.843865231">
        <ele>136.8</ele>
        <time>2012-09-27T20:02:45Z</time>
      </trkpt>
      <trkpt lat="59.4649676052" lon="17.84392776">
        <ele>136.4</ele>
        <time>2012-09-27T20:02:46Z</time>
      </trkpt>
      <trkpt lat="59.4649043218" lon="17.8440099864">
        <ele>135.2</ele>
        <time>2012-09-27T20:02:47Z</time>
      </trkpt>
      <trkpt lat="59.464848666" lon="17.8441099825">
        <ele>134.6</ele>
        <time>2012-09-27T20:02:48Z</time>
      </trkpt>
      <trkpt lat="59.4648143002" lon="17.8442238925">
        <ele>134</ele>
        <time>2012-09-27T20:02:49Z</time>
      </trkpt>
      <trkpt lat="59.464786137" lon="17.84436211">
        <ele>133.2</ele>
        <time>2012-09-27T20:02:50Z</time>
      </trkpt>
      <trkpt lat="59.464758812" lon="17.8445030936">
        <ele>133.2</ele>
        <time>2012-09-27T20:02:51Z</time>
      </trkpt>
      <trkpt lat="59.4647379411" lon="17.8446573206">
        <ele>133.2</ele>
        <time>2012-09-27T20:02:52Z</time>
      </trkpt>
      <trkpt lat="59.4647173216" lon="17.8448058478">
        <ele>132.8</ele>
        <time>2012-09-27T20:02:53Z</time>
      </trkpt>
      <trkpt lat="59.4646923436" lon="17.844959991">
        <ele>132.2</ele>
        <time>2012-09-27T20:02:54Z</time>
      </trkpt>
      <trkpt lat="59.464667617" lon="17.8451205882">
        <ele>131.6</ele>
        <time>2012-09-27T20:02:55Z</time>
      </trkpt>
      <trkpt lat="59.4646399567" lon="17.8452766592">
        <ele>131.2</ele>
        <time>2012-09-27T20:02:56Z</time>
      </trkpt>
      <trkpt lat="59.4646180799" lon="17.845442034">
        <ele>130.6</ele>
        <time>2012-09-27T20:02:57Z</time>
      </trkpt>
      <trkpt lat="59.4646019867" lon="17.8455984403">
        <ele>130.6</ele>
        <time>2012-09-27T20:02:58Z</time>
      </trkpt>
      <trkpt lat="59.4645687944" lon="17.8460838361">
        <ele>130.2</ele>
        <time>2012-09-27T20:03:01Z</time>
      </trkpt>
      <trkpt lat="59.4645590713" lon="17.8462470317">
        <ele>129.8</ele>
        <time>2012-09-27T20:03:02Z</time>
      </trkpt>
      <trkpt lat="59.4645512762" lon="17.8464139992">
        <ele>129.2</ele>
        <time>2012-09-27T20:03:03Z</time>
      </trkpt>
      <trkpt lat="59.4645450736" lon="17.8465719142">
        <ele>128.8</ele>
        <time>2012-09-27T20:03:04Z</time>
      </trkpt>
      <trkpt lat="59.4645431457" lon="17.8467215311">
        <ele>128.4</ele>
        <time>2012-09-27T20:03:05Z</time>
      </trkpt>
      <trkpt lat="59.4645294832" lon="17.8472958589">
        <ele>128.4</ele>
        <time>2012-09-27T20:03:09Z</time>
      </trkpt>
      <trkpt lat="59.4644379529" lon="17.8478527523">
        <ele>128.4</ele>
        <time>2012-09-27T20:03:13Z</time>
      </trkpt>
      <trkpt lat="59.4643410581" lon="17.8482091507">
        <ele>128.4</ele>
        <time>2012-09-27T20:03:16Z</time>
      </trkpt>
      <trkpt lat="59.4642672974" lon="17.8484022697">
        <ele>128.4</ele>
        <time>2012-09-27T20:03:18Z</time>
      </trkpt>
      <trkpt lat="59.4640354541" lon="17.8490496876">
        <ele>128.4</ele>
        <time>2012-09-27T20:03:25Z</time>
      </trkpt>
      <trkpt lat="59.4637953964" lon="17.8495186549">
        <ele>128.8</ele>
        <time>2012-09-27T20:03:31Z</time>
      </trkpt>
      <trkpt lat="59.4637466976" lon="17.8495752328">
        <ele>129.2</ele>
        <time>2012-09-27T20:03:32Z</time>
      </trkpt>
      <trkpt lat="59.4636969929" lon="17.8496292122">
        <ele>129.6</ele>
        <time>2012-09-27T20:03:33Z</time>
      </trkpt>
      <trkpt lat="59.4636455281" lon="17.8496826887">
        <ele>130</ele>
        <time>2012-09-27T20:03:34Z</time>
      </trkpt>
      <trkpt lat="59.4635925545" lon="17.849734405">
        <ele>130.6</ele>
        <time>2012-09-27T20:03:35Z</time>
      </trkpt>
      <trkpt lat="59.4635382397" lon="17.8497831039">
        <ele>131</ele>
        <time>2012-09-27T20:03:36Z</time>
      </trkpt>
      <trkpt lat="59.4634814105" lon="17.8498326409">
        <ele>131.8</ele>
        <time>2012-09-27T20:03:37Z</time>
      </trkpt>
      <trkpt lat="59.4634321249" lon="17.8498727902">
        <ele>132.2</ele>
        <time>2012-09-27T20:03:38Z</time>
      </trkpt>
      <trkpt lat="59.4633842642" lon="17.8499197288">
        <ele>132.6</ele>
        <time>2012-09-27T20:03:39Z</time>
      </trkpt>
      <trkpt lat="59.4632962543" lon="17.8500072359">
        <ele>133.2</ele>
        <time>2012-09-27T20:03:41Z</time>
      </trkpt>
      <trkpt lat="59.4632535066" lon="17.8500578626">
        <ele>133.6</ele>
        <time>2012-09-27T20:03:42Z</time>
      </trkpt>
      <trkpt lat="59.4632142793" lon="17.8501091598">
        <ele>134</ele>
        <time>2012-09-27T20:03:43Z</time>
      </trkpt>
      <trkpt lat="59.4631717831" lon="17.8501494767">
        <ele>134.6</ele>
        <time>2012-09-27T20:03:44Z</time>
      </trkpt>
      <trkpt lat="59.463134316" lon="17.8502009416">
        <ele>135</ele>
        <time>2012-09-27T20:03:45Z</time>
      </trkpt>
      <trkpt lat="59.463063908" lon="17.8503291008">
        <ele>135.4</ele>
        <time>2012-09-27T20:03:47Z</time>
      </trkpt>
      <trkpt lat="59.4630342361" lon="17.8503955693">
        <ele>136</ele>
        <time>2012-09-27T20:03:48Z</time>
      </trkpt>
      <trkpt lat="59.463008336" lon="17.8504729342">
        <ele>136.4</ele>
        <time>2012-09-27T20:03:49Z</time>
      </trkpt>
      <trkpt lat="59.4629783288" lon="17.8505445157">
        <ele>136.8</ele>
        <time>2012-09-27T20:03:50Z</time>
      </trkpt>
      <trkpt lat="59.4629522611" lon="17.8506152589">
        <ele>137.4</ele>
        <time>2012-09-27T20:03:51Z</time>
      </trkpt>
      <trkpt lat="59.4626929251" lon="17.851190844">
        <ele>137.4</ele>
        <time>2012-09-27T20:03:59Z</time>
      </trkpt>
      <trkpt lat="59.4624603274" lon="17.8517756491">
        <ele>137.8</ele>
        <time>2012-09-27T20:04:06Z</time>
      </trkpt>
      <trkpt lat="59.4624293144" lon="17.8518705322">
        <ele>138.2</ele>
        <time>2012-09-27T20:04:07Z</time>
      </trkpt>
      <trkpt lat="59.4623988881" lon="17.8519726238">
        <ele>138.6</ele>
        <time>2012-09-27T20:04:08Z</time>
      </trkpt>
      <trkpt lat="59.4623694676" lon="17.8520807503">
        <ele>139</ele>
        <time>2012-09-27T20:04:09Z</time>
      </trkpt>
      <trkpt lat="59.462343819" lon="17.8522009467">
        <ele>139.4</ele>
        <time>2012-09-27T20:04:10Z</time>
      </trkpt>
      <trkpt lat="59.4622827988" lon="17.8525546629">
        <ele>139.4</ele>
        <time>2012-09-27T20:04:13Z</time>
      </trkpt>
      <trkpt lat="59.4622584913" lon="17.8532366981">
        <ele>139.4</ele>
        <time>2012-09-27T20:04:19Z</time>
      </trkpt>
      <trkpt lat="59.4622847266" lon="17.8534770072">
        <ele>139.4</ele>
        <time>2012-09-27T20:04:21Z</time>
      </trkpt>
      <trkpt lat="59.4623517818" lon="17.8538216709">
        <ele>139.4</ele>
        <time>2012-09-27T20:04:24Z</time>
      </trkpt>
      <trkpt lat="59.4624395403" lon="17.8541550191">
        <ele>138.8</ele>
        <time>2012-09-27T20:04:27Z</time>
      </trkpt>
      <trkpt lat="59.4624700504" lon="17.8542823402">
        <ele>138.4</ele>
        <time>2012-09-27T20:04:28Z</time>
      </trkpt>
      <trkpt lat="59.4624863113" lon="17.8544168696">
        <ele>138</ele>
        <time>2012-09-27T20:04:29Z</time>
      </trkpt>
      <trkpt lat="59.4624988003" lon="17.8545694202">
        <ele>137.4</ele>
        <time>2012-09-27T20:04:30Z</time>
      </trkpt>
      <trkpt lat="59.4625108703" lon="17.8547253236">
        <ele>136.8</ele>
        <time>2012-09-27T20:04:31Z</time>
      </trkpt>
      <trkpt lat="59.4625236108" lon="17.8548805564">
        <ele>136.2</ele>
        <time>2012-09-27T20:04:32Z</time>
      </trkpt>
      <trkpt lat="59.4625371056" lon="17.8550334422">
        <ele>135.6</ele>
        <time>2012-09-27T20:04:33Z</time>
      </trkpt>
      <trkpt lat="59.4625511872" lon="17.8551823886">
        <ele>135</ele>
        <time>2012-09-27T20:04:34Z</time>
      </trkpt>
      <trkpt lat="59.4626163984" lon="17.855917565">
        <ele>135</ele>
        <time>2012-09-27T20:04:39Z</time>
      </trkpt>
      <trkpt lat="59.4626408735" lon="17.8567499715">
        <ele>135</ele>
        <time>2012-09-27T20:04:45Z</time>
      </trkpt>
      <trkpt lat="59.4625998022" lon="17.8577031612">
        <ele>134.6</ele>
        <time>2012-09-27T20:04:52Z</time>
      </trkpt>
      <trkpt lat="59.4625834575" lon="17.8578412111">
        <ele>134.2</ele>
        <time>2012-09-27T20:04:53Z</time>
      </trkpt>
      <trkpt lat="59.4625671966" lon="17.8579819432">
        <ele>133.8</ele>
        <time>2012-09-27T20:04:54Z</time>
      </trkpt>
      <trkpt lat="59.4625522769" lon="17.8581264471">
        <ele>133.2</ele>
        <time>2012-09-27T20:04:55Z</time>
      </trkpt>
      <trkpt lat="59.4625405422" lon="17.858266341">
        <ele>132.8</ele>
        <time>2012-09-27T20:04:56Z</time>
      </trkpt>
      <trkpt lat="59.4625143068" lon="17.8588267549">
        <ele>132.8</ele>
        <time>2012-09-27T20:05:00Z</time>
      </trkpt>
      <trkpt lat="59.4624708048" lon="17.8594346103">
        <ele>132.4</ele>
        <time>2012-09-27T20:05:04Z</time>
      </trkpt>
      <trkpt lat="59.4624701342" lon="17.8595892563">
        <ele>132</ele>
        <time>2012-09-27T20:05:05Z</time>
      </trkpt>
      <trkpt lat="59.4624780132" lon="17.8597445729">
        <ele>131.6</ele>
        <time>2012-09-27T20:05:06Z</time>
      </trkpt>
      <trkpt lat="59.4624997223" lon="17.8598703014">
        <ele>131.2</ele>
        <time>2012-09-27T20:05:07Z</time>
      </trkpt>
      <trkpt lat="59.4625319927" lon="17.8599772545">
        <ele>130.6</ele>
        <time>2012-09-27T20:05:08Z</time>
      </trkpt>
      <trkpt lat="59.4625700465" lon="17.8600754065">
        <ele>130.6</ele>
        <time>2012-09-27T20:05:09Z</time>
      </trkpt>
      <trkpt lat="59.4627564599" lon="17.8603727963">
        <ele>130.6</ele>
        <time>2012-09-27T20:05:13Z</time>
      </trkpt>
      <trkpt lat="59.4628701185" lon="17.8604823478">
        <ele>130.6</ele>
        <time>2012-09-27T20:05:15Z</time>
      </trkpt>
      <trkpt lat="59.4629999541" lon="17.8606145303">
        <ele>130.6</ele>
        <time>2012-09-27T20:05:17Z</time>
      </trkpt>
      <trkpt lat="59.4630643271" lon="17.8607060607">
        <ele>130.6</ele>
        <time>2012-09-27T20:05:18Z</time>
      </trkpt>
      <trkpt lat="59.4632875371" lon="17.8611126666">
        <ele>130.6</ele>
        <time>2012-09-27T20:05:22Z</time>
      </trkpt>
      <trkpt lat="59.4633381638" lon="17.861225487">
        <ele>130.6</ele>
        <time>2012-09-27T20:05:23Z</time>
      </trkpt>
      <trkpt lat="59.463464479" lon="17.8615938715">
        <ele>130.6</ele>
        <time>2012-09-27T20:05:26Z</time>
      </trkpt>
      <trkpt lat="59.463512675" lon="17.8618773474">
        <ele>130.6</ele>
        <time>2012-09-27T20:05:28Z</time>
      </trkpt>
      <trkpt lat="59.4635696719" lon="17.8621702948">
        <ele>130.2</ele>
        <time>2012-09-27T20:05:30Z</time>
      </trkpt>
      <trkpt lat="59.4635966616" lon="17.8623163913">
        <ele>129.8</ele>
        <time>2012-09-27T20:05:31Z</time>
      </trkpt>
      <trkpt lat="59.4636253277" lon="17.8624680199">
        <ele>129.4</ele>
        <time>2012-09-27T20:05:32Z</time>
      </trkpt>
      <trkpt lat="59.4636525689" lon="17.8626229174">
        <ele>129</ele>
        <time>2012-09-27T20:05:33Z</time>
      </trkpt>
      <trkpt lat="59.4636780498" lon="17.8627789045">
        <ele>128.6</ele>
        <time>2012-09-27T20:05:34Z</time>
      </trkpt>
      <trkpt lat="59.4637176962" lon="17.8630897892">
        <ele>128.6</ele>
        <time>2012-09-27T20:05:36Z</time>
      </trkpt>
      <trkpt lat="59.4637010162" lon="17.8632719279">
        <ele>128.6</ele>
        <time>2012-09-27T20:05:37Z</time>
      </trkpt>
      <trkpt lat="59.4636633815" lon="17.8634458523">
        <ele>128.2</ele>
        <time>2012-09-27T20:05:38Z</time>
      </trkpt>
      <trkpt lat="59.4636336258" lon="17.8636196091">
        <ele>127.8</ele>
        <time>2012-09-27T20:05:39Z</time>
      </trkpt>
      <trkpt lat="59.4636087315" lon="17.8637942041">
        <ele>126.8</ele>
        <time>2012-09-27T20:05:40Z</time>
      </trkpt>
      <trkpt lat="59.4635893693" lon="17.8639608363">
        <ele>126.4</ele>
        <time>2012-09-27T20:05:41Z</time>
      </trkpt>
      <trkpt lat="59.4634341365" lon="17.8651096595">
        <ele>126.4</ele>
        <time>2012-09-27T20:05:48Z</time>
      </trkpt>
      <trkpt lat="59.4634147744" lon="17.8662924294">
        <ele>126.4</ele>
        <time>2012-09-27T20:05:55Z</time>
      </trkpt>
      <trkpt lat="59.46339734" lon="17.8674520653">
        <ele>126.4</ele>
        <time>2012-09-27T20:06:02Z</time>
      </trkpt>
      <trkpt lat="59.4633983458" lon="17.8676051187">
        <ele>126.4</ele>
        <time>2012-09-27T20:06:03Z</time>
      </trkpt>
      <trkpt lat="59.463419552" lon="17.8681863197">
        <ele>126.4</ele>
        <time>2012-09-27T20:06:07Z</time>
      </trkpt>
      <trkpt lat="59.4634403392" lon="17.8683131378">
        <ele>126.4</ele>
        <time>2012-09-27T20:06:08Z</time>
      </trkpt>
      <trkpt lat="59.4635742819" lon="17.8687746453">
        <ele>126.4</ele>
        <time>2012-09-27T20:06:12Z</time>
      </trkpt>
      <trkpt lat="59.4636886949" lon="17.8692017869">
        <ele>126.4</ele>
        <time>2012-09-27T20:06:16Z</time>
      </trkpt>
      <trkpt lat="59.4637028603" lon="17.8693210613">
        <ele>126.4</ele>
        <time>2012-09-27T20:06:17Z</time>
      </trkpt>
      <trkpt lat="59.4637291794" lon="17.8698101452">
        <ele>126.4</ele>
        <time>2012-09-27T20:06:21Z</time>
      </trkpt>
      <trkpt lat="59.4637187859" lon="17.8700660446">
        <ele>126.4</ele>
        <time>2012-09-27T20:06:23Z</time>
      </trkpt>
      <trkpt lat="59.4635422631" lon="17.8709225909">
        <ele>126</ele>
        <time>2012-09-27T20:06:29Z</time>
      </trkpt>
      <trkpt lat="59.4635022814" lon="17.8710829367">
        <ele>125</ele>
        <time>2012-09-27T20:06:30Z</time>
      </trkpt>
      <trkpt lat="59.4634809076" lon="17.8712240041">
        <ele>124.4</ele>
        <time>2012-09-27T20:06:31Z</time>
      </trkpt>
      <trkpt lat="59.4634710169" lon="17.8713674184">
        <ele>124</ele>
        <time>2012-09-27T20:06:32Z</time>
      </trkpt>
      <trkpt lat="59.4634694243" lon="17.8715079828">
        <ele>124</ele>
        <time>2012-09-27T20:06:33Z</time>
      </trkpt>
      <trkpt lat="59.4634741182" lon="17.8716519839">
        <ele>124</ele>
        <time>2012-09-27T20:06:34Z</time>
      </trkpt>
      <trkpt lat="59.4635345517" lon="17.8723661218">
        <ele>124</ele>
        <time>2012-09-27T20:06:39Z</time>
      </trkpt>
      <trkpt lat="59.4635954881" lon="17.8731879671">
        <ele>124</ele>
        <time>2012-09-27T20:06:45Z</time>
      </trkpt>
      <trkpt lat="59.4637051234" lon="17.8742727526">
        <ele>124</ele>
        <time>2012-09-27T20:06:53Z</time>
      </trkpt>
      <trkpt lat="59.4637330351" lon="17.8743942063">
        <ele>124</ele>
        <time>2012-09-27T20:06:54Z</time>
      </trkpt>
      <trkpt lat="59.4637612821" lon="17.8745093736">
        <ele>124.4</ele>
        <time>2012-09-27T20:06:55Z</time>
      </trkpt>
      <trkpt lat="59.4637902835" lon="17.8746168296">
        <ele>124.8</ele>
        <time>2012-09-27T20:06:56Z</time>
      </trkpt>
      <trkpt lat="59.4638306842" lon="17.8747156522">
        <ele>125.2</ele>
        <time>2012-09-27T20:06:57Z</time>
      </trkpt>
      <trkpt lat="59.4638715041" lon="17.8748119602">
        <ele>125.6</ele>
        <time>2012-09-27T20:06:58Z</time>
      </trkpt>
      <trkpt lat="59.4639111505" lon="17.8749099446">
        <ele>126</ele>
        <time>2012-09-27T20:06:59Z</time>
      </trkpt>
      <trkpt lat="59.4642259746" lon="17.8756880364">
        <ele>126</ele>
        <time>2012-09-27T20:07:07Z</time>
      </trkpt>
      <trkpt lat="59.4643208578" lon="17.8759677404">
        <ele>126</ele>
        <time>2012-09-27T20:07:10Z</time>
      </trkpt>
      <trkpt lat="59.4643736637" lon="17.8762901083">
        <ele>126</ele>
        <time>2012-09-27T20:07:13Z</time>
      </trkpt>
      <trkpt lat="59.4643928583" lon="17.8765140726">
        <ele>126.4</ele>
        <time>2012-09-27T20:07:15Z</time>
      </trkpt>
      <trkpt lat="59.4643986418" lon="17.8766343529">
        <ele>126.8</ele>
        <time>2012-09-27T20:07:16Z</time>
      </trkpt>
      <trkpt lat="59.4643978874" lon="17.8767698044">
        <ele>127.2</ele>
        <time>2012-09-27T20:07:17Z</time>
      </trkpt>
      <trkpt lat="59.4643858175" lon="17.8769021546">
        <ele>128</ele>
        <time>2012-09-27T20:07:18Z</time>
      </trkpt>
      <trkpt lat="59.4643139008" lon="17.877312281">
        <ele>128</ele>
        <time>2012-09-27T20:07:21Z</time>
      </trkpt>
      <trkpt lat="59.4642840612" lon="17.8774551085">
        <ele>128</ele>
        <time>2012-09-27T20:07:22Z</time>
      </trkpt>
      <trkpt lat="59.4642181795" lon="17.8777593715">
        <ele>127.6</ele>
        <time>2012-09-27T20:07:24Z</time>
      </trkpt>
      <trkpt lat="59.4641863283" lon="17.877903624">
        <ele>127.2</ele>
        <time>2012-09-27T20:07:25Z</time>
      </trkpt>
      <trkpt lat="59.4641529683" lon="17.8780479603">
        <ele>126.8</ele>
        <time>2012-09-27T20:07:26Z</time>
      </trkpt>
      <trkpt lat="59.4641171776" lon="17.8781794723">
        <ele>126.2</ele>
        <time>2012-09-27T20:07:27Z</time>
      </trkpt>
      <trkpt lat="59.464081806" lon="17.8782957293">
        <ele>125.4</ele>
        <time>2012-09-27T20:07:28Z</time>
      </trkpt>
      <trkpt lat="59.4640360408" lon="17.8784098908">
        <ele>124.8</ele>
        <time>2012-09-27T20:07:29Z</time>
      </trkpt>
      <trkpt lat="59.4639894374" lon="17.8785180173">
        <ele>124.2</ele>
        <time>2012-09-27T20:07:30Z</time>
      </trkpt>
      <trkpt lat="59.4639358771" lon="17.8786019201">
        <ele>123.4</ele>
        <time>2012-09-27T20:07:31Z</time>
      </trkpt>
      <trkpt lat="59.4638781258" lon="17.8786554804">
        <ele>123.4</ele>
        <time>2012-09-27T20:07:32Z</time>
      </trkpt>
      <trkpt lat="59.4636236513" lon="17.8787725756">
        <ele>123.4</ele>
        <time>2012-09-27T20:07:36Z</time>
      </trkpt>
      <trkpt lat="59.4631601322" lon="17.8790034969">
        <ele>123.4</ele>
        <time>2012-09-27T20:07:43Z</time>
      </trkpt>
      <trkpt lat="59.4631027162" lon="17.8790538721">
        <ele>123.4</ele>
        <time>2012-09-27T20:07:44Z</time>
      </trkpt>
      <trkpt lat="59.4630010438" lon="17.8793015573">
        <ele>123.4</ele>
        <time>2012-09-27T20:07:47Z</time>
      </trkpt>
      <trkpt lat="59.4630216633" lon="17.8796520883">
        <ele>123.4</ele>
        <time>2012-09-27T20:07:50Z</time>
      </trkpt>
      <trkpt lat="59.4630651653" lon="17.880560351">
        <ele>123.4</ele>
        <time>2012-09-27T20:07:57Z</time>
      </trkpt>
      <trkpt lat="59.4630924903" lon="17.8810746644">
        <ele>123.4</ele>
        <time>2012-09-27T20:08:01Z</time>
      </trkpt>
      <trkpt lat="59.4631121878" lon="17.8813393648">
        <ele>123.4</ele>
        <time>2012-09-27T20:08:03Z</time>
      </trkpt>
      <trkpt lat="59.4631280296" lon="17.8820983459">
        <ele>123.4</ele>
        <time>2012-09-27T20:08:09Z</time>
      </trkpt>
      <trkpt lat="59.4631050632" lon="17.8822249964">
        <ele>123.4</ele>
        <time>2012-09-27T20:08:10Z</time>
      </trkpt>
      <trkpt lat="59.4629544404" lon="17.8828131543">
        <ele>123.4</ele>
        <time>2012-09-27T20:08:15Z</time>
      </trkpt>
      <trkpt lat="59.4627532748" lon="17.8835113666">
        <ele>123.4</ele>
        <time>2012-09-27T20:08:21Z</time>
      </trkpt>
      <trkpt lat="59.4627220941" lon="17.8836326527">
        <ele>123.4</ele>
        <time>2012-09-27T20:08:22Z</time>
      </trkpt>
      <trkpt lat="59.462454041" lon="17.884502191">
        <ele>123.4</ele>
        <time>2012-09-27T20:08:29Z</time>
      </trkpt>
      <trkpt lat="59.4624007321" lon="17.884609144">
        <ele>123.4</ele>
        <time>2012-09-27T20:08:30Z</time>
      </trkpt>
      <trkpt lat="59.4622774343" lon="17.8848055319">
        <ele>123.4</ele>
        <time>2012-09-27T20:08:32Z</time>
      </trkpt>
      <trkpt lat="59.4622087028" lon="17.8848765266">
        <ele>123.4</ele>
        <time>2012-09-27T20:08:33Z</time>
      </trkpt>
      <trkpt lat="59.4618147535" lon="17.8852038398">
        <ele>123.4</ele>
        <time>2012-09-27T20:08:39Z</time>
      </trkpt>
      <trkpt lat="59.4617567507" lon="17.8852798636">
        <ele>123.4</ele>
        <time>2012-09-27T20:08:40Z</time>
      </trkpt>
      <trkpt lat="59.4616277533" lon="17.8855605735">
        <ele>123.4</ele>
        <time>2012-09-27T20:08:43Z</time>
      </trkpt>
      <trkpt lat="59.4615640508" lon="17.8857802631">
        <ele>123.4</ele>
        <time>2012-09-27T20:08:45Z</time>
      </trkpt>
      <trkpt lat="59.4614660664" lon="17.8859986116">
        <ele>123.4</ele>
        <time>2012-09-27T20:08:47Z</time>
      </trkpt>
      <trkpt lat="59.4612033777" lon="17.8862771421">
        <ele>123.4</ele>
        <time>2012-09-27T20:08:51Z</time>
      </trkpt>
      <trkpt lat="59.4611306228" lon="17.8863454546">
        <ele>123</ele>
        <time>2012-09-27T20:08:52Z</time>
      </trkpt>
      <trkpt lat="59.4610584546" lon="17.8864201373">
        <ele>122.6</ele>
        <time>2012-09-27T20:08:53Z</time>
      </trkpt>
      <trkpt lat="59.4609857836" lon="17.8865006874">
        <ele>122.2</ele>
        <time>2012-09-27T20:08:54Z</time>
      </trkpt>
      <trkpt lat="59.4609087539" lon="17.8865832491">
        <ele>121.8</ele>
        <time>2012-09-27T20:08:55Z</time>
      </trkpt>
      <trkpt lat="59.4608345741" lon="17.8866558363">
        <ele>121.4</ele>
        <time>2012-09-27T20:08:56Z</time>
      </trkpt>
      <trkpt lat="59.460760981" lon="17.8867267472">
        <ele>121.4</ele>
        <time>2012-09-27T20:08:57Z</time>
      </trkpt>
      <trkpt lat="59.4603751621" lon="17.8870579161">
        <ele>121.4</ele>
        <time>2012-09-27T20:09:02Z</time>
      </trkpt>
      <trkpt lat="59.4602884933" lon="17.8870956346">
        <ele>121.4</ele>
        <time>2012-09-27T20:09:03Z</time>
      </trkpt>
      <trkpt lat="59.4596787939" lon="17.8872907653">
        <ele>121.4</ele>
        <time>2012-09-27T20:09:10Z</time>
      </trkpt>
      <trkpt lat="59.4593772969" lon="17.8873848102">
        <ele>121</ele>
        <time>2012-09-27T20:09:14Z</time>
      </trkpt>
      <trkpt lat="59.4593113314" lon="17.8874289828">
        <ele>120.4</ele>
        <time>2012-09-27T20:09:15Z</time>
      </trkpt>
      <trkpt lat="59.4592508979" lon="17.8874930205">
        <ele>120</ele>
        <time>2012-09-27T20:09:16Z</time>
      </trkpt>
      <trkpt lat="59.4591928113" lon="17.8875894962">
        <ele>119.6</ele>
        <time>2012-09-27T20:09:17Z</time>
      </trkpt>
      <trkpt lat="59.4591441125" lon="17.887706759">
        <ele>119.2</ele>
        <time>2012-09-27T20:09:18Z</time>
      </trkpt>
      <trkpt lat="59.4590944916" lon="17.8878361755">
        <ele>119.2</ele>
        <time>2012-09-27T20:09:19Z</time>
      </trkpt>
      <trkpt lat="59.4589056474" lon="17.8883698511">
        <ele>119.2</ele>
        <time>2012-09-27T20:09:23Z</time>
      </trkpt>
      <trkpt lat="59.4585791724" lon="17.8891932889">
        <ele>118.8</ele>
        <time>2012-09-27T20:09:29Z</time>
      </trkpt>
      <trkpt lat="59.4585192418" lon="17.8893031756">
        <ele>118.2</ele>
        <time>2012-09-27T20:09:30Z</time>
      </trkpt>
      <trkpt lat="59.4584578863" lon="17.8894094581">
        <ele>117.8</ele>
        <time>2012-09-27T20:09:31Z</time>
      </trkpt>
      <trkpt lat="59.4583881489" lon="17.8895136451">
        <ele>117.4</ele>
        <time>2012-09-27T20:09:32Z</time>
      </trkpt>
      <trkpt lat="59.4583153102" lon="17.8895992243">
        <ele>117</ele>
        <time>2012-09-27T20:09:33Z</time>
      </trkpt>
      <trkpt lat="59.4582462434" lon="17.8896919282">
        <ele>117</ele>
        <time>2012-09-27T20:09:34Z</time>
      </trkpt>
      <trkpt lat="59.4581677888" lon="17.8897702989">
        <ele>117</ele>
        <time>2012-09-27T20:09:35Z</time>
      </trkpt>
      <trkpt lat="59.4578624362" lon="17.8900950976">
        <ele>117</ele>
        <time>2012-09-27T20:09:39Z</time>
      </trkpt>
      <trkpt lat="59.4576435009" lon="17.8903345684">
        <ele>116.6</ele>
        <time>2012-09-27T20:09:42Z</time>
      </trkpt>
      <trkpt lat="59.4575725062" lon="17.8904094188">
        <ele>116.2</ele>
        <time>2012-09-27T20:09:43Z</time>
      </trkpt>
      <trkpt lat="59.4575039423" lon="17.8904779827">
        <ele>115.8</ele>
        <time>2012-09-27T20:09:44Z</time>
      </trkpt>
      <trkpt lat="59.4574349593" lon="17.8905540066">
        <ele>115.4</ele>
        <time>2012-09-27T20:09:45Z</time>
      </trkpt>
      <trkpt lat="59.4573653057" lon="17.8906284378">
        <ele>115</ele>
        <time>2012-09-27T20:09:46Z</time>
      </trkpt>
      <trkpt lat="59.456887705" lon="17.8911087207">
        <ele>115</ele>
        <time>2012-09-27T20:09:53Z</time>
      </trkpt>
      <trkpt lat="59.4567271916" lon="17.8914491097">
        <ele>115</ele>
        <time>2012-09-27T20:09:57Z</time>
      </trkpt>
      <trkpt lat="59.4567198156" lon="17.8920579709">
        <ele>115</ele>
        <time>2012-09-27T20:10:02Z</time>
      </trkpt>
      <trkpt lat="59.4566497429" lon="17.8927115915">
        <ele>115</ele>
        <time>2012-09-27T20:10:07Z</time>
      </trkpt>
      <trkpt lat="59.4565076697" lon="17.8929857634">
        <ele>115</ele>
        <time>2012-09-27T20:10:10Z</time>
      </trkpt>
      <trkpt lat="59.4564515109" lon="17.8930743601">
        <ele>115</ele>
        <time>2012-09-27T20:10:11Z</time>
      </trkpt>
      <trkpt lat="59.4563433006" lon="17.893216098">
        <ele>115</ele>
        <time>2012-09-27T20:10:13Z</time>
      </trkpt>
      <trkpt lat="59.4561787639" lon="17.8933969794">
        <ele>115</ele>
        <time>2012-09-27T20:10:16Z</time>
      </trkpt>
      <trkpt lat="59.4557984771" lon="17.8937474267">
        <ele>115</ele>
        <time>2012-09-27T20:10:23Z</time>
      </trkpt>
      <trkpt lat="59.4554619438" lon="17.8941082675">
        <ele>115</ele>
        <time>2012-09-27T20:10:29Z</time>
      </trkpt>
      <trkpt lat="59.4552442659" lon="17.8942532743">
        <ele>115.4</ele>
        <time>2012-09-27T20:10:33Z</time>
      </trkpt>
      <trkpt lat="59.4551996742" lon="17.8942895679">
        <ele>115.8</ele>
        <time>2012-09-27T20:10:34Z</time>
      </trkpt>
      <trkpt lat="59.4551541605" lon="17.89431639">
        <ele>116.2</ele>
        <time>2012-09-27T20:10:35Z</time>
      </trkpt>
      <trkpt lat="59.4551090658" lon="17.8943426254">
        <ele>117.2</ele>
        <time>2012-09-27T20:10:36Z</time>
      </trkpt>
      <trkpt lat="59.4550083992" lon="17.8943599759">
        <ele>117.2</ele>
        <time>2012-09-27T20:10:39Z</time>
      </trkpt>
      <trkpt lat="59.4549798169" lon="17.8943428768">
        <ele>117.2</ele>
        <time>2012-09-27T20:10:40Z</time>
      </trkpt>
      <trkpt lat="59.4548791503" lon="17.8944432082">
        <ele>117.2</ele>
        <time>2012-09-27T20:10:43Z</time>
      </trkpt>
      <trkpt lat="59.4548384981" lon="17.8944763167">
        <ele>117.2</ele>
        <time>2012-09-27T20:10:44Z</time>
      </trkpt>
      <trkpt lat="59.4546527552" lon="17.8946430327">
        <ele>117.2</ele>
        <time>2012-09-27T20:10:49Z</time>
      </trkpt>
      <trkpt lat="59.4546117677" lon="17.8946801645">
        <ele>117.6</ele>
        <time>2012-09-27T20:10:50Z</time>
      </trkpt>
      <trkpt lat="59.4545763961" lon="17.8947065675">
        <ele>118</ele>
        <time>2012-09-27T20:10:51Z</time>
      </trkpt>
      <trkpt lat="59.4545442096" lon="17.8947235827">
        <ele>118.4</ele>
        <time>2012-09-27T20:10:52Z</time>
      </trkpt>
      <trkpt lat="59.4545187286" lon="17.8947101717">
        <ele>118.8</ele>
        <time>2012-09-27T20:10:53Z</time>
      </trkpt>
      <trkpt lat="59.4544985282" lon="17.894654013">
        <ele>119.2</ele>
        <time>2012-09-27T20:10:54Z</time>
      </trkpt>
      <trkpt lat="59.4544545233" lon="17.8943696989">
        <ele>119.8</ele>
        <time>2012-09-27T20:10:57Z</time>
      </trkpt>
      <trkpt lat="59.4544424533" lon="17.8942811022">
        <ele>120.2</ele>
        <time>2012-09-27T20:10:58Z</time>
      </trkpt>
      <trkpt lat="59.4544351611" lon="17.8942049108">
        <ele>120.6</ele>
        <time>2012-09-27T20:10:59Z</time>
      </trkpt>
      <trkpt lat="59.4544251866" lon="17.8941360954">
        <ele>121.6</ele>
        <time>2012-09-27T20:11:00Z</time>
      </trkpt>
      <trkpt lat="59.4544168885" lon="17.8940675314">
        <ele>122</ele>
        <time>2012-09-27T20:11:01Z</time>
      </trkpt>
      <trkpt lat="59.4544069141" lon="17.8939963691">
        <ele>122.4</ele>
        <time>2012-09-27T20:11:02Z</time>
      </trkpt>
      <trkpt lat="59.4543966882" lon="17.89393669">
        <ele>123</ele>
        <time>2012-09-27T20:11:03Z</time>
      </trkpt>
      <trkpt lat="59.4543868813" lon="17.8938719817">
        <ele>123.4</ele>
        <time>2012-09-27T20:11:04Z</time>
      </trkpt>
      <trkpt lat="59.4543774098" lon="17.8938073572">
        <ele>123.8</ele>
        <time>2012-09-27T20:11:05Z</time>
      </trkpt>
      <trkpt lat="59.454368525" lon="17.8937423137">
        <ele>124.2</ele>
        <time>2012-09-27T20:11:06Z</time>
      </trkpt>
      <trkpt lat="59.4543582152" lon="17.893678276">
        <ele>124.6</ele>
        <time>2012-09-27T20:11:07Z</time>
      </trkpt>
      <trkpt lat="59.4543470673" lon="17.8936137354">
        <ele>125</ele>
        <time>2012-09-27T20:11:08Z</time>
      </trkpt>
      <trkpt lat="59.4543309741" lon="17.8935572413">
        <ele>125.4</ele>
        <time>2012-09-27T20:11:09Z</time>
      </trkpt>
      <trkpt lat="59.4543162219" lon="17.8934988195">
        <ele>125.8</ele>
        <time>2012-09-27T20:11:10Z</time>
      </trkpt>
      <trkpt lat="59.4543040682" lon="17.8934403138">
        <ele>126.2</ele>
        <time>2012-09-27T20:11:11Z</time>
      </trkpt>
      <trkpt lat="59.4542910762" lon="17.8933773658">
        <ele>126.6</ele>
        <time>2012-09-27T20:11:12Z</time>
      </trkpt>
      <trkpt lat="59.4542785872" lon="17.8933200336">
        <ele>127</ele>
        <time>2012-09-27T20:11:13Z</time>
      </trkpt>
      <trkpt lat="59.4542636674" lon="17.8932592648">
        <ele>127.4</ele>
        <time>2012-09-27T20:11:14Z</time>
      </trkpt>
      <trkpt lat="59.4542531062" lon="17.8932033575">
        <ele>127.8</ele>
        <time>2012-09-27T20:11:15Z</time>
      </trkpt>
      <trkpt lat="59.4542353366" lon="17.8930995896">
        <ele>128.4</ele>
        <time>2012-09-27T20:11:17Z</time>
      </trkpt>
      <trkpt lat="59.4542282958" lon="17.8930479571">
        <ele>128.8</ele>
        <time>2012-09-27T20:11:18Z</time>
      </trkpt>
      <trkpt lat="59.4542214226" lon="17.8929980848">
        <ele>129.4</ele>
        <time>2012-09-27T20:11:19Z</time>
      </trkpt>
      <trkpt lat="59.4542130407" lon="17.8929389086">
        <ele>130</ele>
        <time>2012-09-27T20:11:20Z</time>
      </trkpt>
      <trkpt lat="59.4542010546" lon="17.8928773854">
        <ele>130.4</ele>
        <time>2012-09-27T20:11:21Z</time>
      </trkpt>
      <trkpt lat="59.454190661" lon="17.892811839">
        <ele>131</ele>
        <time>2012-09-27T20:11:22Z</time>
      </trkpt>
      <trkpt lat="59.4541780044" lon="17.8927570214">
        <ele>131.6</ele>
        <time>2012-09-27T20:11:23Z</time>
      </trkpt>
      <trkpt lat="59.454166605" lon="17.8927015332">
        <ele>132.8</ele>
        <time>2012-09-27T20:11:24Z</time>
      </trkpt>
      <trkpt lat="59.4541561276" lon="17.8926411835">
        <ele>133.2</ele>
        <time>2012-09-27T20:11:25Z</time>
      </trkpt>
      <trkpt lat="59.4541447282" lon="17.892571949">
        <ele>133.6</ele>
        <time>2012-09-27T20:11:26Z</time>
      </trkpt>
      <trkpt lat="59.4541329936" lon="17.8924984397">
        <ele>134</ele>
        <time>2012-09-27T20:11:27Z</time>
      </trkpt>
      <trkpt lat="59.4541177385" lon="17.8924280318">
        <ele>134.4</ele>
        <time>2012-09-27T20:11:28Z</time>
      </trkpt>
      <trkpt lat="59.4541036569" lon="17.8923473141">
        <ele>134.8</ele>
        <time>2012-09-27T20:11:29Z</time>
      </trkpt>
      <trkpt lat="59.454054539" lon="17.8920412071">
        <ele>134.8</ele>
        <time>2012-09-27T20:11:33Z</time>
      </trkpt>
      <trkpt lat="59.4540368532" lon="17.8919449829">
        <ele>134.2</ele>
        <time>2012-09-27T20:11:34Z</time>
      </trkpt>
      <trkpt lat="59.4540236098" lon="17.8918658577">
        <ele>133.8</ele>
        <time>2012-09-27T20:11:35Z</time>
      </trkpt>
      <trkpt lat="59.4540106178" lon="17.8917858106">
        <ele>133.2</ele>
        <time>2012-09-27T20:11:36Z</time>
      </trkpt>
      <trkpt lat="59.4539976259" lon="17.8917089486">
        <ele>132.4</ele>
        <time>2012-09-27T20:11:37Z</time>
      </trkpt>
      <trkpt lat="59.4539884896" lon="17.8916324218">
        <ele>131.8</ele>
        <time>2012-09-27T20:11:38Z</time>
      </trkpt>
      <trkpt lat="59.4539592368" lon="17.8915895065">
        <ele>131</ele>
        <time>2012-09-27T20:11:39Z</time>
      </trkpt>
      <trkpt lat="59.4539278047" lon="17.8915590802">
        <ele>130.4</ele>
        <time>2012-09-27T20:11:40Z</time>
      </trkpt>
      <trkpt lat="59.4538492663" lon="17.8915285701">
        <ele>130.4</ele>
        <time>2012-09-27T20:11:42Z</time>
      </trkpt>
      <trkpt lat="59.4538024953" lon="17.8915335154">
        <ele>130.4</ele>
        <time>2012-09-27T20:11:43Z</time>
      </trkpt>
      <trkpt lat="59.4536025031" lon="17.8915942004">
        <ele>130.4</ele>
        <time>2012-09-27T20:11:46Z</time>
      </trkpt>
      <trkpt lat="59.4532681491" lon="17.8915346051">
        <ele>130.4</ele>
        <time>2012-09-27T20:11:51Z</time>
      </trkpt>
      <trkpt lat="59.4529493017" lon="17.8912603493">
        <ele>130.4</ele>
        <time>2012-09-27T20:11:56Z</time>
      </trkpt>
      <trkpt lat="59.4527560989" lon="17.8910968184">
        <ele>130.4</ele>
        <time>2012-09-27T20:11:59Z</time>
      </trkpt>
      <trkpt lat="59.4526095833" lon="17.8910339542">
        <ele>130.4</ele>
        <time>2012-09-27T20:12:01Z</time>
      </trkpt>
      <trkpt lat="59.452544875" lon="17.8910045337">
        <ele>130</ele>
        <time>2012-09-27T20:12:02Z</time>
      </trkpt>
      <trkpt lat="59.4524862017" lon="17.8909761191">
        <ele>129.4</ele>
        <time>2012-09-27T20:12:03Z</time>
      </trkpt>
      <trkpt lat="59.4524369161" lon="17.8909530688">
        <ele>129</ele>
        <time>2012-09-27T20:12:04Z</time>
      </trkpt>
      <trkpt lat="59.4524147879" lon="17.8909176134">
        <ele>128.4</ele>
        <time>2012-09-27T20:12:05Z</time>
      </trkpt>
      <trkpt lat="59.4523987785" lon="17.8908725188">
        <ele>127.8</ele>
        <time>2012-09-27T20:12:06Z</time>
      </trkpt>
      <trkpt lat="59.4523993652" lon="17.8908329562">
        <ele>127.2</ele>
        <time>2012-09-27T20:12:07Z</time>
      </trkpt>
      <trkpt lat="59.4523980241" lon="17.8907956568">
        <ele>126.6</ele>
        <time>2012-09-27T20:12:08Z</time>
      </trkpt>
      <trkpt lat="59.4524105131" lon="17.8907328763">
        <ele>126</ele>
        <time>2012-09-27T20:12:09Z</time>
      </trkpt>
      <trkpt lat="59.4523983594" lon="17.8905861931">
        <ele>126</ele>
        <time>2012-09-27T20:12:11Z</time>
      </trkpt>
      <trkpt lat="59.4523723755" lon="17.8905267654">
        <ele>126</ele>
        <time>2012-09-27T20:12:12Z</time>
      </trkpt>
      <trkpt lat="59.4523324776" lon="17.890463063">
        <ele>125.6</ele>
        <time>2012-09-27T20:12:13Z</time>
      </trkpt>
      <trkpt lat="59.4523054879" lon="17.8903781543">
        <ele>124.6</ele>
        <time>2012-09-27T20:12:14Z</time>
      </trkpt>
      <trkpt lat="59.4522877183" lon="17.8902789126">
        <ele>124.2</ele>
        <time>2012-09-27T20:12:15Z</time>
      </trkpt>
      <trkpt lat="59.4522655901" lon="17.8901761505">
        <ele>123.8</ele>
        <time>2012-09-27T20:12:16Z</time>
      </trkpt>
      <trkpt lat="59.452213287" lon="17.8899767451">
        <ele>123.8</ele>
        <time>2012-09-27T20:12:18Z</time>
      </trkpt>
      <trkpt lat="59.4520972815" lon="17.8898028207">
        <ele>123.8</ele>
        <time>2012-09-27T20:12:21Z</time>
      </trkpt>
      <trkpt lat="59.4520317351" lon="17.8896932693">
        <ele>123.8</ele>
        <time>2012-09-27T20:12:23Z</time>
      </trkpt>
      <trkpt lat="59.4518691262" lon="17.8893677163">
        <ele>123.8</ele>
        <time>2012-09-27T20:12:28Z</time>
      </trkpt>
      <trkpt lat="59.4518158173" lon="17.8892433289">
        <ele>123.8</ele>
        <time>2012-09-27T20:12:30Z</time>
      </trkpt>
      <trkpt lat="59.4517361055" lon="17.8891999944">
        <ele>123.8</ele>
        <time>2012-09-27T20:12:32Z</time>
      </trkpt>
      <trkpt lat="59.4517063497" lon="17.8891899362">
        <ele>123.4</ele>
        <time>2012-09-27T20:12:33Z</time>
      </trkpt>
      <trkpt lat="59.4516735765" lon="17.8891880922">
        <ele>122.8</ele>
        <time>2012-09-27T20:12:34Z</time>
      </trkpt>
      <trkpt lat="59.4516382887" lon="17.8892092145">
        <ele>122.4</ele>
        <time>2012-09-27T20:12:35Z</time>
      </trkpt>
      <trkpt lat="59.451601073" lon="17.8892303369">
        <ele>122</ele>
        <time>2012-09-27T20:12:36Z</time>
      </trkpt>
      <trkpt lat="59.4515589959" lon="17.8892647865">
        <ele>121.4</ele>
        <time>2012-09-27T20:12:37Z</time>
      </trkpt>
      <trkpt lat="59.451516332" lon="17.8893082886">
        <ele>121.4</ele>
        <time>2012-09-27T20:12:38Z</time>
      </trkpt>
      <trkpt lat="59.451433938" lon="17.8894111345">
        <ele>122</ele>
        <time>2012-09-27T20:12:40Z</time>
      </trkpt>
      <trkpt lat="59.451404266" lon="17.8894832189">
        <ele>122.4</ele>
        <time>2012-09-27T20:12:41Z</time>
      </trkpt>
      <trkpt lat="59.4513755999" lon="17.8895607514">
        <ele>123</ele>
        <time>2012-09-27T20:12:42Z</time>
      </trkpt>
      <trkpt lat="59.4513367079" lon="17.8896271361">
        <ele>123.4</ele>
        <time>2012-09-27T20:12:43Z</time>
      </trkpt>
      <trkpt lat="59.4512901046" lon="17.8896775113">
        <ele>124</ele>
        <time>2012-09-27T20:12:44Z</time>
      </trkpt>
      <trkpt lat="59.4512465187" lon="17.8897135535">
        <ele>124</ele>
        <time>2012-09-27T20:12:45Z</time>
      </trkpt>
      <trkpt lat="59.4510751088" lon="17.8897634258">
        <ele>124</ele>
        <time>2012-09-27T20:12:49Z</time>
      </trkpt>
      <trkpt lat="59.4510311038" lon="17.8896946942">
        <ele>124</ele>
        <time>2012-09-27T20:12:50Z</time>
      </trkpt>
      <trkpt lat="59.4509644677" lon="17.8896135574">
        <ele>124</ele>
        <time>2012-09-27T20:12:52Z</time>
      </trkpt>
      <trkpt lat="59.4509378133" lon="17.8895651938">
        <ele>123.6</ele>
        <time>2012-09-27T20:12:53Z</time>
      </trkpt>
      <trkpt lat="59.4509211333" lon="17.8895276429">
        <ele>123</ele>
        <time>2012-09-27T20:12:54Z</time>
      </trkpt>
      <trkpt lat="59.4509040342" lon="17.8894932771">
        <ele>122.6</ele>
        <time>2012-09-27T20:12:55Z</time>
      </trkpt>
      <trkpt lat="59.4508891145" lon="17.8894617612">
        <ele>122.2</ele>
        <time>2012-09-27T20:12:56Z</time>
      </trkpt>
      <trkpt lat="59.4508683273" lon="17.8894256352">
        <ele>121.8</ele>
        <time>2012-09-27T20:12:57Z</time>
      </trkpt>
      <trkpt lat="59.450745784" lon="17.8891897685">
        <ele>121.8</ele>
        <time>2012-09-27T20:13:02Z</time>
      </trkpt>
      <trkpt lat="59.4506635575" lon="17.8890447617">
        <ele>122.2</ele>
        <time>2012-09-27T20:13:05Z</time>
      </trkpt>
      <trkpt lat="59.4506330474" lon="17.8889918719">
        <ele>122.6</ele>
        <time>2012-09-27T20:13:06Z</time>
      </trkpt>
      <trkpt lat="59.4506060577" lon="17.8889401555">
        <ele>123</ele>
        <time>2012-09-27T20:13:07Z</time>
      </trkpt>
      <trkpt lat="59.4505813311" lon="17.8888864276">
        <ele>123.4</ele>
        <time>2012-09-27T20:13:08Z</time>
      </trkpt>
      <trkpt lat="59.4505536708" lon="17.8888236471">
        <ele>123.8</ele>
        <time>2012-09-27T20:13:09Z</time>
      </trkpt>
      <trkpt lat="59.450366503" lon="17.8884486409">
        <ele>123.8</ele>
        <time>2012-09-27T20:13:15Z</time>
      </trkpt>
      <trkpt lat="59.4503190614" lon="17.8884071505">
        <ele>123.8</ele>
        <time>2012-09-27T20:13:16Z</time>
      </trkpt>
      <trkpt lat="59.4501559497" lon="17.8883909735">
        <ele>123.8</ele>
        <time>2012-09-27T20:13:19Z</time>
      </trkpt>
      <trkpt lat="59.4499584721" lon="17.8884703501">
        <ele>123.8</ele>
        <time>2012-09-27T20:13:22Z</time>
      </trkpt>
      <trkpt lat="59.4498993797" lon="17.8884947414">
        <ele>123.8</ele>
        <time>2012-09-27T20:13:23Z</time>
      </trkpt>
      <trkpt lat="59.4495084479" lon="17.8885995151">
        <ele>123.8</ele>
        <time>2012-09-27T20:13:30Z</time>
      </trkpt>
      <trkpt lat="59.4493478507" lon="17.8886520696">
        <ele>123.4</ele>
        <time>2012-09-27T20:13:33Z</time>
      </trkpt>
      <trkpt lat="59.4493007444" lon="17.8886737788">
        <ele>123</ele>
        <time>2012-09-27T20:13:34Z</time>
      </trkpt>
      <trkpt lat="59.4492516265" lon="17.8886999303">
        <ele>122.6</ele>
        <time>2012-09-27T20:13:35Z</time>
      </trkpt>
      <trkpt lat="59.44920737" lon="17.8887456955">
        <ele>123</ele>
        <time>2012-09-27T20:13:36Z</time>
      </trkpt>
      <trkpt lat="59.4491649576" lon="17.8887889461">
        <ele>123.4</ele>
        <time>2012-09-27T20:13:37Z</time>
      </trkpt>
      <trkpt lat="59.4491378003" lon="17.8888718431">
        <ele>123.8</ele>
        <time>2012-09-27T20:13:38Z</time>
      </trkpt>
      <trkpt lat="59.4491263171" lon="17.8889652174">
        <ele>124.2</ele>
        <time>2012-09-27T20:13:39Z</time>
      </trkpt>
      <trkpt lat="59.4491250598" lon="17.8890785407">
        <ele>124.4</ele>
        <time>2012-09-27T20:13:40Z</time>
      </trkpt>
      <trkpt lat="59.449123551" lon="17.8893114737">
        <ele>124.4</ele>
        <time>2012-09-27T20:13:42Z</time>
      </trkpt>
      <trkpt lat="59.4491191086" lon="17.8894225339">
        <ele>124.4</ele>
        <time>2012-09-27T20:13:43Z</time>
      </trkpt>
      <trkpt lat="59.4490911969" lon="17.8897708857">
        <ele>124.4</ele>
        <time>2012-09-27T20:13:46Z</time>
      </trkpt>
      <trkpt lat="59.4490569149" lon="17.8899800979">
        <ele>124.4</ele>
        <time>2012-09-27T20:13:48Z</time>
      </trkpt>
      <trkpt lat="59.4490406541" lon="17.8900829438">
        <ele>124.4</ele>
        <time>2012-09-27T20:13:49Z</time>
      </trkpt>
      <trkpt lat="59.4489927934" lon="17.8904103408">
        <ele>125</ele>
        <time>2012-09-27T20:13:52Z</time>
      </trkpt>
      <trkpt lat="59.4489752752" lon="17.8905233288">
        <ele>125.8</ele>
        <time>2012-09-27T20:13:53Z</time>
      </trkpt>
      <trkpt lat="59.4489579247" lon="17.8906314553">
        <ele>126.2</ele>
        <time>2012-09-27T20:13:54Z</time>
      </trkpt>
      <trkpt lat="59.4489410771" lon="17.8907378216">
        <ele>126.8</ele>
        <time>2012-09-27T20:13:55Z</time>
      </trkpt>
      <trkpt lat="59.4488979103" lon="17.8909519792">
        <ele>126.8</ele>
        <time>2012-09-27T20:13:57Z</time>
      </trkpt>
      <trkpt lat="59.448846194" lon="17.8914758479">
        <ele>126.8</ele>
        <time>2012-09-27T20:14:02Z</time>
      </trkpt>
      <trkpt lat="59.4488945575" lon="17.8919993814">
        <ele>127.2</ele>
        <time>2012-09-27T20:14:07Z</time>
      </trkpt>
      <trkpt lat="59.448900341" lon="17.8921132914">
        <ele>127.6</ele>
        <time>2012-09-27T20:14:08Z</time>
      </trkpt>
      <trkpt lat="59.4489014307" lon="17.8922318953">
        <ele>128</ele>
        <time>2012-09-27T20:14:09Z</time>
      </trkpt>
      <trkpt lat="59.4488952281" lon="17.8923586296">
        <ele>128.6</ele>
        <time>2012-09-27T20:14:10Z</time>
      </trkpt>
      <trkpt lat="59.4488798054" lon="17.8924838552">
        <ele>129</ele>
        <time>2012-09-27T20:14:11Z</time>
      </trkpt>
      <trkpt lat="59.4488610299" lon="17.8926031297">
        <ele>129</ele>
        <time>2012-09-27T20:14:12Z</time>
      </trkpt>
      <trkpt lat="59.4487775462" lon="17.8929454465">
        <ele>129</ele>
        <time>2012-09-27T20:14:15Z</time>
      </trkpt>
      <trkpt lat="59.4487214713" lon="17.8931833248">
        <ele>129</ele>
        <time>2012-09-27T20:14:17Z</time>
      </trkpt>
      <trkpt lat="59.4484846826" lon="17.8940344229">
        <ele>129</ele>
        <time>2012-09-27T20:14:25Z</time>
      </trkpt>
      <trkpt lat="59.448286786" lon="17.8944522606">
        <ele>129.4</ele>
        <time>2012-09-27T20:14:30Z</time>
      </trkpt>
      <trkpt lat="59.44823859" lon="17.894514622">
        <ele>129.8</ele>
        <time>2012-09-27T20:14:31Z</time>
      </trkpt>
      <trkpt lat="59.4481896397" lon="17.8945734629">
        <ele>130.2</ele>
        <time>2012-09-27T20:14:32Z</time>
      </trkpt>
      <trkpt lat="59.4481346545" lon="17.894606739">
        <ele>130.6</ele>
        <time>2012-09-27T20:14:33Z</time>
      </trkpt>
      <trkpt lat="59.4480761488" lon="17.8946297893">
        <ele>131</ele>
        <time>2012-09-27T20:14:34Z</time>
      </trkpt>
      <trkpt lat="59.4479404459" lon="17.8946755544">
        <ele>131</ele>
        <time>2012-09-27T20:14:36Z</time>
      </trkpt>
      <trkpt lat="59.4475343428" lon="17.894783681">
        <ele>131</ele>
        <time>2012-09-27T20:14:42Z</time>
      </trkpt>
      <trkpt lat="59.447475418" lon="17.8948197231">
        <ele>131</ele>
        <time>2012-09-27T20:14:43Z</time>
      </trkpt>
      <trkpt lat="59.4472465922" lon="17.8949498102">
        <ele>131</ele>
        <time>2012-09-27T20:14:47Z</time>
      </trkpt>
      <trkpt lat="59.4468352923" lon="17.8951270874">
        <ele>131</ele>
        <time>2012-09-27T20:14:53Z</time>
      </trkpt>
      <trkpt lat="59.4463806581" lon="17.8952834937">
        <ele>131</ele>
        <time>2012-09-27T20:14:59Z</time>
      </trkpt>
      <trkpt lat="59.4460342342" lon="17.8954969806">
        <ele>130.6</ele>
        <time>2012-09-27T20:15:04Z</time>
      </trkpt>
      <trkpt lat="59.4459675981" lon="17.8955456795">
        <ele>130.2</ele>
        <time>2012-09-27T20:15:05Z</time>
      </trkpt>
      <trkpt lat="59.4459022192" lon="17.8955918638">
        <ele>129.6</ele>
        <time>2012-09-27T20:15:06Z</time>
      </trkpt>
      <trkpt lat="59.445838433" lon="17.8956407302">
        <ele>128.8</ele>
        <time>2012-09-27T20:15:07Z</time>
      </trkpt>
      <trkpt lat="59.4456427156" lon="17.895805686">
        <ele>128.4</ele>
        <time>2012-09-27T20:15:10Z</time>
      </trkpt>
      <trkpt lat="59.4455798514" lon="17.8958611742">
        <ele>127.8</ele>
        <time>2012-09-27T20:15:11Z</time>
      </trkpt>
      <trkpt lat="59.4455153107" lon="17.8959179197">
        <ele>127.4</ele>
        <time>2012-09-27T20:15:12Z</time>
      </trkpt>
      <trkpt lat="59.4454556316" lon="17.8959703904">
        <ele>126.8</ele>
        <time>2012-09-27T20:15:13Z</time>
      </trkpt>
      <trkpt lat="59.4453916777" lon="17.896022861">
        <ele>126.4</ele>
        <time>2012-09-27T20:15:14Z</time>
      </trkpt>
      <trkpt lat="59.4451611755" lon="17.896217824">
        <ele>125.8</ele>
        <time>2012-09-27T20:15:18Z</time>
      </trkpt>
      <trkpt lat="59.4451071122" lon="17.8962182431">
        <ele>125.4</ele>
        <time>2012-09-27T20:15:19Z</time>
      </trkpt>
      <trkpt lat="59.4450606765" lon="17.8962109509">
        <ele>125</ele>
        <time>2012-09-27T20:15:20Z</time>
      </trkpt>
      <trkpt lat="59.4450086249" lon="17.8962081849">
        <ele>124.4</ele>
        <time>2012-09-27T20:15:21Z</time>
      </trkpt>
      <trkpt lat="59.4449533882" lon="17.8962039101">
        <ele>124</ele>
        <time>2012-09-27T20:15:22Z</time>
      </trkpt>
      <trkpt lat="59.4448414898" lon="17.8961783453">
        <ele>124</ele>
        <time>2012-09-27T20:15:24Z</time>
      </trkpt>
      <trkpt lat="59.4447297591" lon="17.8961100328">
        <ele>124</ele>
        <time>2012-09-27T20:15:26Z</time>
      </trkpt>
      <trkpt lat="59.4446207944" lon="17.8959888305">
        <ele>124</ele>
        <time>2012-09-27T20:15:28Z</time>
      </trkpt>
      <trkpt lat="59.4444202993" lon="17.8957716555">
        <ele>124</ele>
        <time>2012-09-27T20:15:31Z</time>
      </trkpt>
      <trkpt lat="59.4443486341" lon="17.8957110544">
        <ele>124</ele>
        <time>2012-09-27T20:15:32Z</time>
      </trkpt>
      <trkpt lat="59.4442753763" lon="17.8956651216">
        <ele>124</ele>
        <time>2012-09-27T20:15:33Z</time>
      </trkpt>
      <trkpt lat="59.443965246" lon="17.8955006687">
        <ele>124</ele>
        <time>2012-09-27T20:15:37Z</time>
      </trkpt>
      <trkpt lat="59.4436402797" lon="17.8953924584">
        <ele>124</ele>
        <time>2012-09-27T20:15:41Z</time>
      </trkpt>
      <trkpt lat="59.4435608193" lon="17.8953832383">
        <ele>124</ele>
        <time>2012-09-27T20:15:42Z</time>
      </trkpt>
      <trkpt lat="59.4430893374" lon="17.8954046121">
        <ele>123.6</ele>
        <time>2012-09-27T20:15:48Z</time>
      </trkpt>
      <trkpt lat="59.4430170016" lon="17.895447276">
        <ele>123</ele>
        <time>2012-09-27T20:15:49Z</time>
      </trkpt>
      <trkpt lat="59.4429479348" lon="17.8954976512">
        <ele>122.6</ele>
        <time>2012-09-27T20:15:50Z</time>
      </trkpt>
      <trkpt lat="59.4428797061" lon="17.8955570789">
        <ele>122.2</ele>
        <time>2012-09-27T20:15:51Z</time>
      </trkpt>
      <trkpt lat="59.442814914" lon="17.8956160874">
        <ele>121.8</ele>
        <time>2012-09-27T20:15:52Z</time>
      </trkpt>
      <trkpt lat="59.4427572465" lon="17.8957095456">
        <ele>121.8</ele>
        <time>2012-09-27T20:15:53Z</time>
      </trkpt>
      <trkpt lat="59.4425595175" lon="17.8961190853">
        <ele>120.8</ele>
        <time>2012-09-27T20:15:57Z</time>
      </trkpt>
      <trkpt lat="59.4425109863" lon="17.8962221826">
        <ele>120.4</ele>
        <time>2012-09-27T20:15:58Z</time>
      </trkpt>
      <trkpt lat="59.4424575936" lon="17.8963198318">
        <ele>120</ele>
        <time>2012-09-27T20:15:59Z</time>
      </trkpt>
      <trkpt lat="59.442409733" lon="17.89642251">
        <ele>119.6</ele>
        <time>2012-09-27T20:16:00Z</time>
      </trkpt>
      <trkpt lat="59.4423042887" lon="17.8966282019">
        <ele>120</ele>
        <time>2012-09-27T20:16:02Z</time>
      </trkpt>
      <trkpt lat="59.4422568471" lon="17.8967363284">
        <ele>120.4</ele>
        <time>2012-09-27T20:16:03Z</time>
      </trkpt>
      <trkpt lat="59.4422033706" lon="17.8968411859">
        <ele>120.8</ele>
        <time>2012-09-27T20:16:04Z</time>
      </trkpt>
      <trkpt lat="59.4421523248" lon="17.8969366558">
        <ele>121.2</ele>
        <time>2012-09-27T20:16:05Z</time>
      </trkpt>
      <trkpt lat="59.4421060567" lon="17.8970287729">
        <ele>121.8</ele>
        <time>2012-09-27T20:16:06Z</time>
      </trkpt>
      <trkpt lat="59.4420584475" lon="17.8971215605">
        <ele>122.2</ele>
        <time>2012-09-27T20:16:07Z</time>
      </trkpt>
      <trkpt lat="59.4420139396" lon="17.8972160245">
        <ele>122.8</ele>
        <time>2012-09-27T20:16:08Z</time>
      </trkpt>
      <trkpt lat="59.4419692641" lon="17.8973099018">
        <ele>123.2</ele>
        <time>2012-09-27T20:16:09Z</time>
      </trkpt>
      <trkpt lat="59.4419247562" lon="17.897406126">
        <ele>123.6</ele>
        <time>2012-09-27T20:16:10Z</time>
      </trkpt>
      <trkpt lat="59.4416894763" lon="17.8979983911">
        <ele>123.6</ele>
        <time>2012-09-27T20:16:16Z</time>
      </trkpt>
      <trkpt lat="59.4415952637" lon="17.8982873152">
        <ele>123.6</ele>
        <time>2012-09-27T20:16:19Z</time>
      </trkpt>
      <trkpt lat="59.4415525999" lon="17.8984671069">
        <ele>123.6</ele>
        <time>2012-09-27T20:16:21Z</time>
      </trkpt>
      <trkpt lat="59.4414981175" lon="17.8986063303">
        <ele>123.6</ele>
        <time>2012-09-27T20:16:23Z</time>
      </trkpt>
      <trkpt lat="59.4414442219" lon="17.8986764868">
        <ele>123.6</ele>
        <time>2012-09-27T20:16:25Z</time>
      </trkpt>
      <trkpt lat="59.4414093532" lon="17.8986691945">
        <ele>123.6</ele>
        <time>2012-09-27T20:16:26Z</time>
      </trkpt>
      <trkpt lat="59.4413622469" lon="17.8986445517">
        <ele>123.2</ele>
        <time>2012-09-27T20:16:27Z</time>
      </trkpt>
      <trkpt lat="59.4413058367" lon="17.8985914105">
        <ele>122.8</ele>
        <time>2012-09-27T20:16:28Z</time>
      </trkpt>
      <trkpt lat="59.4412358479" lon="17.898488816">
        <ele>122.2</ele>
        <time>2012-09-27T20:16:29Z</time>
      </trkpt>
      <trkpt lat="59.4411668648" lon="17.898413798">
        <ele>121.8</ele>
        <time>2012-09-27T20:16:30Z</time>
      </trkpt>
      <trkpt lat="59.4410894999" lon="17.8983481677">
        <ele>121.4</ele>
        <time>2012-09-27T20:16:31Z</time>
      </trkpt>
      <trkpt lat="59.4409236221" lon="17.898214225">
        <ele>121</ele>
        <time>2012-09-27T20:16:33Z</time>
      </trkpt>
      <trkpt lat="59.4408439102" lon="17.8981408834">
        <ele>120.4</ele>
        <time>2012-09-27T20:16:34Z</time>
      </trkpt>
      <trkpt lat="59.4407503682" lon="17.8980339303">
        <ele>120</ele>
        <time>2012-09-27T20:16:35Z</time>
      </trkpt>
      <trkpt lat="59.4406595084" lon="17.8979203556">
        <ele>119.6</ele>
        <time>2012-09-27T20:16:36Z</time>
      </trkpt>
      <trkpt lat="59.4405764438" lon="17.8978481874">
        <ele>119.2</ele>
        <time>2012-09-27T20:16:37Z</time>
      </trkpt>
      <trkpt lat="59.440416098" lon="17.8977236324">
        <ele>118.8</ele>
        <time>2012-09-27T20:16:39Z</time>
      </trkpt>
      <trkpt lat="59.4403369729" lon="17.8976662164">
        <ele>118.4</ele>
        <time>2012-09-27T20:16:40Z</time>
      </trkpt>
      <trkpt lat="59.4402666488" lon="17.8976057829">
        <ele>117.8</ele>
        <time>2012-09-27T20:16:41Z</time>
      </trkpt>
      <trkpt lat="59.4402005994" lon="17.8975634543">
        <ele>117.4</ele>
        <time>2012-09-27T20:16:42Z</time>
      </trkpt>
      <trkpt lat="59.4401344662" lon="17.8975145878">
        <ele>117</ele>
        <time>2012-09-27T20:16:43Z</time>
      </trkpt>
      <trkpt lat="59.4398485596" lon="17.8972593589">
        <ele>117</ele>
        <time>2012-09-27T20:16:48Z</time>
      </trkpt>
      <trkpt lat="59.4396625652" lon="17.8969975922">
        <ele>117</ele>
        <time>2012-09-27T20:16:52Z</time>
      </trkpt>
      <trkpt lat="59.4396214939" lon="17.8969243344">
        <ele>117</ele>
        <time>2012-09-27T20:16:53Z</time>
      </trkpt>
      <trkpt lat="59.4393598948" lon="17.8963308121">
        <ele>117</ele>
        <time>2012-09-27T20:17:00Z</time>
      </trkpt>
      <trkpt lat="59.4391599027" lon="17.8958759263">
        <ele>117</ele>
        <time>2012-09-27T20:17:05Z</time>
      </trkpt>
      <trkpt lat="59.4389265506" lon="17.8954008403">
        <ele>117</ele>
        <time>2012-09-27T20:17:11Z</time>
      </trkpt>
      <trkpt lat="59.4387921049" lon="17.8950967449">
        <ele>117</ele>
        <time>2012-09-27T20:17:16Z</time>
      </trkpt>
      <trkpt lat="59.4386652868" lon="17.8948181306">
        <ele>117</ele>
        <time>2012-09-27T20:17:21Z</time>
      </trkpt>
      <trkpt lat="59.4384823099" lon="17.8944696112">
        <ele>117</ele>
        <time>2012-09-27T20:17:26Z</time>
      </trkpt>
      <trkpt lat="59.4384355389" lon="17.8943766559">
        <ele>117</ele>
        <time>2012-09-27T20:17:27Z</time>
      </trkpt>
      <trkpt lat="59.4380668191" lon="17.8936107179">
        <ele>117</ele>
        <time>2012-09-27T20:17:35Z</time>
      </trkpt>
      <trkpt lat="59.437837658" lon="17.8931223884">
        <ele>116.6</ele>
        <time>2012-09-27T20:17:41Z</time>
      </trkpt>
      <trkpt lat="59.4378218162" lon="17.8930839993">
        <ele>116</ele>
        <time>2012-09-27T20:17:42Z</time>
      </trkpt>
      <trkpt lat="59.4378007776" lon="17.8930444367">
        <ele>115.6</ele>
        <time>2012-09-27T20:17:43Z</time>
      </trkpt>
      <trkpt lat="59.4377747099" lon="17.8929994259">
        <ele>115</ele>
        <time>2012-09-27T20:17:44Z</time>
      </trkpt>
      <trkpt lat="59.4377442836" lon="17.8929443568">
        <ele>114.6</ele>
        <time>2012-09-27T20:17:45Z</time>
      </trkpt>
      <trkpt lat="59.4375456326" lon="17.8926077397">
        <ele>114.6</ele>
        <time>2012-09-27T20:17:50Z</time>
      </trkpt>
      <trkpt lat="59.4371968617" lon="17.8920588929">
        <ele>114.6</ele>
        <time>2012-09-27T20:17:58Z</time>
      </trkpt>
      <trkpt lat="59.4369506015" lon="17.891656897">
        <ele>114.6</ele>
        <time>2012-09-27T20:18:04Z</time>
      </trkpt>
      <trkpt lat="59.4366908464" lon="17.8914728305">
        <ele>114.6</ele>
        <time>2012-09-27T20:18:09Z</time>
      </trkpt>
      <trkpt lat="59.4365947898" lon="17.8914046018">
        <ele>114.6</ele>
        <time>2012-09-27T20:18:11Z</time>
      </trkpt>
      <trkpt lat="59.4364408143" lon="17.8912926196">
        <ele>114.6</ele>
        <time>2012-09-27T20:18:14Z</time>
      </trkpt>
      <trkpt lat="59.4363398124" lon="17.8912079624">
        <ele>114.6</ele>
        <time>2012-09-27T20:18:16Z</time>
      </trkpt>
      <trkpt lat="59.4361487051" lon="17.8910170227">
        <ele>114.6</ele>
        <time>2012-09-27T20:18:20Z</time>
      </trkpt>
      <trkpt lat="59.4359092342" lon="17.8908464511">
        <ele>115</ele>
        <time>2012-09-27T20:18:25Z</time>
      </trkpt>
      <trkpt lat="59.4358583561" lon="17.8908282623">
        <ele>115.6</ele>
        <time>2012-09-27T20:18:26Z</time>
      </trkpt>
      <trkpt lat="59.4358078971" lon="17.8908324533">
        <ele>116</ele>
        <time>2012-09-27T20:18:27Z</time>
      </trkpt>
      <trkpt lat="59.435756516" lon="17.8908147675">
        <ele>116.4</ele>
        <time>2012-09-27T20:18:28Z</time>
      </trkpt>
      <trkpt lat="59.4357029557" lon="17.8907960758">
        <ele>116.8</ele>
        <time>2012-09-27T20:18:29Z</time>
      </trkpt>
      <trkpt lat="59.4356467969" lon="17.8907596984">
        <ele>116.8</ele>
        <time>2012-09-27T20:18:30Z</time>
      </trkpt>
      <trkpt lat="59.4355913088" lon="17.8907292721">
        <ele>116.8</ele>
        <time>2012-09-27T20:18:31Z</time>
      </trkpt>
      <trkpt lat="59.4354893849" lon="17.8906980076">
        <ele>116.8</ele>
        <time>2012-09-27T20:18:33Z</time>
      </trkpt>
      <trkpt lat="59.4353468087" lon="17.8906546732">
        <ele>116.8</ele>
        <time>2012-09-27T20:18:36Z</time>
      </trkpt>
      <trkpt lat="59.4350608183" lon="17.8905287771">
        <ele>116.8</ele>
        <time>2012-09-27T20:18:41Z</time>
      </trkpt>
      <trkpt lat="59.4348982933" lon="17.8904641526">
        <ele>116.8</ele>
        <time>2012-09-27T20:18:44Z</time>
      </trkpt>
      <trkpt lat="59.434800728" lon="17.8904652423">
        <ele>116.8</ele>
        <time>2012-09-27T20:18:46Z</time>
      </trkpt>
      <trkpt lat="59.4347096167" lon="17.8904461315">
        <ele>116.8</ele>
        <time>2012-09-27T20:18:48Z</time>
      </trkpt>
      <trkpt lat="59.4346676234" lon="17.8904141127">
        <ele>116.8</ele>
        <time>2012-09-27T20:18:49Z</time>
      </trkpt>
      <trkpt lat="59.4346294019" lon="17.8903828482">
        <ele>116.8</ele>
        <time>2012-09-27T20:18:50Z</time>
      </trkpt>
      <trkpt lat="59.4343884223" lon="17.8901488255">
        <ele>116.8</ele>
        <time>2012-09-27T20:18:56Z</time>
      </trkpt>
      <trkpt lat="59.4343082913" lon="17.8900954328">
        <ele>117.2</ele>
        <time>2012-09-27T20:18:58Z</time>
      </trkpt>
      <trkpt lat="59.4342600954" lon="17.8900831114">
        <ele>117.6</ele>
        <time>2012-09-27T20:18:59Z</time>
      </trkpt>
      <trkpt lat="59.4342150008" lon="17.8900690298">
        <ele>118</ele>
        <time>2012-09-27T20:19:00Z</time>
      </trkpt>
      <trkpt lat="59.4341734266" lon="17.8900487456">
        <ele>118.4</ele>
        <time>2012-09-27T20:19:01Z</time>
      </trkpt>
      <trkpt lat="59.4341316009" lon="17.8900324848">
        <ele>118.8</ele>
        <time>2012-09-27T20:19:02Z</time>
      </trkpt>
      <trkpt lat="59.4340923736" lon="17.8900058303">
        <ele>118.8</ele>
        <time>2012-09-27T20:19:03Z</time>
      </trkpt>
      <trkpt lat="59.4339135038" lon="17.8897959475">
        <ele>118.8</ele>
        <time>2012-09-27T20:19:08Z</time>
      </trkpt>
      <trkpt lat="59.4338576804" lon="17.8897329157">
        <ele>119.4</ele>
        <time>2012-09-27T20:19:10Z</time>
      </trkpt>
      <trkpt lat="59.4338336243" lon="17.8897050039">
        <ele>119.8</ele>
        <time>2012-09-27T20:19:11Z</time>
      </trkpt>
      <trkpt lat="59.4338061317" lon="17.8896838815">
        <ele>120.2</ele>
        <time>2012-09-27T20:19:12Z</time>
      </trkpt>
      <trkpt lat="59.4337772142" lon="17.8896634297">
        <ele>120.6</ele>
        <time>2012-09-27T20:19:13Z</time>
      </trkpt>
      <trkpt lat="59.4337445247" lon="17.8896579815">
        <ele>121</ele>
        <time>2012-09-27T20:19:14Z</time>
      </trkpt>
      <trkpt lat="59.4335664932" lon="17.8895582369">
        <ele>121.6</ele>
        <time>2012-09-27T20:19:18Z</time>
      </trkpt>
      <trkpt lat="59.4335385815" lon="17.8895254636">
        <ele>122</ele>
        <time>2012-09-27T20:19:19Z</time>
      </trkpt>
      <trkpt lat="59.4335070655" lon="17.8894972166">
        <ele>122.4</ele>
        <time>2012-09-27T20:19:20Z</time>
      </trkpt>
      <trkpt lat="59.433473957" lon="17.8894718195">
        <ele>122.8</ele>
        <time>2012-09-27T20:19:21Z</time>
      </trkpt>
      <trkpt lat="59.4334459615" lon="17.8894486016">
        <ele>123.2</ele>
        <time>2012-09-27T20:19:22Z</time>
      </trkpt>
      <trkpt lat="59.433384103" lon="17.8893903474">
        <ele>123.2</ele>
        <time>2012-09-27T20:19:24Z</time>
      </trkpt>
      <trkpt lat="59.4331627371" lon="17.8891656287">
        <ele>123.6</ele>
        <time>2012-09-27T20:19:30Z</time>
      </trkpt>
      <trkpt lat="59.4331242641" lon="17.8891229648">
        <ele>124</ele>
        <time>2012-09-27T20:19:31Z</time>
      </trkpt>
      <trkpt lat="59.433085875" lon="17.8890808038">
        <ele>124.4</ele>
        <time>2012-09-27T20:19:32Z</time>
      </trkpt>
      <trkpt lat="59.4330472345" lon="17.8890305963">
        <ele>125</ele>
        <time>2012-09-27T20:19:33Z</time>
      </trkpt>
      <trkpt lat="59.4330110247" lon="17.8889826518">
        <ele>125.4</ele>
        <time>2012-09-27T20:19:34Z</time>
      </trkpt>
      <trkpt lat="59.432979844" lon="17.8889286723">
        <ele>125.4</ele>
        <time>2012-09-27T20:19:35Z</time>
      </trkpt>
      <trkpt lat="59.4328935943" lon="17.8887461146">
        <ele>125.4</ele>
        <time>2012-09-27T20:19:38Z</time>
      </trkpt>
      <trkpt lat="59.4327701289" lon="17.888438415">
        <ele>125.8</ele>
        <time>2012-09-27T20:19:43Z</time>
      </trkpt>
      <trkpt lat="59.4327465757" lon="17.8883700187">
        <ele>126.2</ele>
        <time>2012-09-27T20:19:44Z</time>
      </trkpt>
      <trkpt lat="59.4327042471" lon="17.8883044723">
        <ele>126.6</ele>
        <time>2012-09-27T20:19:45Z</time>
      </trkpt>
      <trkpt lat="59.4326752458" lon="17.8882297895">
        <ele>127</ele>
        <time>2012-09-27T20:19:46Z</time>
      </trkpt>
      <trkpt lat="59.432649178" lon="17.8881524246">
        <ele>127.4</ele>
        <time>2012-09-27T20:19:47Z</time>
      </trkpt>
      <trkpt lat="59.4325692147" lon="17.8879262809">
        <ele>127.4</ele>
        <time>2012-09-27T20:19:50Z</time>
      </trkpt>
      <trkpt lat="59.4324931071" lon="17.8877311503">
        <ele>128</ele>
        <time>2012-09-27T20:19:53Z</time>
      </trkpt>
      <trkpt lat="59.4324721523" lon="17.8876594012">
        <ele>128.4</ele>
        <time>2012-09-27T20:19:54Z</time>
      </trkpt>
      <trkpt lat="59.4324543827" lon="17.8875874007">
        <ele>128.8</ele>
        <time>2012-09-27T20:19:55Z</time>
      </trkpt>
      <trkpt lat="59.4324375351" lon="17.8875105387">
        <ele>129.2</ele>
        <time>2012-09-27T20:19:56Z</time>
      </trkpt>
      <trkpt lat="59.4324206875" lon="17.8874236184">
        <ele>129.6</ele>
        <time>2012-09-27T20:19:57Z</time>
      </trkpt>
      <trkpt lat="59.4323282351" lon="17.8867960655">
        <ele>129.6</ele>
        <time>2012-09-27T20:20:03Z</time>
      </trkpt>
      <trkpt lat="59.4322441646" lon="17.886256355">
        <ele>129.6</ele>
        <time>2012-09-27T20:20:09Z</time>
      </trkpt>
      <trkpt lat="59.4322240481" lon="17.8860313848">
        <ele>129.2</ele>
        <time>2012-09-27T20:20:12Z</time>
      </trkpt>
      <trkpt lat="59.4322015008" lon="17.885964162">
        <ele>128.8</ele>
        <time>2012-09-27T20:20:13Z</time>
      </trkpt>
      <trkpt lat="59.4321839826" lon="17.8859012977">
        <ele>128.2</ele>
        <time>2012-09-27T20:20:14Z</time>
      </trkpt>
      <trkpt lat="59.4321661292" lon="17.8858518445">
        <ele>127.8</ele>
        <time>2012-09-27T20:20:15Z</time>
      </trkpt>
      <trkpt lat="59.432150455" lon="17.8857971945">
        <ele>127.2</ele>
        <time>2012-09-27T20:20:16Z</time>
      </trkpt>
      <trkpt lat="59.4321092999" lon="17.8857265351">
        <ele>126.8</ele>
        <time>2012-09-27T20:20:18Z</time>
      </trkpt>
      <trkpt lat="59.4320724195" lon="17.8857218412">
        <ele>126.4</ele>
        <time>2012-09-27T20:20:19Z</time>
      </trkpt>
      <trkpt lat="59.4320224634" lon="17.885731229">
        <ele>126</ele>
        <time>2012-09-27T20:20:20Z</time>
      </trkpt>
      <trkpt lat="59.4319725911" lon="17.8857496691">
        <ele>125.6</ele>
        <time>2012-09-27T20:20:21Z</time>
      </trkpt>
      <trkpt lat="59.4319167676" lon="17.8857676902">
        <ele>125.2</ele>
        <time>2012-09-27T20:20:22Z</time>
      </trkpt>
      <trkpt lat="59.4318612794" lon="17.8858173111">
        <ele>125.2</ele>
        <time>2012-09-27T20:20:23Z</time>
      </trkpt>
      <trkpt lat="59.4317545779" lon="17.8859278683">
        <ele>125.2</ele>
        <time>2012-09-27T20:20:24Z</time>
      </trkpt>
      <trkpt lat="59.431335902" lon="17.8863777249">
        <ele>124.6</ele>
        <time>2012-09-27T20:20:29Z</time>
      </trkpt>
      <trkpt lat="59.4312600458" lon="17.8864708478">
        <ele>124</ele>
        <time>2012-09-27T20:20:30Z</time>
      </trkpt>
      <trkpt lat="59.4311939126" lon="17.8865562594">
        <ele>123.4</ele>
        <time>2012-09-27T20:20:31Z</time>
      </trkpt>
      <trkpt lat="59.4311289528" lon="17.8866463648">
        <ele>122.8</ele>
        <time>2012-09-27T20:20:32Z</time>
      </trkpt>
      <trkpt lat="59.4310671782" lon="17.8867395715">
        <ele>122.2</ele>
        <time>2012-09-27T20:20:33Z</time>
      </trkpt>
      <trkpt lat="59.4309447187" lon="17.8869076286">
        <ele>121.8</ele>
        <time>2012-09-27T20:20:35Z</time>
      </trkpt>
      <trkpt lat="59.4308830279" lon="17.8869598479">
        <ele>121.4</ele>
        <time>2012-09-27T20:20:36Z</time>
      </trkpt>
      <trkpt lat="59.4308383524" lon="17.8869845745">
        <ele>121</ele>
        <time>2012-09-27T20:20:37Z</time>
      </trkpt>
      <trkpt lat="59.4307663519" lon="17.8870076247">
        <ele>120.4</ele>
        <time>2012-09-27T20:20:38Z</time>
      </trkpt>
      <trkpt lat="59.4306997996" lon="17.887065376">
        <ele>120</ele>
        <time>2012-09-27T20:20:39Z</time>
      </trkpt>
      <trkpt lat="59.4306281343" lon="17.8871106382">
        <ele>120</ele>
        <time>2012-09-27T20:20:40Z</time>
      </trkpt>
      <trkpt lat="59.4304938563" lon="17.8872410606">
        <ele>120</ele>
        <time>2012-09-27T20:20:42Z</time>
      </trkpt>
      <trkpt lat="59.430422191" lon="17.887509952">
        <ele>119.6</ele>
        <time>2012-09-27T20:20:44Z</time>
      </trkpt>
      <trkpt lat="59.4303753362" lon="17.88764884">
        <ele>119.2</ele>
        <time>2012-09-27T20:20:45Z</time>
      </trkpt>
      <trkpt lat="59.430323117" lon="17.887784543">
        <ele>118.8</ele>
        <time>2012-09-27T20:20:46Z</time>
      </trkpt>
      <trkpt lat="59.4302698919" lon="17.8879225091">
        <ele>118.2</ele>
        <time>2012-09-27T20:20:47Z</time>
      </trkpt>
      <trkpt lat="59.4302214445" lon="17.8880567033">
        <ele>117.8</ele>
        <time>2012-09-27T20:20:48Z</time>
      </trkpt>
      <trkpt lat="59.4301742544" lon="17.8882022969">
        <ele>117.8</ele>
        <time>2012-09-27T20:20:49Z</time>
      </trkpt>
      <trkpt lat="59.4299226298" lon="17.8889632058">
        <ele>117.8</ele>
        <time>2012-09-27T20:20:55Z</time>
      </trkpt>
      <trkpt lat="59.4297134176" lon="17.8896582329">
        <ele>117.8</ele>
        <time>2012-09-27T20:21:01Z</time>
      </trkpt>
      <trkpt lat="59.4296888586" lon="17.8897843805">
        <ele>118.2</ele>
        <time>2012-09-27T20:21:02Z</time>
      </trkpt>
      <trkpt lat="59.4296648864" lon="17.8898990449">
        <ele>118.6</ele>
        <time>2012-09-27T20:21:03Z</time>
      </trkpt>
      <trkpt lat="59.4296393216" lon="17.890017565">
        <ele>119.2</ele>
        <time>2012-09-27T20:21:04Z</time>
      </trkpt>
      <trkpt lat="59.4296065483" lon="17.8901270326">
        <ele>119.6</ele>
        <time>2012-09-27T20:21:05Z</time>
      </trkpt>
      <trkpt lat="59.429568746" lon="17.8902273639">
        <ele>120</ele>
        <time>2012-09-27T20:21:06Z</time>
      </trkpt>
      <trkpt lat="59.4295314465" lon="17.8903226661">
        <ele>120</ele>
        <time>2012-09-27T20:21:07Z</time>
      </trkpt>
      <trkpt lat="59.4293526606" lon="17.8907841735">
        <ele>120.4</ele>
        <time>2012-09-27T20:21:12Z</time>
      </trkpt>
      <trkpt lat="59.4293107511" lon="17.8908717644">
        <ele>121</ele>
        <time>2012-09-27T20:21:13Z</time>
      </trkpt>
      <trkpt lat="59.4292694283" lon="17.8909653064">
        <ele>121.4</ele>
        <time>2012-09-27T20:21:14Z</time>
      </trkpt>
      <trkpt lat="59.4292232441" lon="17.891065051">
        <ele>122</ele>
        <time>2012-09-27T20:21:15Z</time>
      </trkpt>
      <trkpt lat="59.4291789876" lon="17.8911589283">
        <ele>122.4</ele>
        <time>2012-09-27T20:21:16Z</time>
      </trkpt>
      <trkpt lat="59.4289882156" lon="17.8915653666">
        <ele>122.4</ele>
        <time>2012-09-27T20:21:20Z</time>
      </trkpt>
      <trkpt lat="59.4286816895" lon="17.8921953502">
        <ele>122</ele>
        <time>2012-09-27T20:21:26Z</time>
      </trkpt>
      <trkpt lat="59.4286316496" lon="17.8922958492">
        <ele>121.6</ele>
        <time>2012-09-27T20:21:27Z</time>
      </trkpt>
      <trkpt lat="59.4285827831" lon="17.892400623">
        <ele>121</ele>
        <time>2012-09-27T20:21:28Z</time>
      </trkpt>
      <trkpt lat="59.4285364312" lon="17.8925051453">
        <ele>120.6</ele>
        <time>2012-09-27T20:21:29Z</time>
      </trkpt>
      <trkpt lat="59.4284878162" lon="17.8926157863">
        <ele>120.2</ele>
        <time>2012-09-27T20:21:30Z</time>
      </trkpt>
      <trkpt lat="59.4280978063" lon="17.893460598">
        <ele>120.2</ele>
        <time>2012-09-27T20:21:38Z</time>
      </trkpt>
      <trkpt lat="59.4277584232" lon="17.8940171562">
        <ele>119.8</ele>
        <time>2012-09-27T20:21:44Z</time>
      </trkpt>
      <trkpt lat="59.4276909489" lon="17.8940912522">
        <ele>119.4</ele>
        <time>2012-09-27T20:21:45Z</time>
      </trkpt>
      <trkpt lat="59.4276298449" lon="17.8941633365">
        <ele>119</ele>
        <time>2012-09-27T20:21:46Z</time>
      </trkpt>
      <trkpt lat="59.4275699981" lon="17.8942309785">
        <ele>118.4</ele>
        <time>2012-09-27T20:21:47Z</time>
      </trkpt>
      <trkpt lat="59.4275102352" lon="17.8942976984">
        <ele>118</ele>
        <time>2012-09-27T20:21:48Z</time>
      </trkpt>
      <trkpt lat="59.4272156952" lon="17.8946255983">
        <ele>118</ele>
        <time>2012-09-27T20:21:53Z</time>
      </trkpt>
      <trkpt lat="59.4267630726" lon="17.8952130019">
        <ele>118</ele>
        <time>2012-09-27T20:22:01Z</time>
      </trkpt>
      <trkpt lat="59.4265293852" lon="17.8957304166">
        <ele>118</ele>
        <time>2012-09-27T20:22:06Z</time>
      </trkpt>
      <trkpt lat="59.4262809457" lon="17.896535079">
        <ele>118</ele>
        <time>2012-09-27T20:22:13Z</time>
      </trkpt>
      <trkpt lat="59.4262252061" lon="17.8967382562">
        <ele>118.6</ele>
        <time>2012-09-27T20:22:15Z</time>
      </trkpt>
      <trkpt lat="59.4261936063" lon="17.8968248412">
        <ele>119</ele>
        <time>2012-09-27T20:22:16Z</time>
      </trkpt>
      <trkpt lat="59.4261615874" lon="17.896908325">
        <ele>119.4</ele>
        <time>2012-09-27T20:22:17Z</time>
      </trkpt>
      <trkpt lat="59.4261281437" lon="17.8969896294">
        <ele>119.8</ele>
        <time>2012-09-27T20:22:18Z</time>
      </trkpt>
      <trkpt lat="59.4260911795" lon="17.8970643121">
        <ele>120.2</ele>
        <time>2012-09-27T20:22:19Z</time>
      </trkpt>
      <trkpt lat="59.425915914" lon="17.8973506378">
        <ele>120.2</ele>
        <time>2012-09-27T20:22:23Z</time>
      </trkpt>
      <trkpt lat="59.4258610963" lon="17.8974194532">
        <ele>120.2</ele>
        <time>2012-09-27T20:22:24Z</time>
      </trkpt>
      <trkpt lat="59.425505117" lon="17.8978591677">
        <ele>120.2</ele>
        <time>2012-09-27T20:22:30Z</time>
      </trkpt>
      <trkpt lat="59.4250070645" lon="17.8985332401">
        <ele>120.2</ele>
        <time>2012-09-27T20:22:38Z</time>
      </trkpt>
      <trkpt lat="59.4248525023" lon="17.8988158778">
        <ele>119.8</ele>
        <time>2012-09-27T20:22:41Z</time>
      </trkpt>
      <trkpt lat="59.4248029653" lon="17.8989117667">
        <ele>119.4</ele>
        <time>2012-09-27T20:22:42Z</time>
      </trkpt>
      <trkpt lat="59.4247542664" lon="17.8990068175">
        <ele>118.8</ele>
        <time>2012-09-27T20:22:43Z</time>
      </trkpt>
      <trkpt lat="59.4247071602" lon="17.8990975934">
        <ele>118.4</ele>
        <time>2012-09-27T20:22:44Z</time>
      </trkpt>
      <trkpt lat="59.4246603892" lon="17.8991922251">
        <ele>117.8</ele>
        <time>2012-09-27T20:22:45Z</time>
      </trkpt>
      <trkpt lat="59.4244398614" lon="17.8996930436">
        <ele>117.8</ele>
        <time>2012-09-27T20:22:50Z</time>
      </trkpt>
      <trkpt lat="59.4241583133" lon="17.9003661102">
        <ele>117.8</ele>
        <time>2012-09-27T20:22:56Z</time>
      </trkpt>
      <trkpt lat="59.4238334309" lon="17.9010806671">
        <ele>117.8</ele>
        <time>2012-09-27T20:23:03Z</time>
      </trkpt>
      <trkpt lat="59.423476362" lon="17.9018689848">
        <ele>117.8</ele>
        <time>2012-09-27T20:23:11Z</time>
      </trkpt>
      <trkpt lat="59.423361949" lon="17.9020546439">
        <ele>117.8</ele>
        <time>2012-09-27T20:23:15Z</time>
      </trkpt>
      <trkpt lat="59.4232825724" lon="17.9019266523">
        <ele>117.8</ele>
        <time>2012-09-27T20:23:18Z</time>
      </trkpt>
      <trkpt lat="59.4232551636" lon="17.9018678114">
        <ele>117.8</ele>
        <time>2012-09-27T20:23:19Z</time>
      </trkpt>
      <trkpt lat="59.4232209655" lon="17.9017627024">
        <ele>117.8</ele>
        <time>2012-09-27T20:23:20Z</time>
      </trkpt>
      <trkpt lat="59.4231267529" lon="17.9014990078">
        <ele>117.8</ele>
        <time>2012-09-27T20:23:22Z</time>
      </trkpt>
      <trkpt lat="59.4230756233" lon="17.9013726087">
        <ele>117.8</ele>
        <time>2012-09-27T20:23:23Z</time>
      </trkpt>
      <trkpt lat="59.4228171255" lon="17.9008659229">
        <ele>117.8</ele>
        <time>2012-09-27T20:23:28Z</time>
      </trkpt>
      <trkpt lat="59.4225535986" lon="17.9006065031">
        <ele>117.8</ele>
        <time>2012-09-27T20:23:33Z</time>
      </trkpt>
      <trkpt lat="59.4223313944" lon="17.9005811897">
        <ele>117.8</ele>
        <time>2012-09-27T20:23:37Z</time>
      </trkpt>
      <trkpt lat="59.4221164825" lon="17.9005719696">
        <ele>118.2</ele>
        <time>2012-09-27T20:23:41Z</time>
      </trkpt>
      <trkpt lat="59.4220629222" lon="17.9005589777">
        <ele>118.8</ele>
        <time>2012-09-27T20:23:42Z</time>
      </trkpt>
      <trkpt lat="59.4220095295" lon="17.9005433874">
        <ele>119.2</ele>
        <time>2012-09-27T20:23:43Z</time>
      </trkpt>
      <trkpt lat="59.4219560529" lon="17.9005246119">
        <ele>119.6</ele>
        <time>2012-09-27T20:23:44Z</time>
      </trkpt>
      <trkpt lat="59.4219051748" lon="17.9005031542">
        <ele>120</ele>
        <time>2012-09-27T20:23:45Z</time>
      </trkpt>
      <trkpt lat="59.421676768" lon="17.9003870649">
        <ele>120</ele>
        <time>2012-09-27T20:23:50Z</time>
      </trkpt>
      <trkpt lat="59.4215496146" lon="17.9003143938">
        <ele>120</ele>
        <time>2012-09-27T20:23:53Z</time>
      </trkpt>
      <trkpt lat="59.4214673044" lon="17.9002483445">
        <ele>120</ele>
        <time>2012-09-27T20:23:55Z</time>
      </trkpt>
      <trkpt lat="59.4214249758" lon="17.9002278088">
        <ele>120</ele>
        <time>2012-09-27T20:23:56Z</time>
      </trkpt>
      <trkpt lat="59.4212365506" lon="17.90027634">
        <ele>120.4</ele>
        <time>2012-09-27T20:24:00Z</time>
      </trkpt>
      <trkpt lat="59.4211874327" lon="17.9003029945">
        <ele>120.8</ele>
        <time>2012-09-27T20:24:01Z</time>
      </trkpt>
      <trkpt lat="59.4211359678" lon="17.9003325826">
        <ele>121.2</ele>
        <time>2012-09-27T20:24:02Z</time>
      </trkpt>
      <trkpt lat="59.4210814017" lon="17.900369882">
        <ele>121.8</ele>
        <time>2012-09-27T20:24:03Z</time>
      </trkpt>
      <trkpt lat="59.421030775" lon="17.9004127974">
        <ele>122.2</ele>
        <time>2012-09-27T20:24:04Z</time>
      </trkpt>
      <trkpt lat="59.4209824114" lon="17.9004633402">
        <ele>122.2</ele>
        <time>2012-09-27T20:24:05Z</time>
      </trkpt>
      <trkpt lat="59.4209360595" lon="17.9005244443">
        <ele>122.2</ele>
        <time>2012-09-27T20:24:06Z</time>
      </trkpt>
      <trkpt lat="59.420823323" lon="17.9007688605">
        <ele>122.2</ele>
        <time>2012-09-27T20:24:09Z</time>
      </trkpt>
      <trkpt lat="59.4207895439" lon="17.9008781604">
        <ele>122.2</ele>
        <time>2012-09-27T20:24:10Z</time>
      </trkpt>
      <trkpt lat="59.4207058087" lon="17.9012172083">
        <ele>122.2</ele>
        <time>2012-09-27T20:24:13Z</time>
      </trkpt>
      <trkpt lat="59.4206247558" lon="17.9014067231">
        <ele>122.2</ele>
        <time>2012-09-27T20:24:15Z</time>
      </trkpt>
      <trkpt lat="59.4205307108" lon="17.9015710921">
        <ele>122.2</ele>
        <time>2012-09-27T20:24:17Z</time>
      </trkpt>
      <trkpt lat="59.420365336" lon="17.901734623">
        <ele>122.2</ele>
        <time>2012-09-27T20:24:20Z</time>
      </trkpt>
      <trkpt lat="59.4202386016" lon="17.9017940507">
        <ele>122.2</ele>
        <time>2012-09-27T20:24:22Z</time>
      </trkpt>
      <trkpt lat="59.4200312334" lon="17.9018593457">
        <ele>122.2</ele>
        <time>2012-09-27T20:24:25Z</time>
      </trkpt>
      <trkpt lat="59.4196344343" lon="17.9020009998">
        <ele>122.2</ele>
        <time>2012-09-27T20:24:31Z</time>
      </trkpt>
      <trkpt lat="59.419511388" lon="17.9020730003">
        <ele>122.2</ele>
        <time>2012-09-27T20:24:33Z</time>
      </trkpt>
      <trkpt lat="59.4194009984" lon="17.9022215276">
        <ele>122.2</ele>
        <time>2012-09-27T20:24:35Z</time>
      </trkpt>
      <trkpt lat="59.4191925405" lon="17.9026818615">
        <ele>122.2</ele>
        <time>2012-09-27T20:24:40Z</time>
      </trkpt>
      <trkpt lat="59.4191595158" lon="17.9027887307">
        <ele>122.2</ele>
        <time>2012-09-27T20:24:41Z</time>
      </trkpt>
      <trkpt lat="59.4191306821" lon="17.9028992042">
        <ele>122.2</ele>
        <time>2012-09-27T20:24:42Z</time>
      </trkpt>
      <trkpt lat="59.4191056202" lon="17.903022921">
        <ele>121.6</ele>
        <time>2012-09-27T20:24:43Z</time>
      </trkpt>
      <trkpt lat="59.4190828214" lon="17.9031490686">
        <ele>121.2</ele>
        <time>2012-09-27T20:24:44Z</time>
      </trkpt>
      <trkpt lat="59.4190560832" lon="17.9032736236">
        <ele>120.8</ele>
        <time>2012-09-27T20:24:45Z</time>
      </trkpt>
      <trkpt lat="59.4190264113" lon="17.9033933172">
        <ele>120.4</ele>
        <time>2012-09-27T20:24:46Z</time>
      </trkpt>
      <trkpt lat="59.4189974099" lon="17.9035129269">
        <ele>120</ele>
        <time>2012-09-27T20:24:47Z</time>
      </trkpt>
      <trkpt lat="59.4189127527" lon="17.9039978198">
        <ele>120</ele>
        <time>2012-09-27T20:24:51Z</time>
      </trkpt>
      <trkpt lat="59.4188228987" lon="17.9045760871">
        <ele>120.4</ele>
        <time>2012-09-27T20:24:56Z</time>
      </trkpt>
      <trkpt lat="59.4188018602" lon="17.9046901647">
        <ele>121</ele>
        <time>2012-09-27T20:24:57Z</time>
      </trkpt>
      <trkpt lat="59.4187812407" lon="17.9048020631">
        <ele>121.4</ele>
        <time>2012-09-27T20:24:58Z</time>
      </trkpt>
      <trkpt lat="59.4187617947" lon="17.9049148835">
        <ele>122.4</ele>
        <time>2012-09-27T20:24:59Z</time>
      </trkpt>
      <trkpt lat="59.4186229904" lon="17.9056216453">
        <ele>122.4</ele>
        <time>2012-09-27T20:25:05Z</time>
      </trkpt>
      <trkpt lat="59.4185851042" lon="17.9057286822">
        <ele>122.4</ele>
        <time>2012-09-27T20:25:06Z</time>
      </trkpt>
      <trkpt lat="59.4184975134" lon="17.9059266626">
        <ele>122.4</ele>
        <time>2012-09-27T20:25:08Z</time>
      </trkpt>
      <trkpt lat="59.4183484832" lon="17.9062070372">
        <ele>122.4</ele>
        <time>2012-09-27T20:25:11Z</time>
      </trkpt>
      <trkpt lat="59.4181308891" lon="17.9065356077">
        <ele>122.4</ele>
        <time>2012-09-27T20:25:15Z</time>
      </trkpt>
      <trkpt lat="59.4180009696" lon="17.9066325863">
        <ele>122</ele>
        <time>2012-09-27T20:25:17Z</time>
      </trkpt>
      <trkpt lat="59.417935507" lon="17.9066853922">
        <ele>121.6</ele>
        <time>2012-09-27T20:25:18Z</time>
      </trkpt>
      <trkpt lat="59.4178705472" lon="17.9067397069">
        <ele>121</ele>
        <time>2012-09-27T20:25:19Z</time>
      </trkpt>
      <trkpt lat="59.4178133827" lon="17.9068013139">
        <ele>120.6</ele>
        <time>2012-09-27T20:25:20Z</time>
      </trkpt>
      <trkpt lat="59.4177659411" lon="17.9068770863">
        <ele>120.2</ele>
        <time>2012-09-27T20:25:21Z</time>
      </trkpt>
      <trkpt lat="59.4177254566" lon="17.9069690357">
        <ele>120.2</ele>
        <time>2012-09-27T20:25:22Z</time>
      </trkpt>
      <trkpt lat="59.4175744985" lon="17.9073722889">
        <ele>120.2</ele>
        <time>2012-09-27T20:25:26Z</time>
      </trkpt>
      <trkpt lat="59.4174695571" lon="17.9075138592">
        <ele>120.2</ele>
        <time>2012-09-27T20:25:28Z</time>
      </trkpt>
      <trkpt lat="59.4173517076" lon="17.9075859436">
        <ele>120.2</ele>
        <time>2012-09-27T20:25:30Z</time>
      </trkpt>
      <trkpt lat="59.4172136577" lon="17.907514865">
        <ele>120.2</ele>
        <time>2012-09-27T20:25:32Z</time>
      </trkpt>
      <trkpt lat="59.4171522184" lon="17.9074686808">
        <ele>120.2</ele>
        <time>2012-09-27T20:25:33Z</time>
      </trkpt>
      <trkpt lat="59.4168593548" lon="17.907203226">
        <ele>120.2</ele>
        <time>2012-09-27T20:25:38Z</time>
      </trkpt>
      <trkpt lat="59.4165125118" lon="17.9067951951">
        <ele>120.2</ele>
        <time>2012-09-27T20:25:44Z</time>
      </trkpt>
      <trkpt lat="59.4162355738" lon="17.9064746713">
        <ele>120.2</ele>
        <time>2012-09-27T20:25:49Z</time>
      </trkpt>
      <trkpt lat="59.4161260224" lon="17.906373837">
        <ele>120.2</ele>
        <time>2012-09-27T20:25:51Z</time>
      </trkpt>
      <trkpt lat="59.4160182312" lon="17.9062568257">
        <ele>120.6</ele>
        <time>2012-09-27T20:25:53Z</time>
      </trkpt>
      <trkpt lat="59.4159644194" lon="17.9061931232">
        <ele>121</ele>
        <time>2012-09-27T20:25:54Z</time>
      </trkpt>
      <trkpt lat="59.415907171" lon="17.906125146">
        <ele>121.4</ele>
        <time>2012-09-27T20:25:55Z</time>
      </trkpt>
      <trkpt lat="59.4158509284" lon="17.9060574203">
        <ele>121.8</ele>
        <time>2012-09-27T20:25:56Z</time>
      </trkpt>
      <trkpt lat="59.4157999665" lon="17.9059875152">
        <ele>122.2</ele>
        <time>2012-09-27T20:25:57Z</time>
      </trkpt>
      <trkpt lat="59.4157524411" lon="17.905905205">
        <ele>122.2</ele>
        <time>2012-09-27T20:25:58Z</time>
      </trkpt>
      <trkpt lat="59.4157067598" lon="17.9058161892">
        <ele>122.2</ele>
        <time>2012-09-27T20:25:59Z</time>
      </trkpt>
      <trkpt lat="59.4155783491" lon="17.9055269298">
        <ele>122.2</ele>
        <time>2012-09-27T20:26:02Z</time>
      </trkpt>
      <trkpt lat="59.4154434005" lon="17.9052652469">
        <ele>122.2</ele>
        <time>2012-09-27T20:26:05Z</time>
      </trkpt>
      <trkpt lat="59.4150931209" lon="17.9046380293">
        <ele>122.2</ele>
        <time>2012-09-27T20:26:12Z</time>
      </trkpt>
      <trkpt lat="59.4147338726" lon="17.9040067884">
        <ele>122.2</ele>
        <time>2012-09-27T20:26:19Z</time>
      </trkpt>
      <trkpt lat="59.4143654043" lon="17.9033500666">
        <ele>122.2</ele>
        <time>2012-09-27T20:26:26Z</time>
      </trkpt>
      <trkpt lat="59.41415066" lon="17.9028916605">
        <ele>122.2</ele>
        <time>2012-09-27T20:26:31Z</time>
      </trkpt>
      <trkpt lat="59.4141097564" lon="17.9028258625">
        <ele>122.2</ele>
        <time>2012-09-27T20:26:32Z</time>
      </trkpt>
      <trkpt lat="59.4139783282" lon="17.9026921712">
        <ele>121.8</ele>
        <time>2012-09-27T20:26:35Z</time>
      </trkpt>
      <trkpt lat="59.4139301322" lon="17.9026347552">
        <ele>121.4</ele>
        <time>2012-09-27T20:26:36Z</time>
      </trkpt>
      <trkpt lat="59.4138795056" lon="17.9025771716">
        <ele>121</ele>
        <time>2012-09-27T20:26:37Z</time>
      </trkpt>
      <trkpt lat="59.4138226763" lon="17.9025208452">
        <ele>120</ele>
        <time>2012-09-27T20:26:38Z</time>
      </trkpt>
      <trkpt lat="59.4135754102" lon="17.9022716513">
        <ele>120</ele>
        <time>2012-09-27T20:26:42Z</time>
      </trkpt>
      <trkpt lat="59.4132208559" lon="17.9018751874">
        <ele>120</ele>
        <time>2012-09-27T20:26:48Z</time>
      </trkpt>
      <trkpt lat="59.4130361188" lon="17.9018082161">
        <ele>119.6</ele>
        <time>2012-09-27T20:26:51Z</time>
      </trkpt>
      <trkpt lat="59.4129721649" lon="17.9017837409">
        <ele>119</ele>
        <time>2012-09-27T20:26:52Z</time>
      </trkpt>
      <trkpt lat="59.4129098874" lon="17.9017512191">
        <ele>118.6</ele>
        <time>2012-09-27T20:26:53Z</time>
      </trkpt>
      <trkpt lat="59.4128486157" lon="17.9017115728">
        <ele>118</ele>
        <time>2012-09-27T20:26:54Z</time>
      </trkpt>
      <trkpt lat="59.4127870087" lon="17.9016675678">
        <ele>117.6</ele>
        <time>2012-09-27T20:26:55Z</time>
      </trkpt>
      <trkpt lat="59.4126710032" lon="17.9015865148">
        <ele>117.6</ele>
        <time>2012-09-27T20:26:57Z</time>
      </trkpt>
      <trkpt lat="59.412612749" lon="17.9015987524">
        <ele>117.2</ele>
        <time>2012-09-27T20:26:58Z</time>
      </trkpt>
      <trkpt lat="59.4125560874" lon="17.901645691">
        <ele>116.8</ele>
        <time>2012-09-27T20:26:59Z</time>
      </trkpt>
      <trkpt lat="59.4125033652" lon="17.9017155961">
        <ele>116.2</ele>
        <time>2012-09-27T20:27:00Z</time>
      </trkpt>
      <trkpt lat="59.4124588573" lon="17.9018050309">
        <ele>115.8</ele>
        <time>2012-09-27T20:27:01Z</time>
      </trkpt>
      <trkpt lat="59.4124239048" lon="17.9019104752">
        <ele>115.4</ele>
        <time>2012-09-27T20:27:02Z</time>
      </trkpt>
      <trkpt lat="59.4123787264" lon="17.9021674643">
        <ele>115.4</ele>
        <time>2012-09-27T20:27:04Z</time>
      </trkpt>
      <trkpt lat="59.4123431033" lon="17.9024925982">
        <ele>115.4</ele>
        <time>2012-09-27T20:27:06Z</time>
      </trkpt>
      <trkpt lat="59.4122310373" lon="17.9035470412">
        <ele>115.4</ele>
        <time>2012-09-27T20:27:13Z</time>
      </trkpt>
      <trkpt lat="59.4122136029" lon="17.9036928863">
        <ele>115.4</ele>
        <time>2012-09-27T20:27:14Z</time>
      </trkpt>
      <trkpt lat="59.412144117" lon="17.9040995761">
        <ele>115.4</ele>
        <time>2012-09-27T20:27:17Z</time>
      </trkpt>
      <trkpt lat="59.4120744634" lon="17.9043465907">
        <ele>115.4</ele>
        <time>2012-09-27T20:27:19Z</time>
      </trkpt>
      <trkpt lat="59.4118107688" lon="17.9051872114">
        <ele>115.4</ele>
        <time>2012-09-27T20:27:26Z</time>
      </trkpt>
      <trkpt lat="59.4116060828" lon="17.9059109047">
        <ele>115.4</ele>
        <time>2012-09-27T20:27:32Z</time>
      </trkpt>
      <trkpt lat="59.4115926718" lon="17.9060498766">
        <ele>115.4</ele>
        <time>2012-09-27T20:27:33Z</time>
      </trkpt>
      <trkpt lat="59.4114489222" lon="17.9071706204">
        <ele>115.4</ele>
        <time>2012-09-27T20:27:41Z</time>
      </trkpt>
      <trkpt lat="59.4111857305" lon="17.9082315175">
        <ele>115.4</ele>
        <time>2012-09-27T20:27:49Z</time>
      </trkpt>
      <trkpt lat="59.4109059427" lon="17.9091481621">
        <ele>115.4</ele>
        <time>2012-09-27T20:27:56Z</time>
      </trkpt>
      <trkpt lat="59.410675189" lon="17.9096839331">
        <ele>115.4</ele>
        <time>2012-09-27T20:28:01Z</time>
      </trkpt>
      <trkpt lat="59.4104865963" lon="17.9099265053">
        <ele>115.4</ele>
        <time>2012-09-27T20:28:05Z</time>
      </trkpt>
      <trkpt lat="59.4103777992" lon="17.9100251603">
        <ele>115.8</ele>
        <time>2012-09-27T20:28:07Z</time>
      </trkpt>
      <trkpt lat="59.4103229816" lon="17.9100766251">
        <ele>116.4</ele>
        <time>2012-09-27T20:28:08Z</time>
      </trkpt>
      <trkpt lat="59.4102693374" lon="17.9101291797">
        <ele>117</ele>
        <time>2012-09-27T20:28:09Z</time>
      </trkpt>
      <trkpt lat="59.4102177887" lon="17.9101839135">
        <ele>117.4</ele>
        <time>2012-09-27T20:28:10Z</time>
      </trkpt>
      <trkpt lat="59.4101689222" lon="17.9102431735">
        <ele>118</ele>
        <time>2012-09-27T20:28:11Z</time>
      </trkpt>
      <trkpt lat="59.4099431977" lon="17.9106526293">
        <ele>118</ele>
        <time>2012-09-27T20:28:16Z</time>
      </trkpt>
      <trkpt lat="59.4096044013" lon="17.9113161405">
        <ele>118</ele>
        <time>2012-09-27T20:28:23Z</time>
      </trkpt>
      <trkpt lat="59.4092834583" lon="17.9120224832">
        <ele>118</ele>
        <time>2012-09-27T20:28:30Z</time>
      </trkpt>
      <trkpt lat="59.4090607512" lon="17.9125377186">
        <ele>118.4</ele>
        <time>2012-09-27T20:28:36Z</time>
      </trkpt>
      <trkpt lat="59.4090247929" lon="17.9126198612">
        <ele>118.8</ele>
        <time>2012-09-27T20:28:37Z</time>
      </trkpt>
      <trkpt lat="59.408990008" lon="17.9126956336">
        <ele>119.2</ele>
        <time>2012-09-27T20:28:38Z</time>
      </trkpt>
      <trkpt lat="59.4089539658" lon="17.9127664607">
        <ele>119.6</ele>
        <time>2012-09-27T20:28:39Z</time>
      </trkpt>
      <trkpt lat="59.408917756" lon="17.9128338511">
        <ele>120</ele>
        <time>2012-09-27T20:28:40Z</time>
      </trkpt>
      <trkpt lat="59.4088853181" lon="17.912902918">
        <ele>120</ele>
        <time>2012-09-27T20:28:41Z</time>
      </trkpt>
      <trkpt lat="59.4088249684" lon="17.9130512776">
        <ele>120</ele>
        <time>2012-09-27T20:28:43Z</time>
      </trkpt>
      <trkpt lat="59.4087978949" lon="17.9131302351">
        <ele>120</ele>
        <time>2012-09-27T20:28:44Z</time>
      </trkpt>
      <trkpt lat="59.4087723301" lon="17.9132277166">
        <ele>120</ele>
        <time>2012-09-27T20:28:45Z</time>
      </trkpt>
      <trkpt lat="59.4086763573" lon="17.9136302155">
        <ele>120</ele>
        <time>2012-09-27T20:28:49Z</time>
      </trkpt>
      <trkpt lat="59.4084563324" lon="17.9144782123">
        <ele>120</ele>
        <time>2012-09-27T20:28:57Z</time>
      </trkpt>
      <trkpt lat="59.408243516" lon="17.9150904263">
        <ele>120</ele>
        <time>2012-09-27T20:29:03Z</time>
      </trkpt>
      <trkpt lat="59.4080975033" lon="17.91571756">
        <ele>120</ele>
        <time>2012-09-27T20:29:09Z</time>
      </trkpt>
      <trkpt lat="59.4080641433" lon="17.9159268561">
        <ele>120</ele>
        <time>2012-09-27T20:29:11Z</time>
      </trkpt>
      <trkpt lat="59.4080225691" lon="17.9162363158">
        <ele>120</ele>
        <time>2012-09-27T20:29:14Z</time>
      </trkpt>
      <trkpt lat="59.407930452" lon="17.9168176006">
        <ele>120</ele>
        <time>2012-09-27T20:29:20Z</time>
      </trkpt>
      <trkpt lat="59.4079089944" lon="17.9169056105">
        <ele>120.4</ele>
        <time>2012-09-27T20:29:21Z</time>
      </trkpt>
      <trkpt lat="59.4078841839" lon="17.9169971409">
        <ele>120.8</ele>
        <time>2012-09-27T20:29:22Z</time>
      </trkpt>
      <trkpt lat="59.4078555178" lon="17.9170809599">
        <ele>121.4</ele>
        <time>2012-09-27T20:29:23Z</time>
      </trkpt>
      <trkpt lat="59.407825343" lon="17.9171638569">
        <ele>121.8</ele>
        <time>2012-09-27T20:29:24Z</time>
      </trkpt>
      <trkpt lat="59.4077947491" lon="17.9172425629">
        <ele>122.2</ele>
        <time>2012-09-27T20:29:25Z</time>
      </trkpt>
      <trkpt lat="59.4077667535" lon="17.9173164074">
        <ele>122.2</ele>
        <time>2012-09-27T20:29:26Z</time>
      </trkpt>
      <trkpt lat="59.4077401829" lon="17.9173898329">
        <ele>122.8</ele>
        <time>2012-09-27T20:29:27Z</time>
      </trkpt>
      <trkpt lat="59.4077141152" lon="17.9174572234">
        <ele>123.4</ele>
        <time>2012-09-27T20:29:28Z</time>
      </trkpt>
      <trkpt lat="59.4076874608" lon="17.9175177407">
        <ele>124</ele>
        <time>2012-09-27T20:29:29Z</time>
      </trkpt>
      <trkpt lat="59.4076611416" lon="17.9175832871">
        <ele>124.6</ele>
        <time>2012-09-27T20:29:30Z</time>
      </trkpt>
      <trkpt lat="59.4076297933" lon="17.9176539466">
        <ele>125.2</ele>
        <time>2012-09-27T20:29:31Z</time>
      </trkpt>
      <trkpt lat="59.407597523" lon="17.9177153021">
        <ele>125.2</ele>
        <time>2012-09-27T20:29:32Z</time>
      </trkpt>
      <trkpt lat="59.4075614808" lon="17.9177647553">
        <ele>125.2</ele>
        <time>2012-09-27T20:29:33Z</time>
      </trkpt>
      <trkpt lat="59.4074701181" lon="17.9178510888">
        <ele>125.2</ele>
        <time>2012-09-27T20:29:35Z</time>
      </trkpt>
      <trkpt lat="59.4073295536" lon="17.9180473091">
        <ele>125.2</ele>
        <time>2012-09-27T20:29:38Z</time>
      </trkpt>
      <trkpt lat="59.4072047471" lon="17.9183072318">
        <ele>124.8</ele>
        <time>2012-09-27T20:29:41Z</time>
      </trkpt>
      <trkpt lat="59.4071671124" lon="17.9184021988">
        <ele>124.4</ele>
        <time>2012-09-27T20:29:42Z</time>
      </trkpt>
      <trkpt lat="59.4071290586" lon="17.918510912">
        <ele>123.8</ele>
        <time>2012-09-27T20:29:43Z</time>
      </trkpt>
      <trkpt lat="59.4070948604" lon="17.9186270852">
        <ele>123.4</ele>
        <time>2012-09-27T20:29:44Z</time>
      </trkpt>
      <trkpt lat="59.4070601594" lon="17.9187311883">
        <ele>123</ele>
        <time>2012-09-27T20:29:45Z</time>
      </trkpt>
      <trkpt lat="59.4068248794" lon="17.9193356072">
        <ele>123</ele>
        <time>2012-09-27T20:29:51Z</time>
      </trkpt>
      <trkpt lat="59.4064817244" lon="17.9201546026">
        <ele>123</ele>
        <time>2012-09-27T20:29:59Z</time>
      </trkpt>
      <trkpt lat="59.4064346182" lon="17.9202680935">
        <ele>122.6</ele>
        <time>2012-09-27T20:30:00Z</time>
      </trkpt>
      <trkpt lat="59.4063885177" lon="17.9203803272">
        <ele>122</ele>
        <time>2012-09-27T20:30:01Z</time>
      </trkpt>
      <trkpt lat="59.4063405732" lon="17.9204965841">
        <ele>121.6</ele>
        <time>2012-09-27T20:30:02Z</time>
      </trkpt>
      <trkpt lat="59.4062978256" lon="17.920606387">
        <ele>121</ele>
        <time>2012-09-27T20:30:03Z</time>
      </trkpt>
      <trkpt lat="59.4062543235" lon="17.920715687">
        <ele>120.4</ele>
        <time>2012-09-27T20:30:04Z</time>
      </trkpt>
      <trkpt lat="59.4060804829" lon="17.9211507076">
        <ele>120.4</ele>
        <time>2012-09-27T20:30:08Z</time>
      </trkpt>
      <trkpt lat="59.4059867732" lon="17.9213626859">
        <ele>120.4</ele>
        <time>2012-09-27T20:30:10Z</time>
      </trkpt>
      <trkpt lat="59.4057961688" lon="17.9217184975">
        <ele>120.4</ele>
        <time>2012-09-27T20:30:14Z</time>
      </trkpt>
      <trkpt lat="59.405521494" lon="17.922213784">
        <ele>120.4</ele>
        <time>2012-09-27T20:30:20Z</time>
      </trkpt>
      <trkpt lat="59.405151014" lon="17.9229134212">
        <ele>120.4</ele>
        <time>2012-09-27T20:30:28Z</time>
      </trkpt>
      <trkpt lat="59.4048723158" lon="17.9235912654">
        <ele>120.4</ele>
        <time>2012-09-27T20:30:35Z</time>
      </trkpt>
      <trkpt lat="59.404746252" lon="17.9242619851">
        <ele>120.4</ele>
        <time>2012-09-27T20:30:40Z</time>
      </trkpt>
      <trkpt lat="59.4046835554" lon="17.9246546771">
        <ele>120.4</ele>
        <time>2012-09-27T20:30:43Z</time>
      </trkpt>
      <trkpt lat="59.4046066934" lon="17.9249089001">
        <ele>120.4</ele>
        <time>2012-09-27T20:30:45Z</time>
      </trkpt>
      <trkpt lat="59.4043534762" lon="17.9258466671">
        <ele>120.4</ele>
        <time>2012-09-27T20:30:52Z</time>
      </trkpt>
      <trkpt lat="59.4041881851" lon="17.9265046462">
        <ele>120</ele>
        <time>2012-09-27T20:30:57Z</time>
      </trkpt>
      <trkpt lat="59.4041540708" lon="17.9266392595">
        <ele>119.6</ele>
        <time>2012-09-27T20:30:58Z</time>
      </trkpt>
      <trkpt lat="59.4041176934" lon="17.9267711068">
        <ele>119.2</ele>
        <time>2012-09-27T20:30:59Z</time>
      </trkpt>
      <trkpt lat="59.4040829085" lon="17.9269009425">
        <ele>118.8</ele>
        <time>2012-09-27T20:31:00Z</time>
      </trkpt>
      <trkpt lat="59.4040455252" lon="17.9270259166">
        <ele>118.4</ele>
        <time>2012-09-27T20:31:01Z</time>
      </trkpt>
      <trkpt lat="59.4038656496" lon="17.9274407368">
        <ele>118.4</ele>
        <time>2012-09-27T20:31:05Z</time>
      </trkpt>
      <trkpt lat="59.4038104967" lon="17.927492034">
        <ele>118.4</ele>
        <time>2012-09-27T20:31:06Z</time>
      </trkpt>
      <trkpt lat="59.4036320461" lon="17.9275058642">
        <ele>118.4</ele>
        <time>2012-09-27T20:31:09Z</time>
      </trkpt>
      <trkpt lat="59.4033848638" lon="17.927293383">
        <ele>118.4</ele>
        <time>2012-09-27T20:31:13Z</time>
      </trkpt>
      <trkpt lat="59.403307918" lon="17.9272099831">
        <ele>118.4</ele>
        <time>2012-09-27T20:31:14Z</time>
      </trkpt>
      <trkpt lat="59.4030500069" lon="17.9270179538">
        <ele>118.4</ele>
        <time>2012-09-27T20:31:17Z</time>
      </trkpt>
      <trkpt lat="59.4028741547" lon="17.9269931434">
        <ele>118.4</ele>
        <time>2012-09-27T20:31:19Z</time>
      </trkpt>
      <trkpt lat="59.4027895813" lon="17.92696783">
        <ele>118.4</ele>
        <time>2012-09-27T20:31:20Z</time>
      </trkpt>
      <trkpt lat="59.4027076901" lon="17.9269287704">
        <ele>118.4</ele>
        <time>2012-09-27T20:31:21Z</time>
      </trkpt>
      <trkpt lat="59.402446091" lon="17.9269246632">
        <ele>118.4</ele>
        <time>2012-09-27T20:31:24Z</time>
      </trkpt>
      <trkpt lat="59.4022947139" lon="17.9270891161">
        <ele>118.4</ele>
        <time>2012-09-27T20:31:26Z</time>
      </trkpt>
      <trkpt lat="59.402227994" lon="17.9271861785">
        <ele>118.4</ele>
        <time>2012-09-27T20:31:27Z</time>
      </trkpt>
      <trkpt lat="59.4018581008" lon="17.9277853167">
        <ele>118.4</ele>
        <time>2012-09-27T20:31:33Z</time>
      </trkpt>
      <trkpt lat="59.4018015229" lon="17.9278795293">
        <ele>117.8</ele>
        <time>2012-09-27T20:31:34Z</time>
      </trkpt>
      <trkpt lat="59.4017451966" lon="17.9279709758">
        <ele>117.2</ele>
        <time>2012-09-27T20:31:35Z</time>
      </trkpt>
      <trkpt lat="59.401692223" lon="17.9280594887">
        <ele>116.2</ele>
        <time>2012-09-27T20:31:36Z</time>
      </trkpt>
      <trkpt lat="59.4016401714" lon="17.9281469957">
        <ele>115.6</ele>
        <time>2012-09-27T20:31:37Z</time>
      </trkpt>
      <trkpt lat="59.4015903829" lon="17.92820986">
        <ele>115.6</ele>
        <time>2012-09-27T20:31:38Z</time>
      </trkpt>
      <trkpt lat="59.4015433604" lon="17.9282283001">
        <ele>115.2</ele>
        <time>2012-09-27T20:31:39Z</time>
      </trkpt>
      <trkpt lat="59.4015015347" lon="17.9282177389">
        <ele>114.8</ele>
        <time>2012-09-27T20:31:40Z</time>
      </trkpt>
      <trkpt lat="59.4014566916" lon="17.9281386976">
        <ele>114.4</ele>
        <time>2012-09-27T20:31:41Z</time>
      </trkpt>
      <trkpt lat="59.4014172128" lon="17.9280419705">
        <ele>114</ele>
        <time>2012-09-27T20:31:42Z</time>
      </trkpt>
      <trkpt lat="59.4013780693" lon="17.9279409686">
        <ele>113.6</ele>
        <time>2012-09-27T20:31:43Z</time>
      </trkpt>
      <trkpt lat="59.4011952601" lon="17.9275107257">
        <ele>113.6</ele>
        <time>2012-09-27T20:31:47Z</time>
      </trkpt>
      <trkpt lat="59.4008772508" lon="17.9266984358">
        <ele>113.6</ele>
        <time>2012-09-27T20:31:54Z</time>
      </trkpt>
      <trkpt lat="59.400660914" lon="17.9260633392">
        <ele>113.6</ele>
        <time>2012-09-27T20:32:00Z</time>
      </trkpt>
      <trkpt lat="59.4004984728" lon="17.9255035121">
        <ele>113.6</ele>
        <time>2012-09-27T20:32:06Z</time>
      </trkpt>
      <trkpt lat="59.400469639" lon="17.9253165119">
        <ele>113.6</ele>
        <time>2012-09-27T20:32:08Z</time>
      </trkpt>
      <trkpt lat="59.4004548869" lon="17.9250285098">
        <ele>113.6</ele>
        <time>2012-09-27T20:32:11Z</time>
      </trkpt>
      <trkpt lat="59.4005106265" lon="17.9246136896">
        <ele>113.6</ele>
        <time>2012-09-27T20:32:15Z</time>
      </trkpt>
      <trkpt lat="59.4005331738" lon="17.9245123524">
        <ele>113.6</ele>
        <time>2012-09-27T20:32:16Z</time>
      </trkpt>
      <trkpt lat="59.4005795257" lon="17.9242967699">
        <ele>114</ele>
        <time>2012-09-27T20:32:18Z</time>
      </trkpt>
      <trkpt lat="59.4005992232" lon="17.9241835305">
        <ele>114.4</ele>
        <time>2012-09-27T20:32:19Z</time>
      </trkpt>
      <trkpt lat="59.4006185854" lon="17.9240626635">
        <ele>114.8</ele>
        <time>2012-09-27T20:32:20Z</time>
      </trkpt>
      <trkpt lat="59.4006343434" lon="17.9239478315">
        <ele>115.2</ele>
        <time>2012-09-27T20:32:21Z</time>
      </trkpt>
      <trkpt lat="59.4006423062" lon="17.9238312392">
        <ele>115.6</ele>
        <time>2012-09-27T20:32:22Z</time>
      </trkpt>
      <trkpt lat="59.4006305715" lon="17.923584057">
        <ele>115.2</ele>
        <time>2012-09-27T20:32:24Z</time>
      </trkpt>
      <trkpt lat="59.4006133886" lon="17.9234523773">
        <ele>114.8</ele>
        <time>2012-09-27T20:32:25Z</time>
      </trkpt>
      <trkpt lat="59.4005812021" lon="17.9233008326">
        <ele>114</ele>
        <time>2012-09-27T20:32:26Z</time>
      </trkpt>
      <trkpt lat="59.4005335091" lon="17.923152473">
        <ele>113.6</ele>
        <time>2012-09-27T20:32:27Z</time>
      </trkpt>
      <trkpt lat="59.4004247959" lon="17.922875535">
        <ele>113.6</ele>
        <time>2012-09-27T20:32:29Z</time>
      </trkpt>
      <trkpt lat="59.4003104667" lon="17.9226470444">
        <ele>113.6</ele>
        <time>2012-09-27T20:32:31Z</time>
      </trkpt>
      <trkpt lat="59.400185325" lon="17.9224695157">
        <ele>113</ele>
        <time>2012-09-27T20:32:33Z</time>
      </trkpt>
      <trkpt lat="59.4001216225" lon="17.9223813382">
        <ele>112.6</ele>
        <time>2012-09-27T20:32:34Z</time>
      </trkpt>
      <trkpt lat="59.4000548188" lon="17.9222837728">
        <ele>112.2</ele>
        <time>2012-09-27T20:32:35Z</time>
      </trkpt>
      <trkpt lat="59.3999922898" lon="17.9221893088">
        <ele>111.8</ele>
        <time>2012-09-27T20:32:36Z</time>
      </trkpt>
      <trkpt lat="59.3999336165" lon="17.9220976108">
        <ele>111.4</ele>
        <time>2012-09-27T20:32:37Z</time>
      </trkpt>
      <trkpt lat="59.3997617038" lon="17.921857218">
        <ele>111.4</ele>
        <time>2012-09-27T20:32:40Z</time>
      </trkpt>
      <trkpt lat="59.399654164" lon="17.9217080201">
        <ele>111.4</ele>
        <time>2012-09-27T20:32:42Z</time>
      </trkpt>
      <trkpt lat="59.399475881" lon="17.9215224449">
        <ele>111.4</ele>
        <time>2012-09-27T20:32:45Z</time>
      </trkpt>
      <trkpt lat="59.3991475619" lon="17.9211947126">
        <ele>111.4</ele>
        <time>2012-09-27T20:32:51Z</time>
      </trkpt>
      <trkpt lat="59.3991128609" lon="17.9211135758">
        <ele>111.4</ele>
        <time>2012-09-27T20:32:52Z</time>
      </trkpt>
      <trkpt lat="59.3990639944" lon="17.9208523958">
        <ele>111.4</ele>
        <time>2012-09-27T20:32:55Z</time>
      </trkpt>
      <trkpt lat="59.3990977735" lon="17.9204601229">
        <ele>111.8</ele>
        <time>2012-09-27T20:32:59Z</time>
      </trkpt>
      <trkpt lat="59.3991117712" lon="17.9203540918">
        <ele>112.2</ele>
        <time>2012-09-27T20:33:00Z</time>
      </trkpt>
      <trkpt lat="59.3991227515" lon="17.9202435346">
        <ele>112.6</ele>
        <time>2012-09-27T20:33:01Z</time>
      </trkpt>
      <trkpt lat="59.399133648" lon="17.9201286187">
        <ele>113</ele>
        <time>2012-09-27T20:33:02Z</time>
      </trkpt>
      <trkpt lat="59.3991453826" lon="17.9200147087">
        <ele>113.4</ele>
        <time>2012-09-27T20:33:03Z</time>
      </trkpt>
      <trkpt lat="59.399169774" lon="17.9197845417">
        <ele>113.4</ele>
        <time>2012-09-27T20:33:05Z</time>
      </trkpt>
      <trkpt lat="59.3991863701" lon="17.9195304863">
        <ele>113.4</ele>
        <time>2012-09-27T20:33:07Z</time>
      </trkpt>
      <trkpt lat="59.3991738811" lon="17.9192551409">
        <ele>113.4</ele>
        <time>2012-09-27T20:33:09Z</time>
      </trkpt>
      <trkpt lat="59.3991557762" lon="17.9191295801">
        <ele>113.4</ele>
        <time>2012-09-27T20:33:10Z</time>
      </trkpt>
      <trkpt lat="59.399085955" lon="17.9189154225">
        <ele>113.8</ele>
        <time>2012-09-27T20:33:12Z</time>
      </trkpt>
      <trkpt lat="59.3990447998" lon="17.9188062902">
        <ele>114.2</ele>
        <time>2012-09-27T20:33:13Z</time>
      </trkpt>
      <trkpt lat="59.3989992861" lon="17.9187032766">
        <ele>114.6</ele>
        <time>2012-09-27T20:33:14Z</time>
      </trkpt>
      <trkpt lat="59.3989541077" lon="17.9186082259">
        <ele>115.6</ele>
        <time>2012-09-27T20:33:15Z</time>
      </trkpt>
      <trkpt lat="59.3989047383" lon="17.9185217247">
        <ele>115.6</ele>
        <time>2012-09-27T20:33:16Z</time>
      </trkpt>
      <trkpt lat="59.3987875593" lon="17.9183549249">
        <ele>115.6</ele>
        <time>2012-09-27T20:33:18Z</time>
      </trkpt>
      <trkpt lat="59.3985545425" lon="17.9181081617">
        <ele>115.6</ele>
        <time>2012-09-27T20:33:22Z</time>
      </trkpt>
      <trkpt lat="59.3985190871" lon="17.918044124">
        <ele>115.6</ele>
        <time>2012-09-27T20:33:23Z</time>
      </trkpt>
      <trkpt lat="59.398414481" lon="17.9177335746">
        <ele>115.6</ele>
        <time>2012-09-27T20:33:27Z</time>
      </trkpt>
      <trkpt lat="59.398381121" lon="17.9176473249">
        <ele>115.6</ele>
        <time>2012-09-27T20:33:28Z</time>
      </trkpt>
      <trkpt lat="59.3982489384" lon="17.9174376097">
        <ele>115.6</ele>
        <time>2012-09-27T20:33:31Z</time>
      </trkpt>
      <trkpt lat="59.3982032571" lon="17.9173779306">
        <ele>115.6</ele>
        <time>2012-09-27T20:33:32Z</time>
      </trkpt>
      <trkpt lat="59.3981057756" lon="17.9172805329">
        <ele>115.6</ele>
        <time>2012-09-27T20:33:34Z</time>
      </trkpt>
      <trkpt lat="59.3980039355" lon="17.9171983903">
        <ele>116</ele>
        <time>2012-09-27T20:33:36Z</time>
      </trkpt>
      <trkpt lat="59.3979509619" lon="17.9171553911">
        <ele>116.4</ele>
        <time>2012-09-27T20:33:37Z</time>
      </trkpt>
      <trkpt lat="59.3979006705" lon="17.9171153257">
        <ele>117</ele>
        <time>2012-09-27T20:33:38Z</time>
      </trkpt>
      <trkpt lat="59.3978519717" lon="17.9170683032">
        <ele>117.4</ele>
        <time>2012-09-27T20:33:39Z</time>
      </trkpt>
      <trkpt lat="59.3978091401" lon="17.9170177604">
        <ele>118.4</ele>
        <time>2012-09-27T20:33:40Z</time>
      </trkpt>
      <trkpt lat="59.3977695776" lon="17.9169569078">
        <ele>119</ele>
        <time>2012-09-27T20:33:41Z</time>
      </trkpt>
      <trkpt lat="59.3977298474" lon="17.9168944626">
        <ele>119.4</ele>
        <time>2012-09-27T20:33:42Z</time>
      </trkpt>
      <trkpt lat="59.397691123" lon="17.9168330233">
        <ele>120</ele>
        <time>2012-09-27T20:33:43Z</time>
      </trkpt>
      <trkpt lat="59.3976534044" lon="17.9167754396">
        <ele>120.4</ele>
        <time>2012-09-27T20:33:44Z</time>
      </trkpt>
      <trkpt lat="59.3976145124" lon="17.9167155929">
        <ele>121</ele>
        <time>2012-09-27T20:33:45Z</time>
      </trkpt>
      <trkpt lat="59.397571178" lon="17.9166621163">
        <ele>121.6</ele>
        <time>2012-09-27T20:33:46Z</time>
      </trkpt>
      <trkpt lat="59.3975218086" lon="17.9166104">
        <ele>122</ele>
        <time>2012-09-27T20:33:47Z</time>
      </trkpt>
      <trkpt lat="59.3974665719" lon="17.9165624555">
        <ele>122</ele>
        <time>2012-09-27T20:33:48Z</time>
      </trkpt>
      <trkpt lat="59.3972580302" lon="17.9164237351">
        <ele>122</ele>
        <time>2012-09-27T20:33:51Z</time>
      </trkpt>
      <trkpt lat="59.397165075" lon="17.9163968292">
        <ele>121.6</ele>
        <time>2012-09-27T20:33:52Z</time>
      </trkpt>
      <trkpt lat="59.3970774841" lon="17.9163787243">
        <ele>121.2</ele>
        <time>2012-09-27T20:33:53Z</time>
      </trkpt>
      <trkpt lat="59.3969909829" lon="17.9163540815">
        <ele>120.8</ele>
        <time>2012-09-27T20:33:54Z</time>
      </trkpt>
      <trkpt lat="59.3969107681" lon="17.9163300255">
        <ele>120.4</ele>
        <time>2012-09-27T20:33:55Z</time>
      </trkpt>
      <trkpt lat="59.3968361692" lon="17.9163002697">
        <ele>120</ele>
        <time>2012-09-27T20:33:56Z</time>
      </trkpt>
      <trkpt lat="59.3967838661" lon="17.9162737829">
        <ele>119.4</ele>
        <time>2012-09-27T20:33:57Z</time>
      </trkpt>
      <trkpt lat="59.3967537751" lon="17.9162302808">
        <ele>119</ele>
        <time>2012-09-27T20:33:58Z</time>
      </trkpt>
      <trkpt lat="59.3967343291" lon="17.9161809953">
        <ele>118.4</ele>
        <time>2012-09-27T20:33:59Z</time>
      </trkpt>
      <trkpt lat="59.3967328204" lon="17.9161200589">
        <ele>118</ele>
        <time>2012-09-27T20:34:00Z</time>
      </trkpt>
      <trkpt lat="59.3967479078" lon="17.9160618047">
        <ele>118</ele>
        <time>2012-09-27T20:34:01Z</time>
      </trkpt>
      <trkpt lat="59.3967873027" lon="17.9159455477">
        <ele>118</ele>
        <time>2012-09-27T20:34:03Z</time>
      </trkpt>
      <trkpt lat="59.3968731334" lon="17.9157442145">
        <ele>118</ele>
        <time>2012-09-27T20:34:06Z</time>
      </trkpt>
      <trkpt lat="59.397043705" lon="17.9153076013">
        <ele>118.4</ele>
        <time>2012-09-27T20:34:12Z</time>
      </trkpt>
      <trkpt lat="59.397069186" lon="17.9152324995">
        <ele>118.8</ele>
        <time>2012-09-27T20:34:13Z</time>
      </trkpt>
      <trkpt lat="59.3970959243" lon="17.9151538772">
        <ele>119.2</ele>
        <time>2012-09-27T20:34:14Z</time>
      </trkpt>
      <trkpt lat="59.3971262668" lon="17.915068801">
        <ele>119.8</ele>
        <time>2012-09-27T20:34:15Z</time>
      </trkpt>
      <trkpt lat="59.3971583694" lon="17.9149887538">
        <ele>120.2</ele>
        <time>2012-09-27T20:34:16Z</time>
      </trkpt>
      <trkpt lat="59.3972605448" lon="17.9147675555">
        <ele>120.2</ele>
        <time>2012-09-27T20:34:19Z</time>
      </trkpt>
      <trkpt lat="59.3975051286" lon="17.9143634641">
        <ele>120.2</ele>
        <time>2012-09-27T20:34:25Z</time>
      </trkpt>
      <trkpt lat="59.3977575076" lon="17.9138206522">
        <ele>120.2</ele>
        <time>2012-09-27T20:34:31Z</time>
      </trkpt>
      <trkpt lat="59.3978808054" lon="17.913399797">
        <ele>120.2</ele>
        <time>2012-09-27T20:34:35Z</time>
      </trkpt>
      <trkpt lat="59.3978981559" lon="17.9132682012">
        <ele>120.2</ele>
        <time>2012-09-27T20:34:36Z</time>
      </trkpt>
      <trkpt lat="59.3980435819" lon="17.9125110642">
        <ele>120.2</ele>
        <time>2012-09-27T20:34:42Z</time>
      </trkpt>
      <trkpt lat="59.3981802069" lon="17.9120849284">
        <ele>119.6</ele>
        <time>2012-09-27T20:34:46Z</time>
      </trkpt>
      <trkpt lat="59.3982138183" lon="17.9119775562">
        <ele>119.2</ele>
        <time>2012-09-27T20:34:47Z</time>
      </trkpt>
      <trkpt lat="59.3982481002" lon="17.9118705194">
        <ele>118.8</ele>
        <time>2012-09-27T20:34:48Z</time>
      </trkpt>
      <trkpt lat="59.3982821308" lon="17.9117648236">
        <ele>118.4</ele>
        <time>2012-09-27T20:34:49Z</time>
      </trkpt>
      <trkpt lat="59.3983138982" lon="17.9116533444">
        <ele>117.8</ele>
        <time>2012-09-27T20:34:50Z</time>
      </trkpt>
      <trkpt lat="59.3984165764" lon="17.9111511847">
        <ele>117.8</ele>
        <time>2012-09-27T20:34:54Z</time>
      </trkpt>
      <trkpt lat="59.3984377826" lon="17.9110251209">
        <ele>117.4</ele>
        <time>2012-09-27T20:34:55Z</time>
      </trkpt>
      <trkpt lat="59.3984602461" lon="17.9109068523">
        <ele>117</ele>
        <time>2012-09-27T20:34:56Z</time>
      </trkpt>
      <trkpt lat="59.3984887446" lon="17.9108019109">
        <ele>116.6</ele>
        <time>2012-09-27T20:34:57Z</time>
      </trkpt>
      <trkpt lat="59.3985309056" lon="17.9107184272">
        <ele>116.2</ele>
        <time>2012-09-27T20:34:58Z</time>
      </trkpt>
      <trkpt lat="59.398577006" lon="17.9106597539">
        <ele>115.6</ele>
        <time>2012-09-27T20:34:59Z</time>
      </trkpt>
      <trkpt lat="59.398627968" lon="17.9106045172">
        <ele>115.2</ele>
        <time>2012-09-27T20:35:00Z</time>
      </trkpt>
      <trkpt lat="59.3986774212" lon="17.9105556507">
        <ele>114.6</ele>
        <time>2012-09-27T20:35:01Z</time>
      </trkpt>
      <trkpt lat="59.3987234378" lon="17.9105030962">
        <ele>114</ele>
        <time>2012-09-27T20:35:02Z</time>
      </trkpt>
      <trkpt lat="59.3987751541" lon="17.9104492844">
        <ele>113.4</ele>
        <time>2012-09-27T20:35:03Z</time>
      </trkpt>
      <trkpt lat="59.3988259484" lon="17.9103918684">
        <ele>113.4</ele>
        <time>2012-09-27T20:35:04Z</time>
      </trkpt>
      <trkpt lat="59.3991654154" lon="17.9100445225">
        <ele>113.4</ele>
        <time>2012-09-27T20:35:10Z</time>
      </trkpt>
      <trkpt lat="59.3992699377" lon="17.9099269244">
        <ele>113.4</ele>
        <time>2012-09-27T20:35:12Z</time>
      </trkpt>
      <trkpt lat="59.3994234103" lon="17.9097542573">
        <ele>113.4</ele>
        <time>2012-09-27T20:35:15Z</time>
      </trkpt>
      <trkpt lat="59.39988014" lon="17.9092878884">
        <ele>113.4</ele>
        <time>2012-09-27T20:35:24Z</time>
      </trkpt>
      <trkpt lat="59.4000316009" lon="17.9091042409">
        <ele>113.4</ele>
        <time>2012-09-27T20:35:29Z</time>
      </trkpt>
      <trkpt lat="59.4001355365" lon="17.9089706334">
        <ele>113.4</ele>
        <time>2012-09-27T20:35:33Z</time>
      </trkpt>
      <trkpt lat="59.400153809" lon="17.9089599046">
        <ele>113.4</ele>
        <time>2012-09-27T20:35:34Z</time>
      </trkpt>
      <trkpt lat="59.4001856603" lon="17.908963425">
        <ele>113.4</ele>
        <time>2012-09-27T20:35:36Z</time>
      </trkpt>
      <trkpt lat="59.4001947965" lon="17.9089864752">
        <ele>113.4</ele>
        <time>2012-09-27T20:35:38Z</time>
      </trkpt>
      <trkpt lat="59.4001802958" lon="17.909019919">
        <ele>113.4</ele>
        <time>2012-09-27T20:35:39Z</time>
      </trkpt>
      <trkpt lat="59.4001341954" lon="17.9090847111">
        <ele>113.4</ele>
        <time>2012-09-27T20:35:41Z</time>
      </trkpt>
      <trkpt lat="59.4000339479" lon="17.9093196558">
        <ele>113.4</ele>
        <time>2012-09-27T20:35:44Z</time>
      </trkpt>
      <trkpt lat="59.3999706645" lon="17.9096401796">
        <ele>113.4</ele>
        <time>2012-09-27T20:35:47Z</time>
      </trkpt>
      <trkpt lat="59.3999383104" lon="17.9098566003">
        <ele>113.4</ele>
        <time>2012-09-27T20:35:49Z</time>
      </trkpt>
      <trkpt lat="59.3998983287" lon="17.9100388228">
        <ele>113.4</ele>
        <time>2012-09-27T20:35:51Z</time>
      </trkpt>
      <trkpt lat="59.3998746918" lon="17.9101112424">
        <ele>114</ele>
        <time>2012-09-27T20:35:52Z</time>
      </trkpt>
      <trkpt lat="59.3998538208" lon="17.9101772079">
        <ele>114.4</ele>
        <time>2012-09-27T20:35:53Z</time>
      </trkpt>
      <trkpt lat="59.3998295133" lon="17.9102456881">
        <ele>115</ele>
        <time>2012-09-27T20:35:54Z</time>
      </trkpt>
      <trkpt lat="59.3998016854" lon="17.9103100611">
        <ele>115.4</ele>
        <time>2012-09-27T20:35:55Z</time>
      </trkpt>
      <trkpt lat="59.3997666491" lon="17.910374434">
        <ele>115.8</ele>
        <time>2012-09-27T20:35:56Z</time>
      </trkpt>
      <trkpt lat="59.3996881945" lon="17.9105008331">
        <ele>115.8</ele>
        <time>2012-09-27T20:35:58Z</time>
      </trkpt>
      <trkpt lat="59.3994224044" lon="17.9109211016">
        <ele>115.8</ele>
        <time>2012-09-27T20:36:05Z</time>
      </trkpt>
      <trkpt lat="59.3991363302" lon="17.9111978719">
        <ele>115.8</ele>
        <time>2012-09-27T20:36:11Z</time>
      </trkpt>
      <trkpt lat="59.398997023" lon="17.9113592235">
        <ele>115.8</ele>
        <time>2012-09-27T20:36:14Z</time>
      </trkpt>
      <trkpt lat="59.3989243519" lon="17.911459471">
        <ele>115.8</ele>
        <time>2012-09-27T20:36:16Z</time>
      </trkpt>
      <trkpt lat="59.3988696181" lon="17.911553935">
        <ele>116.4</ele>
        <time>2012-09-27T20:36:18Z</time>
      </trkpt>
      <trkpt lat="59.3988433828" lon="17.9116003707">
        <ele>116.8</ele>
        <time>2012-09-27T20:36:19Z</time>
      </trkpt>
      <trkpt lat="59.3988096875" lon="17.9116432023">
        <ele>117.2</ele>
        <time>2012-09-27T20:36:20Z</time>
      </trkpt>
      <trkpt lat="59.3987773334" lon="17.9116960082">
        <ele>117.8</ele>
        <time>2012-09-27T20:36:21Z</time>
      </trkpt>
      <trkpt lat="59.3987439735" lon="17.9117551844">
        <ele>118.2</ele>
        <time>2012-09-27T20:36:22Z</time>
      </trkpt>
      <trkpt lat="59.3986639263" lon="17.9119231577">
        <ele>118.6</ele>
        <time>2012-09-27T20:36:25Z</time>
      </trkpt>
      <trkpt lat="59.3986440612" lon="17.9119848485">
        <ele>119.2</ele>
        <time>2012-09-27T20:36:26Z</time>
      </trkpt>
      <trkpt lat="59.398622855" lon="17.9120455335">
        <ele>119.6</ele>
        <time>2012-09-27T20:36:27Z</time>
      </trkpt>
      <trkpt lat="59.398604331" lon="17.9121062184">
        <ele>120</ele>
        <time>2012-09-27T20:36:28Z</time>
      </trkpt>
      <trkpt lat="59.398586729" lon="17.912168915">
        <ele>120.6</ele>
        <time>2012-09-27T20:36:29Z</time>
      </trkpt>
      <trkpt lat="59.3984813685" lon="17.9125127406">
        <ele>120.6</ele>
        <time>2012-09-27T20:36:34Z</time>
      </trkpt>
      <trkpt lat="59.3983542151" lon="17.9128460049">
        <ele>121</ele>
        <time>2012-09-27T20:36:39Z</time>
      </trkpt>
      <trkpt lat="59.3983290694" lon="17.9129187598">
        <ele>121.4</ele>
        <time>2012-09-27T20:36:40Z</time>
      </trkpt>
      <trkpt lat="59.3983063545" lon="17.9129939454">
        <ele>121.8</ele>
        <time>2012-09-27T20:36:41Z</time>
      </trkpt>
      <trkpt lat="59.3982879981" lon="17.9130750822">
        <ele>122.2</ele>
        <time>2012-09-27T20:36:42Z</time>
      </trkpt>
      <trkpt lat="59.3982714858" lon="17.9131587336">
        <ele>122.6</ele>
        <time>2012-09-27T20:36:43Z</time>
      </trkpt>
      <trkpt lat="59.3982262235" lon="17.9134469033">
        <ele>122.6</ele>
        <time>2012-09-27T20:36:46Z</time>
      </trkpt>
      <trkpt lat="59.3982189312" lon="17.913861053">
        <ele>122.6</ele>
        <time>2012-09-27T20:36:51Z</time>
      </trkpt>
      <trkpt lat="59.3982248824" lon="17.9139427765">
        <ele>123.2</ele>
        <time>2012-09-27T20:36:52Z</time>
      </trkpt>
      <trkpt lat="59.398229241" lon="17.9140299483">
        <ele>123.6</ele>
        <time>2012-09-27T20:36:53Z</time>
      </trkpt>
      <trkpt lat="59.3982321746" lon="17.9141206404">
        <ele>124</ele>
        <time>2012-09-27T20:36:54Z</time>
      </trkpt>
      <trkpt lat="59.3982276484" lon="17.9142198821">
        <ele>124.4</ele>
        <time>2012-09-27T20:36:55Z</time>
      </trkpt>
      <trkpt lat="59.3982234575" lon="17.9143097361">
        <ele>124.8</ele>
        <time>2012-09-27T20:36:56Z</time>
      </trkpt>
      <trkpt lat="59.3982242118" lon="17.9143969079">
        <ele>124.8</ele>
        <time>2012-09-27T20:36:57Z</time>
      </trkpt>
      <trkpt lat="59.3982900097" lon="17.9146523044">
        <ele>124.8</ele>
        <time>2012-09-27T20:37:01Z</time>
      </trkpt>
      <trkpt lat="59.3983457494" lon="17.9147289987">
        <ele>125.2</ele>
        <time>2012-09-27T20:37:03Z</time>
      </trkpt>
      <trkpt lat="59.3983755889" lon="17.9147600956">
        <ele>125.6</ele>
        <time>2012-09-27T20:37:04Z</time>
      </trkpt>
      <trkpt lat="59.3984085298" lon="17.914781218">
        <ele>126</ele>
        <time>2012-09-27T20:37:05Z</time>
      </trkpt>
      <trkpt lat="59.398444572" lon="17.914799742">
        <ele>126.4</ele>
        <time>2012-09-27T20:37:06Z</time>
      </trkpt>
      <trkpt lat="59.3984815362" lon="17.9148133207">
        <ele>126.8</ele>
        <time>2012-09-27T20:37:07Z</time>
      </trkpt>
      <trkpt lat="59.398667782" lon="17.9147279091">
        <ele>126.8</ele>
        <time>2012-09-27T20:37:12Z</time>
      </trkpt>
      <trkpt lat="59.3988078435" lon="17.9145865903">
        <ele>126.8</ele>
        <time>2012-09-27T20:37:15Z</time>
      </trkpt>
      <trkpt lat="59.3990602225" lon="17.9145427529">
        <ele>126.8</ele>
        <time>2012-09-27T20:37:18Z</time>
      </trkpt>
      <trkpt lat="59.3992874558" lon="17.9145893563">
        <ele>125.8</ele>
        <time>2012-09-27T20:37:22Z</time>
      </trkpt>
      <trkpt lat="59.3993409324" lon="17.9146150049">
        <ele>125</ele>
        <time>2012-09-27T20:37:23Z</time>
      </trkpt>
      <trkpt lat="59.3993925649" lon="17.9146519691">
        <ele>124.2</ele>
        <time>2012-09-27T20:37:24Z</time>
      </trkpt>
      <trkpt lat="59.399446209" lon="17.9146873407">
        <ele>123.4</ele>
        <time>2012-09-27T20:37:25Z</time>
      </trkpt>
      <trkpt lat="59.3995006914" lon="17.9147326868">
        <ele>122.6</ele>
        <time>2012-09-27T20:37:26Z</time>
      </trkpt>
      <trkpt lat="59.3995571016" lon="17.9147741772">
        <ele>121.8</ele>
        <time>2012-09-27T20:37:27Z</time>
      </trkpt>
      <trkpt lat="59.3996128412" lon="17.914761772">
        <ele>120.8</ele>
        <time>2012-09-27T20:37:28Z</time>
      </trkpt>
      <trkpt lat="59.3996660663" lon="17.9147170964">
        <ele>120</ele>
        <time>2012-09-27T20:37:29Z</time>
      </trkpt>
      <trkpt lat="59.3997148489" lon="17.9146487001">
        <ele>119.4</ele>
        <time>2012-09-27T20:37:30Z</time>
      </trkpt>
      <trkpt lat="59.3997603626" lon="17.9145881828">
        <ele>118.8</ele>
        <time>2012-09-27T20:37:31Z</time>
      </trkpt>
      <trkpt lat="59.3998042" lon="17.9145475306">
        <ele>118.2</ele>
        <time>2012-09-27T20:37:32Z</time>
      </trkpt>
      <trkpt lat="59.3998440978" lon="17.9145131648">
        <ele>117.6</ele>
        <time>2012-09-27T20:37:33Z</time>
      </trkpt>
      <trkpt lat="59.3998855882" lon="17.9144803916">
        <ele>117</ele>
        <time>2012-09-27T20:37:34Z</time>
      </trkpt>
      <trkpt lat="59.3999337842" lon="17.9144456905">
        <ele>117</ele>
        <time>2012-09-27T20:37:35Z</time>
      </trkpt>
      <trkpt lat="59.3999821477" lon="17.9144099836">
        <ele>116.6</ele>
        <time>2012-09-27T20:37:36Z</time>
      </trkpt>
      <trkpt lat="59.4000289187" lon="17.9143820719">
        <ele>116</ele>
        <time>2012-09-27T20:37:37Z</time>
      </trkpt>
      <trkpt lat="59.4000656314" lon="17.9143653081">
        <ele>115.6</ele>
        <time>2012-09-27T20:37:38Z</time>
      </trkpt>
      <trkpt lat="59.4000963092" lon="17.9143675712">
        <ele>115</ele>
        <time>2012-09-27T20:37:39Z</time>
      </trkpt>
      <trkpt lat="59.4001212873" lon="17.9143850056">
        <ele>114.6</ele>
        <time>2012-09-27T20:37:40Z</time>
      </trkpt>
      <trkpt lat="59.400145008" lon="17.9144133364">
        <ele>114.6</ele>
        <time>2012-09-27T20:37:41Z</time>
      </trkpt>
      <trkpt lat="59.4003160826" lon="17.9145207085">
        <ele>114.6</ele>
        <time>2012-09-27T20:37:45Z</time>
      </trkpt>
      <trkpt lat="59.4005677911" lon="17.9149144902">
        <ele>114.6</ele>
        <time>2012-09-27T20:37:51Z</time>
      </trkpt>
      <trkpt lat="59.4006219381" lon="17.9149730797">
        <ele>114.6</ele>
        <time>2012-09-27T20:37:52Z</time>
      </trkpt>
      <trkpt lat="59.4007759975" lon="17.9150318368">
        <ele>114.2</ele>
        <time>2012-09-27T20:37:55Z</time>
      </trkpt>
      <trkpt lat="59.4008283005" lon="17.9150054338">
        <ele>113.8</ele>
        <time>2012-09-27T20:37:56Z</time>
      </trkpt>
      <trkpt lat="59.4008826152" lon="17.9149773544">
        <ele>113.2</ele>
        <time>2012-09-27T20:37:57Z</time>
      </trkpt>
      <trkpt lat="59.4009346668" lon="17.9149461738">
        <ele>112.8</ele>
        <time>2012-09-27T20:37:58Z</time>
      </trkpt>
      <trkpt lat="59.4009853773" lon="17.9149112212">
        <ele>112.4</ele>
        <time>2012-09-27T20:37:59Z</time>
      </trkpt>
      <trkpt lat="59.4010655921" lon="17.9148234628">
        <ele>112.4</ele>
        <time>2012-09-27T20:38:01Z</time>
      </trkpt>
      <trkpt lat="59.4011421189" lon="17.9147057809">
        <ele>112.4</ele>
        <time>2012-09-27T20:38:03Z</time>
      </trkpt>
      <trkpt lat="59.4012176398" lon="17.914438985">
        <ele>112.4</ele>
        <time>2012-09-27T20:38:06Z</time>
      </trkpt>
      <trkpt lat="59.4012431208" lon="17.9143652243">
        <ele>112.4</ele>
        <time>2012-09-27T20:38:07Z</time>
      </trkpt>
      <trkpt lat="59.4012721221" lon="17.9142972471">
        <ele>112.4</ele>
        <time>2012-09-27T20:38:08Z</time>
      </trkpt>
      <trkpt lat="59.4013556059" lon="17.9141363146">
        <ele>112.8</ele>
        <time>2012-09-27T20:38:11Z</time>
      </trkpt>
      <trkpt lat="59.4013861998" lon="17.9140918905">
        <ele>113.8</ele>
        <time>2012-09-27T20:38:12Z</time>
      </trkpt>
      <trkpt lat="59.4014186377" lon="17.9140488076">
        <ele>114.2</ele>
        <time>2012-09-27T20:38:13Z</time>
      </trkpt>
      <trkpt lat="59.4014511595" lon="17.9140130168">
        <ele>114.6</ele>
        <time>2012-09-27T20:38:14Z</time>
      </trkpt>
      <trkpt lat="59.401540762" lon="17.9138716142">
        <ele>114.6</ele>
        <time>2012-09-27T20:38:17Z</time>
      </trkpt>
      <trkpt lat="59.4015953282" lon="17.9137698579">
        <ele>115</ele>
        <time>2012-09-27T20:38:19Z</time>
      </trkpt>
      <trkpt lat="59.4016204739" lon="17.913706826">
        <ele>115.4</ele>
        <time>2012-09-27T20:38:20Z</time>
      </trkpt>
      <trkpt lat="59.4016462063" lon="17.9136328139">
        <ele>115.8</ele>
        <time>2012-09-27T20:38:21Z</time>
      </trkpt>
      <trkpt lat="59.4016668258" lon="17.9135580473">
        <ele>116.4</ele>
        <time>2012-09-27T20:38:22Z</time>
      </trkpt>
      <trkpt lat="59.4016823323" lon="17.9134857115">
        <ele>116.8</ele>
        <time>2012-09-27T20:38:23Z</time>
      </trkpt>
      <trkpt lat="59.4017890339" lon="17.9131786825">
        <ele>116.8</ele>
        <time>2012-09-27T20:38:28Z</time>
      </trkpt>
      <trkpt lat="59.4018421752" lon="17.9130869845">
        <ele>117.2</ele>
        <time>2012-09-27T20:38:30Z</time>
      </trkpt>
      <trkpt lat="59.401868662" lon="17.9130363579">
        <ele>117.6</ele>
        <time>2012-09-27T20:38:31Z</time>
      </trkpt>
      <trkpt lat="59.4018973281" lon="17.9129882457">
        <ele>118</ele>
        <time>2012-09-27T20:38:32Z</time>
      </trkpt>
      <trkpt lat="59.4019220547" lon="17.9129317517">
        <ele>118.4</ele>
        <time>2012-09-27T20:38:33Z</time>
      </trkpt>
      <trkpt lat="59.4019424227" lon="17.9128604218">
        <ele>118.8</ele>
        <time>2012-09-27T20:38:34Z</time>
      </trkpt>
      <trkpt lat="59.4020488728" lon="17.9124870081">
        <ele>118.8</ele>
        <time>2012-09-27T20:38:39Z</time>
      </trkpt>
      <trkpt lat="59.4020549916" lon="17.9123916221">
        <ele>118.8</ele>
        <time>2012-09-27T20:38:40Z</time>
      </trkpt>
      <trkpt lat="59.4020776227" lon="17.9117273565">
        <ele>118.8</ele>
        <time>2012-09-27T20:38:47Z</time>
      </trkpt>
      <trkpt lat="59.4020864237" lon="17.9116383408">
        <ele>118.2</ele>
        <time>2012-09-27T20:38:48Z</time>
      </trkpt>
      <trkpt lat="59.4021017626" lon="17.9115419489">
        <ele>117.8</ele>
        <time>2012-09-27T20:38:49Z</time>
      </trkpt>
      <trkpt lat="59.4021283332" lon="17.9114370913">
        <ele>117.4</ele>
        <time>2012-09-27T20:38:50Z</time>
      </trkpt>
      <trkpt lat="59.40216689" lon="17.9113324852">
        <ele>117</ele>
        <time>2012-09-27T20:38:51Z</time>
      </trkpt>
      <trkpt lat="59.4021889344" lon="17.9112097742">
        <ele>116.4</ele>
        <time>2012-09-27T20:38:52Z</time>
      </trkpt>
      <trkpt lat="59.4022160079" lon="17.9111094429">
        <ele>116</ele>
        <time>2012-09-27T20:38:53Z</time>
      </trkpt>
      <trkpt lat="59.4022557381" lon="17.9110345925">
        <ele>115.4</ele>
        <time>2012-09-27T20:38:54Z</time>
      </trkpt>
      <trkpt lat="59.4023063648" lon="17.9109840496">
        <ele>115</ele>
        <time>2012-09-27T20:38:55Z</time>
      </trkpt>
      <trkpt lat="59.4023486934" lon="17.9109755001">
        <ele>114.4</ele>
        <time>2012-09-27T20:38:56Z</time>
      </trkpt>
      <trkpt lat="59.4023912734" lon="17.9109939403">
        <ele>114</ele>
        <time>2012-09-27T20:38:57Z</time>
      </trkpt>
      <trkpt lat="59.4025440755" lon="17.9111197526">
        <ele>114</ele>
        <time>2012-09-27T20:39:00Z</time>
      </trkpt>
      <trkpt lat="59.4025943669" lon="17.9111920884">
        <ele>114</ele>
        <time>2012-09-27T20:39:01Z</time>
      </trkpt>
      <trkpt lat="59.4027496835" lon="17.9114651707">
        <ele>113.4</ele>
        <time>2012-09-27T20:39:04Z</time>
      </trkpt>
      <trkpt lat="59.4027878211" lon="17.9115265262">
        <ele>113</ele>
        <time>2012-09-27T20:39:05Z</time>
      </trkpt>
      <trkpt lat="59.4028262102" lon="17.9115857024">
        <ele>112.6</ele>
        <time>2012-09-27T20:39:06Z</time>
      </trkpt>
      <trkpt lat="59.4028681197" lon="17.9116684318">
        <ele>112</ele>
        <time>2012-09-27T20:39:07Z</time>
      </trkpt>
      <trkpt lat="59.4029114541" lon="17.9117472216">
        <ele>111.6</ele>
        <time>2012-09-27T20:39:08Z</time>
      </trkpt>
      <trkpt lat="59.4030699559" lon="17.9119789812">
        <ele>111.6</ele>
        <time>2012-09-27T20:39:13Z</time>
      </trkpt>
      <trkpt lat="59.4032010488" lon="17.9121699208">
        <ele>111.6</ele>
        <time>2012-09-27T20:39:18Z</time>
      </trkpt>
      <trkpt lat="59.4033624842" lon="17.9124466074">
        <ele>111.6</ele>
        <time>2012-09-27T20:39:23Z</time>
      </trkpt>
      <trkpt lat="59.4035908071" lon="17.9127924446">
        <ele>111.6</ele>
        <time>2012-09-27T20:39:30Z</time>
      </trkpt>
      <trkpt lat="59.4038030368" lon="17.9129027504">
        <ele>111.6</ele>
        <time>2012-09-27T20:39:35Z</time>
      </trkpt>
      <trkpt lat="59.4039493848" lon="17.9129670395">
        <ele>110.8</ele>
        <time>2012-09-27T20:39:38Z</time>
      </trkpt>
      <trkpt lat="59.4039981675" lon="17.9129880781">
        <ele>110</ele>
        <time>2012-09-27T20:39:39Z</time>
      </trkpt>
      <trkpt lat="59.4040427592" lon="17.9130002319">
        <ele>109.2</ele>
        <time>2012-09-27T20:39:40Z</time>
      </trkpt>
      <trkpt lat="59.4040845849" lon="17.9130149002">
        <ele>109.8</ele>
        <time>2012-09-27T20:39:41Z</time>
      </trkpt>
      <trkpt lat="59.4041262429" lon="17.9130204322">
        <ele>110.6</ele>
        <time>2012-09-27T20:39:42Z</time>
      </trkpt>
      <trkpt lat="59.4041640453" lon="17.9130269701">
        <ele>111.2</ele>
        <time>2012-09-27T20:39:43Z</time>
      </trkpt>
      <trkpt lat="59.4042001713" lon="17.9130405488">
        <ele>111.8</ele>
        <time>2012-09-27T20:39:44Z</time>
      </trkpt>
      <trkpt lat="59.404237806" lon="17.9130574802">
        <ele>112.4</ele>
        <time>2012-09-27T20:39:45Z</time>
      </trkpt>
      <trkpt lat="59.4043469383" lon="17.9131387009">
        <ele>112.8</ele>
        <time>2012-09-27T20:39:48Z</time>
      </trkpt>
      <trkpt lat="59.4043810527" lon="17.9131728152">
        <ele>113.2</ele>
        <time>2012-09-27T20:39:49Z</time>
      </trkpt>
      <trkpt lat="59.4044155023" lon="17.9132137189">
        <ele>113.6</ele>
        <time>2012-09-27T20:39:50Z</time>
      </trkpt>
      <trkpt lat="59.4044533046" lon="17.9132619986">
        <ele>114.4</ele>
        <time>2012-09-27T20:39:51Z</time>
      </trkpt>
      <trkpt lat="59.4044891792" lon="17.9133133796">
        <ele>115</ele>
        <time>2012-09-27T20:39:52Z</time>
      </trkpt>
      <trkpt lat="59.4045268139" lon="17.9133702927">
        <ele>115.4</ele>
        <time>2012-09-27T20:39:53Z</time>
      </trkpt>
      <trkpt lat="59.4045538874" lon="17.9134416227">
        <ele>116</ele>
        <time>2012-09-27T20:39:54Z</time>
      </trkpt>
      <trkpt lat="59.4045756804" lon="17.9135166407">
        <ele>116.4</ele>
        <time>2012-09-27T20:39:55Z</time>
      </trkpt>
      <trkpt lat="59.4045947911" lon="17.9135860429">
        <ele>116.8</ele>
        <time>2012-09-27T20:39:56Z</time>
      </trkpt>
      <trkpt lat="59.4046302465" lon="17.9137161299">
        <ele>117.2</ele>
        <time>2012-09-27T20:39:58Z</time>
      </trkpt>
      <trkpt lat="59.4046484353" lon="17.9137846939">
        <ele>117.8</ele>
        <time>2012-09-27T20:39:59Z</time>
      </trkpt>
      <trkpt lat="59.4046672107" lon="17.9138556886">
        <ele>118.2</ele>
        <time>2012-09-27T20:40:00Z</time>
      </trkpt>
      <trkpt lat="59.4046864053" lon="17.9139239172">
        <ele>118.6</ele>
        <time>2012-09-27T20:40:01Z</time>
      </trkpt>
      <trkpt lat="59.404705516" lon="17.9139921459">
        <ele>119</ele>
        <time>2012-09-27T20:40:02Z</time>
      </trkpt>
      <trkpt lat="59.4047273928" lon="17.9140649008">
        <ele>119</ele>
        <time>2012-09-27T20:40:03Z</time>
      </trkpt>
      <trkpt lat="59.4048251257" lon="17.914396824">
        <ele>119</ele>
        <time>2012-09-27T20:40:07Z</time>
      </trkpt>
      <trkpt lat="59.4048859783" lon="17.9144912881">
        <ele>119</ele>
        <time>2012-09-27T20:40:09Z</time>
      </trkpt>
      <trkpt lat="59.404958817" lon="17.9145889372">
        <ele>119.4</ele>
        <time>2012-09-27T20:40:12Z</time>
      </trkpt>
      <trkpt lat="59.4049770896" lon="17.9146157593">
        <ele>119.8</ele>
        <time>2012-09-27T20:40:13Z</time>
      </trkpt>
      <trkpt lat="59.4049942725" lon="17.9146422461">
        <ele>120.2</ele>
        <time>2012-09-27T20:40:14Z</time>
      </trkpt>
      <trkpt lat="59.4050101143" lon="17.9146611892">
        <ele>121</ele>
        <time>2012-09-27T20:40:15Z</time>
      </trkpt>
      <trkpt lat="59.4050968669" lon="17.9147059485">
        <ele>121.4</ele>
        <time>2012-09-27T20:40:19Z</time>
      </trkpt>
      <trkpt lat="59.4051193304" lon="17.9147088822">
        <ele>121.8</ele>
        <time>2012-09-27T20:40:20Z</time>
      </trkpt>
      <trkpt lat="59.405142213" lon="17.9147100556">
        <ele>122.2</ele>
        <time>2012-09-27T20:40:21Z</time>
      </trkpt>
      <trkpt lat="59.4051660176" lon="17.9147069543">
        <ele>122.6</ele>
        <time>2012-09-27T20:40:22Z</time>
      </trkpt>
      <trkpt lat="59.4051937617" lon="17.9147030987">
        <ele>123.2</ele>
        <time>2012-09-27T20:40:23Z</time>
      </trkpt>
      <trkpt lat="59.4052305582" lon="17.9146975666">
        <ele>123.6</ele>
        <time>2012-09-27T20:40:25Z</time>
      </trkpt>
      <trkpt lat="59.4052453104" lon="17.9146945491">
        <ele>124.2</ele>
        <time>2012-09-27T20:40:26Z</time>
      </trkpt>
      <trkpt lat="59.4052636667" lon="17.914692286">
        <ele>124.6</ele>
        <time>2012-09-27T20:40:27Z</time>
      </trkpt>
      <trkpt lat="59.4052853759" lon="17.9146921184">
        <ele>125</ele>
        <time>2012-09-27T20:40:28Z</time>
      </trkpt>
      <trkpt lat="59.4053215018" lon="17.9146912802">
        <ele>125.6</ele>
        <time>2012-09-27T20:40:29Z</time>
      </trkpt>
      <trkpt lat="59.4053556162" lon="17.9146945491">
        <ele>126</ele>
        <time>2012-09-27T20:40:30Z</time>
      </trkpt>
      <trkpt lat="59.405394592" lon="17.9146970637">
        <ele>126.4</ele>
        <time>2012-09-27T20:40:31Z</time>
      </trkpt>
      <trkpt lat="59.4054339031" lon="17.9146984048">
        <ele>126.8</ele>
        <time>2012-09-27T20:40:32Z</time>
      </trkpt>
      <trkpt lat="59.4054690233" lon="17.9146888494">
        <ele>127.2</ele>
        <time>2012-09-27T20:40:33Z</time>
      </trkpt>
      <trkpt lat="59.4055037243" lon="17.9146661345">
        <ele>127.6</ele>
        <time>2012-09-27T20:40:34Z</time>
      </trkpt>
      <trkpt lat="59.405653006" lon="17.9144480374">
        <ele>127.6</ele>
        <time>2012-09-27T20:40:39Z</time>
      </trkpt>
      <trkpt lat="59.4058541716" lon="17.9142300242">
        <ele>127.6</ele>
        <time>2012-09-27T20:40:44Z</time>
      </trkpt>
      <trkpt lat="59.4059583586" lon="17.9141586104">
        <ele>127.6</ele>
        <time>2012-09-27T20:40:46Z</time>
      </trkpt>
      <trkpt lat="59.4061227277" lon="17.9141394159">
        <ele>127.6</ele>
        <time>2012-09-27T20:40:49Z</time>
      </trkpt>
      <trkpt lat="59.4064971471" lon="17.9143275895">
        <ele>127.6</ele>
        <time>2012-09-27T20:40:55Z</time>
      </trkpt>
      <trkpt lat="59.4067316727" lon="17.9144929644">
        <ele>127.6</ele>
        <time>2012-09-27T20:41:00Z</time>
      </trkpt>
      <trkpt lat="59.4067649488" lon="17.9144720935">
        <ele>127.6</ele>
        <time>2012-09-27T20:41:01Z</time>
      </trkpt>
      <trkpt lat="59.4068034218" lon="17.9144044516">
        <ele>127.6</ele>
        <time>2012-09-27T20:41:03Z</time>
      </trkpt>
      <trkpt lat="59.4068247956" lon="17.9142932238">
        <ele>127.6</ele>
        <time>2012-09-27T20:41:05Z</time>
      </trkpt>
      <trkpt lat="59.4068276455" lon="17.914157437">
        <ele>127.6</ele>
        <time>2012-09-27T20:41:07Z</time>
      </trkpt>
      <trkpt lat="59.4068177548" lon="17.9136237614">
        <ele>127.6</ele>
        <time>2012-09-27T20:41:13Z</time>
      </trkpt>
      <trkpt lat="59.4068231192" lon="17.9133947679">
        <ele>127.6</ele>
        <time>2012-09-27T20:41:15Z</time>
      </trkpt>
      <trkpt lat="59.4068409727" lon="17.913009871">
        <ele>127.6</ele>
        <time>2012-09-27T20:41:18Z</time>
      </trkpt>
      <trkpt lat="59.4068574012" lon="17.9123699968">
        <ele>127.6</ele>
        <time>2012-09-27T20:41:24Z</time>
      </trkpt>
      <trkpt lat="59.4068501089" lon="17.9122715933">
        <ele>127.6</ele>
        <time>2012-09-27T20:41:25Z</time>
      </trkpt>
      <trkpt lat="59.4067960457" lon="17.9115824335">
        <ele>127.6</ele>
        <time>2012-09-27T20:41:31Z</time>
      </trkpt>
      <trkpt lat="59.4067539686" lon="17.9110503505">
        <ele>127.2</ele>
        <time>2012-09-27T20:41:35Z</time>
      </trkpt>
      <trkpt lat="59.4067447485" lon="17.9108801979">
        <ele>126.6</ele>
        <time>2012-09-27T20:41:36Z</time>
      </trkpt>
      <trkpt lat="59.4067351931" lon="17.910708788">
        <ele>126.2</ele>
        <time>2012-09-27T20:41:37Z</time>
      </trkpt>
      <trkpt lat="59.4067136516" lon="17.9105548125">
        <ele>125.4</ele>
        <time>2012-09-27T20:41:38Z</time>
      </trkpt>
      <trkpt lat="59.4066899308" lon="17.9104143319">
        <ele>124.4</ele>
        <time>2012-09-27T20:41:39Z</time>
      </trkpt>
      <trkpt lat="59.4066612647" lon="17.9102798024">
        <ele>123.6</ele>
        <time>2012-09-27T20:41:40Z</time>
      </trkpt>
      <trkpt lat="59.4066272342" lon="17.9101520622">
        <ele>122.8</ele>
        <time>2012-09-27T20:41:41Z</time>
      </trkpt>
      <trkpt lat="59.4065747635" lon="17.9100364758">
        <ele>122</ele>
        <time>2012-09-27T20:41:42Z</time>
      </trkpt>
      <trkpt lat="59.4064937106" lon="17.9099168661">
        <ele>121</ele>
        <time>2012-09-27T20:41:43Z</time>
      </trkpt>
      <trkpt lat="59.4064145016" lon="17.9098166186">
        <ele>120.2</ele>
        <time>2012-09-27T20:41:44Z</time>
      </trkpt>
      <trkpt lat="59.4063357956" lon="17.9097252559">
        <ele>119.4</ele>
        <time>2012-09-27T20:41:45Z</time>
      </trkpt>
      <trkpt lat="59.4062481209" lon="17.9096556023">
        <ele>118.6</ele>
        <time>2012-09-27T20:41:46Z</time>
      </trkpt>
      <trkpt lat="59.4061604462" lon="17.9095914808">
        <ele>118</ele>
        <time>2012-09-27T20:41:47Z</time>
      </trkpt>
      <trkpt lat="59.4060769625" lon="17.909538591">
        <ele>117.2</ele>
        <time>2012-09-27T20:41:48Z</time>
      </trkpt>
      <trkpt lat="59.4060000166" lon="17.90947514">
        <ele>116.4</ele>
        <time>2012-09-27T20:41:49Z</time>
      </trkpt>
      <trkpt lat="59.4056674229" lon="17.9091891496">
        <ele>116</ele>
        <time>2012-09-27T20:41:54Z</time>
      </trkpt>
      <trkpt lat="59.4056203166" lon="17.9091437197">
        <ele>115.4</ele>
        <time>2012-09-27T20:41:55Z</time>
      </trkpt>
      <trkpt lat="59.4055687679" lon="17.9091206694">
        <ele>115</ele>
        <time>2012-09-27T20:41:56Z</time>
      </trkpt>
      <trkpt lat="59.4055111842" lon="17.9090946856">
        <ele>114.6</ele>
        <time>2012-09-27T20:41:57Z</time>
      </trkpt>
      <trkpt lat="59.4054514213" lon="17.9090575537">
        <ele>114</ele>
        <time>2012-09-27T20:41:58Z</time>
      </trkpt>
      <trkpt lat="59.4050263751" lon="17.9088198431">
        <ele>114</ele>
        <time>2012-09-27T20:42:05Z</time>
      </trkpt>
      <trkpt lat="59.4049690429" lon="17.9087844714">
        <ele>114</ele>
        <time>2012-09-27T20:42:06Z</time>
      </trkpt>
      <trkpt lat="59.4047361099" lon="17.9086713996">
        <ele>114</ele>
        <time>2012-09-27T20:42:10Z</time>
      </trkpt>
      <trkpt lat="59.4044752652" lon="17.9085121435">
        <ele>114</ele>
        <time>2012-09-27T20:42:15Z</time>
      </trkpt>
      <trkpt lat="59.4043695695" lon="17.9084446692">
        <ele>114</ele>
        <time>2012-09-27T20:42:17Z</time>
      </trkpt>
      <trkpt lat="59.4040066332" lon="17.908199331">
        <ele>114</ele>
        <time>2012-09-27T20:42:24Z</time>
      </trkpt>
      <trkpt lat="59.40375065" lon="17.9079660627">
        <ele>114</ele>
        <time>2012-09-27T20:42:30Z</time>
      </trkpt>
      <trkpt lat="59.4036696808" lon="17.907871934">
        <ele>114.6</ele>
        <time>2012-09-27T20:42:33Z</time>
      </trkpt>
      <trkpt lat="59.4036462953" lon="17.9078395799">
        <ele>115</ele>
        <time>2012-09-27T20:42:34Z</time>
      </trkpt>
      <trkpt lat="59.4036240833" lon="17.9078065552">
        <ele>115.4</ele>
        <time>2012-09-27T20:42:35Z</time>
      </trkpt>
      <trkpt lat="59.4036025418" lon="17.9077726923">
        <ele>115.8</ele>
        <time>2012-09-27T20:42:36Z</time>
      </trkpt>
      <trkpt lat="59.4035818385" lon="17.9077381589">
        <ele>116.2</ele>
        <time>2012-09-27T20:42:37Z</time>
      </trkpt>
      <trkpt lat="59.4035432818" lon="17.9076665774">
        <ele>116.8</ele>
        <time>2012-09-27T20:42:39Z</time>
      </trkpt>
      <trkpt lat="59.4035212374" lon="17.9076256738">
        <ele>117.2</ele>
        <time>2012-09-27T20:42:40Z</time>
      </trkpt>
      <trkpt lat="59.4034971813" lon="17.9075840157">
        <ele>117.6</ele>
        <time>2012-09-27T20:42:41Z</time>
      </trkpt>
      <trkpt lat="59.4034663359" lon="17.9075355683">
        <ele>118.2</ele>
        <time>2012-09-27T20:42:42Z</time>
      </trkpt>
      <trkpt lat="59.4034317187" lon="17.9074900546">
        <ele>118.6</ele>
        <time>2012-09-27T20:42:43Z</time>
      </trkpt>
      <trkpt lat="59.403389893" lon="17.9074473069">
        <ele>119.6</ele>
        <time>2012-09-27T20:42:44Z</time>
      </trkpt>
      <trkpt lat="59.4033417809" lon="17.9074017932">
        <ele>120</ele>
        <time>2012-09-27T20:42:45Z</time>
      </trkpt>
      <trkpt lat="59.4032886396" lon="17.9073630688">
        <ele>120.4</ele>
        <time>2012-09-27T20:42:46Z</time>
      </trkpt>
      <trkpt lat="59.4032346602" lon="17.9073357438">
        <ele>121</ele>
        <time>2012-09-27T20:42:47Z</time>
      </trkpt>
      <trkpt lat="59.4031747296" lon="17.907316214">
        <ele>121</ele>
        <time>2012-09-27T20:42:48Z</time>
      </trkpt>
      <trkpt lat="59.4027986338" lon="17.9072979415">
        <ele>121</ele>
        <time>2012-09-27T20:42:54Z</time>
      </trkpt>
      <trkpt lat="59.4026814548" lon="17.90735234">
        <ele>121</ele>
        <time>2012-09-27T20:42:56Z</time>
      </trkpt>
      <trkpt lat="59.402498897" lon="17.9074812536">
        <ele>121</ele>
        <time>2012-09-27T20:42:59Z</time>
      </trkpt>
      <trkpt lat="59.4021173529" lon="17.9078873567">
        <ele>121</ele>
        <time>2012-09-27T20:43:06Z</time>
      </trkpt>
      <trkpt lat="59.4018892814" lon="17.9081617801">
        <ele>120.4</ele>
        <time>2012-09-27T20:43:10Z</time>
      </trkpt>
      <trkpt lat="59.4018339609" lon="17.9082295058">
        <ele>120</ele>
        <time>2012-09-27T20:43:11Z</time>
      </trkpt>
      <trkpt lat="59.4017803167" lon="17.9082902746">
        <ele>119.6</ele>
        <time>2012-09-27T20:43:12Z</time>
      </trkpt>
      <trkpt lat="59.4017265887" lon="17.9083354531">
        <ele>119.2</ele>
        <time>2012-09-27T20:43:13Z</time>
      </trkpt>
      <trkpt lat="59.4016742857" lon="17.9083707409">
        <ele>118.8</ele>
        <time>2012-09-27T20:43:14Z</time>
      </trkpt>
      <trkpt lat="59.401498182" lon="17.9084398077">
        <ele>118.8</ele>
        <time>2012-09-27T20:43:17Z</time>
      </trkpt>
      <trkpt lat="59.4013679272" lon="17.9084662107">
        <ele>118.8</ele>
        <time>2012-09-27T20:43:19Z</time>
      </trkpt>
      <trkpt lat="59.4010970242" lon="17.9085428213">
        <ele>118.4</ele>
        <time>2012-09-27T20:43:24Z</time>
      </trkpt>
      <trkpt lat="59.4010533545" lon="17.9085545559">
        <ele>118</ele>
        <time>2012-09-27T20:43:25Z</time>
      </trkpt>
      <trkpt lat="59.4010041528" lon="17.9085693081">
        <ele>117.6</ele>
        <time>2012-09-27T20:43:26Z</time>
      </trkpt>
      <trkpt lat="59.4009454795" lon="17.9085718226">
        <ele>117</ele>
        <time>2012-09-27T20:43:27Z</time>
      </trkpt>
      <trkpt lat="59.4008804359" lon="17.9085662906">
        <ele>116.6</ele>
        <time>2012-09-27T20:43:28Z</time>
      </trkpt>
      <trkpt lat="59.4008244449" lon="17.9085740857">
        <ele>116.6</ele>
        <time>2012-09-27T20:43:29Z</time>
      </trkpt>
      <trkpt lat="59.4007666097" lon="17.9085842278">
        <ele>116.6</ele>
        <time>2012-09-27T20:43:30Z</time>
      </trkpt>
      <trkpt lat="59.4004651128" lon="17.9086361956">
        <ele>116.6</ele>
        <time>2012-09-27T20:43:35Z</time>
      </trkpt>
      <trkpt lat="59.4004113848" lon="17.9085890893">
        <ele>116.6</ele>
        <time>2012-09-27T20:43:36Z</time>
      </trkpt>
      <trkpt lat="59.4002310063" lon="17.9083143307">
        <ele>116.6</ele>
        <time>2012-09-27T20:43:40Z</time>
      </trkpt>
      <trkpt lat="59.400184403" lon="17.9082559088">
        <ele>116.6</ele>
        <time>2012-09-27T20:43:41Z</time>
      </trkpt>
      <trkpt lat="59.4000218779" lon="17.9081348742">
        <ele>116.6</ele>
        <time>2012-09-27T20:43:44Z</time>
      </trkpt>
      <trkpt lat="59.3997311936" lon="17.9079033661">
        <ele>116.6</ele>
        <time>2012-09-27T20:43:49Z</time>
      </trkpt>
      <trkpt lat="59.3996379031" lon="17.9077464569">
        <ele>116.6</ele>
        <time>2012-09-27T20:43:51Z</time>
      </trkpt>
      <trkpt lat="59.3995629689" lon="17.9075317127">
        <ele>116.6</ele>
        <time>2012-09-27T20:43:53Z</time>
      </trkpt>
      <trkpt lat="59.3994493103" lon="17.9071288786">
        <ele>116.6</ele>
        <time>2012-09-27T20:43:56Z</time>
      </trkpt>
      <trkpt lat="59.3994053892" lon="17.9069943491">
        <ele>116.6</ele>
        <time>2012-09-27T20:43:57Z</time>
      </trkpt>
      <trkpt lat="59.399184107" lon="17.9062691471">
        <ele>116.6</ele>
        <time>2012-09-27T20:44:03Z</time>
      </trkpt>
      <trkpt lat="59.3990108531" lon="17.9055715215">
        <ele>116.6</ele>
        <time>2012-09-27T20:44:09Z</time>
      </trkpt>
      <trkpt lat="59.398907169" lon="17.9051504149">
        <ele>116.2</ele>
        <time>2012-09-27T20:44:13Z</time>
      </trkpt>
      <trkpt lat="59.3988822748" lon="17.9050495806">
        <ele>115.8</ele>
        <time>2012-09-27T20:44:14Z</time>
      </trkpt>
      <trkpt lat="59.3988588055" lon="17.904948914">
        <ele>115.4</ele>
        <time>2012-09-27T20:44:15Z</time>
      </trkpt>
      <trkpt lat="59.398839108" lon="17.9048550367">
        <ele>115</ele>
        <time>2012-09-27T20:44:16Z</time>
      </trkpt>
      <trkpt lat="59.3988191591" lon="17.9047696252">
        <ele>114.6</ele>
        <time>2012-09-27T20:44:17Z</time>
      </trkpt>
      <trkpt lat="59.3988086817" lon="17.9046796874">
        <ele>114.6</ele>
        <time>2012-09-27T20:44:19Z</time>
      </trkpt>
      <trkpt lat="59.3987987073" lon="17.9046589841">
        <ele>114.6</ele>
        <time>2012-09-27T20:44:20Z</time>
      </trkpt>
      <trkpt lat="59.3987826978" lon="17.9046866443">
        <ele>114.6</ele>
        <time>2012-09-27T20:44:23Z</time>
      </trkpt>
      <trkpt lat="59.3988309776" lon="17.9047474969">
        <ele>114.6</ele>
        <time>2012-09-27T20:44:26Z</time>
      </trkpt>
      <trkpt lat="59.3988489148" lon="17.9047721397">
        <ele>114.6</ele>
        <time>2012-09-27T20:44:27Z</time>
      </trkpt>
      <trkpt lat="59.3988676065" lon="17.9047790967">
        <ele>114.6</ele>
        <time>2012-09-27T20:44:28Z</time>
      </trkpt>
      <trkpt lat="59.3989292973" lon="17.9047125444">
        <ele>114.6</ele>
        <time>2012-09-27T20:44:31Z</time>
      </trkpt>
      <trkpt lat="59.3989556164" lon="17.9046665278">
        <ele>114.6</ele>
        <time>2012-09-27T20:44:32Z</time>
      </trkpt>
      <trkpt lat="59.3990141221" lon="17.9045252928">
        <ele>114.6</ele>
        <time>2012-09-27T20:44:34Z</time>
      </trkpt>
      <trkpt lat="59.3990429558" lon="17.9044349359">
        <ele>114.6</ele>
        <time>2012-09-27T20:44:35Z</time>
      </trkpt>
      <trkpt lat="59.3991120227" lon="17.904052386">
        <ele>114.6</ele>
        <time>2012-09-27T20:44:39Z</time>
      </trkpt>
      <trkpt lat="59.3991240088" lon="17.9039507973">
        <ele>114.6</ele>
        <time>2012-09-27T20:44:40Z</time>
      </trkpt>
      <trkpt lat="59.3992479771" lon="17.9028718792">
        <ele>114.6</ele>
        <time>2012-09-27T20:44:50Z</time>
      </trkpt>
      <trkpt lat="59.3993117634" lon="17.9023131417">
        <ele>114.6</ele>
        <time>2012-09-27T20:44:55Z</time>
      </trkpt>
      <trkpt lat="59.3993359871" lon="17.902084232">
        <ele>114.6</ele>
        <time>2012-09-27T20:44:57Z</time>
      </trkpt>
      <trkpt lat="59.3994415152" lon="17.9010909769">
        <ele>114.6</ele>
        <time>2012-09-27T20:45:06Z</time>
      </trkpt>
      <trkpt lat="59.399461967" lon="17.9009907294">
        <ele>114.6</ele>
        <time>2012-09-27T20:45:07Z</time>
      </trkpt>
      <trkpt lat="59.3995943172" lon="17.90064221">
        <ele>115</ele>
        <time>2012-09-27T20:45:11Z</time>
      </trkpt>
      <trkpt lat="59.3996295212" lon="17.9005678625">
        <ele>115.4</ele>
        <time>2012-09-27T20:45:12Z</time>
      </trkpt>
      <trkpt lat="59.3996653957" lon="17.9004910843">
        <ele>115.8</ele>
        <time>2012-09-27T20:45:13Z</time>
      </trkpt>
      <trkpt lat="59.3997017732" lon="17.9004215984">
        <ele>116.2</ele>
        <time>2012-09-27T20:45:14Z</time>
      </trkpt>
      <trkpt lat="59.399737983" lon="17.9003509389">
        <ele>116.6</ele>
        <time>2012-09-27T20:45:15Z</time>
      </trkpt>
      <trkpt lat="59.3999259052" lon="17.8999632761">
        <ele>116.6</ele>
        <time>2012-09-27T20:45:20Z</time>
      </trkpt>
      <trkpt lat="59.3999920384" lon="17.8997915309">
        <ele>116.6</ele>
        <time>2012-09-27T20:45:22Z</time>
      </trkpt>
      <trkpt lat="59.4000404019" lon="17.8996108172">
        <ele>116.6</ele>
        <time>2012-09-27T20:45:24Z</time>
      </trkpt>
      <trkpt lat="59.4000564114" lon="17.8995123298">
        <ele>116.6</ele>
        <time>2012-09-27T20:45:25Z</time>
      </trkpt>
      <trkpt lat="59.400055657" lon="17.8991777244">
        <ele>116.6</ele>
        <time>2012-09-27T20:45:28Z</time>
      </trkpt>
      <trkpt lat="59.4000568305" lon="17.8989540953">
        <ele>116.6</ele>
        <time>2012-09-27T20:45:30Z</time>
      </trkpt>
      <trkpt lat="59.4001212034" lon="17.898377672">
        <ele>116.6</ele>
        <time>2012-09-27T20:45:36Z</time>
      </trkpt>
      <trkpt lat="59.4001675553" lon="17.8978336867">
        <ele>116.6</ele>
        <time>2012-09-27T20:45:42Z</time>
      </trkpt>
      <trkpt lat="59.4002124823" lon="17.8975160127">
        <ele>117</ele>
        <time>2012-09-27T20:45:45Z</time>
      </trkpt>
      <trkpt lat="59.4002331018" lon="17.8974197047">
        <ele>117.4</ele>
        <time>2012-09-27T20:45:46Z</time>
      </trkpt>
      <trkpt lat="59.4002580799" lon="17.8973227261">
        <ele>117.8</ele>
        <time>2012-09-27T20:45:47Z</time>
      </trkpt>
      <trkpt lat="59.4002824712" lon="17.897231531">
        <ele>118.2</ele>
        <time>2012-09-27T20:45:48Z</time>
      </trkpt>
      <trkpt lat="59.4003094609" lon="17.8971394978">
        <ele>118.6</ele>
        <time>2012-09-27T20:45:49Z</time>
      </trkpt>
      <trkpt lat="59.4003805394" lon="17.8968625598">
        <ele>118.6</ele>
        <time>2012-09-27T20:45:52Z</time>
      </trkpt>
      <trkpt lat="59.4004242091" lon="17.896665166">
        <ele>118.6</ele>
        <time>2012-09-27T20:45:54Z</time>
      </trkpt>
      <trkpt lat="59.4004825472" lon="17.8961948576">
        <ele>118.6</ele>
        <time>2012-09-27T20:45:59Z</time>
      </trkpt>
      <trkpt lat="59.4004878277" lon="17.8960999745">
        <ele>118.6</ele>
        <time>2012-09-27T20:46:00Z</time>
      </trkpt>
      <trkpt lat="59.4005084472" lon="17.8959119685">
        <ele>118.6</ele>
        <time>2012-09-27T20:46:02Z</time>
      </trkpt>
      <trkpt lat="59.4005420586" lon="17.8955481102">
        <ele>118.6</ele>
        <time>2012-09-27T20:46:06Z</time>
      </trkpt>
      <trkpt lat="59.400580783" lon="17.8948529154">
        <ele>118.6</ele>
        <time>2012-09-27T20:46:12Z</time>
      </trkpt>
      <trkpt lat="59.4005717306" lon="17.8941930085">
        <ele>118.6</ele>
        <time>2012-09-27T20:46:17Z</time>
      </trkpt>
      <trkpt lat="59.4005081119" lon="17.8934732547">
        <ele>118.6</ele>
        <time>2012-09-27T20:46:23Z</time>
      </trkpt>
      <trkpt lat="59.4004710639" lon="17.8931257411">
        <ele>119.6</ele>
        <time>2012-09-27T20:46:26Z</time>
      </trkpt>
      <trkpt lat="59.4004609218" lon="17.8930105738">
        <ele>120</ele>
        <time>2012-09-27T20:46:27Z</time>
      </trkpt>
      <trkpt lat="59.4004485166" lon="17.8928986755">
        <ele>120.4</ele>
        <time>2012-09-27T20:46:28Z</time>
      </trkpt>
      <trkpt lat="59.4004355247" lon="17.8927910519">
        <ele>120.8</ele>
        <time>2012-09-27T20:46:29Z</time>
      </trkpt>
      <trkpt lat="59.4004091217" lon="17.8925727034">
        <ele>120.8</ele>
        <time>2012-09-27T20:46:31Z</time>
      </trkpt>
      <trkpt lat="59.400374253" lon="17.892285288">
        <ele>120.4</ele>
        <time>2012-09-27T20:46:34Z</time>
      </trkpt>
      <trkpt lat="59.4003611772" lon="17.892185292">
        <ele>119.8</ele>
        <time>2012-09-27T20:46:35Z</time>
      </trkpt>
      <trkpt lat="59.4003505322" lon="17.8920897383">
        <ele>119.4</ele>
        <time>2012-09-27T20:46:36Z</time>
      </trkpt>
      <trkpt lat="59.4003405578" lon="17.8919881497">
        <ele>118.8</ele>
        <time>2012-09-27T20:46:37Z</time>
      </trkpt>
      <trkpt lat="59.4003249674" lon="17.8918873992">
        <ele>118.4</ele>
        <time>2012-09-27T20:46:38Z</time>
      </trkpt>
      <trkpt lat="59.4003094609" lon="17.891686988">
        <ele>118.4</ele>
        <time>2012-09-27T20:46:40Z</time>
      </trkpt>
      <trkpt lat="59.4002987321" lon="17.8914887561">
        <ele>118.4</ele>
        <time>2012-09-27T20:46:42Z</time>
      </trkpt>
      <trkpt lat="59.4003013305" lon="17.8913818868">
        <ele>118.8</ele>
        <time>2012-09-27T20:46:43Z</time>
      </trkpt>
      <trkpt lat="59.4003056052" lon="17.8912719163">
        <ele>119.2</ele>
        <time>2012-09-27T20:46:44Z</time>
      </trkpt>
      <trkpt lat="59.4003087904" lon="17.8911529771">
        <ele>119.6</ele>
        <time>2012-09-27T20:46:45Z</time>
      </trkpt>
      <trkpt lat="59.4003077007" lon="17.8909771249">
        <ele>120.6</ele>
        <time>2012-09-27T20:46:46Z</time>
      </trkpt>
      <trkpt lat="59.400306192" lon="17.89087101">
        <ele>120.6</ele>
        <time>2012-09-27T20:46:47Z</time>
      </trkpt>
      <trkpt lat="59.4003075331" lon="17.8907759593">
        <ele>121</ele>
        <time>2012-09-27T20:46:48Z</time>
      </trkpt>
      <trkpt lat="59.4003092933" lon="17.8906843451">
        <ele>121.4</ele>
        <time>2012-09-27T20:46:49Z</time>
      </trkpt>
      <trkpt lat="59.4003110535" lon="17.8905912222">
        <ele>122</ele>
        <time>2012-09-27T20:46:50Z</time>
      </trkpt>
      <trkpt lat="59.4003111373" lon="17.8905018712">
        <ele>122.4</ele>
        <time>2012-09-27T20:46:51Z</time>
      </trkpt>
      <trkpt lat="59.4003101315" lon="17.8904146994">
        <ele>123</ele>
        <time>2012-09-27T20:46:52Z</time>
      </trkpt>
      <trkpt lat="59.4003076169" lon="17.8903224985">
        <ele>123</ele>
        <time>2012-09-27T20:46:53Z</time>
      </trkpt>
      <trkpt lat="59.4003240454" lon="17.8899651781">
        <ele>123</ele>
        <time>2012-09-27T20:46:57Z</time>
      </trkpt>
      <trkpt lat="59.4003467604" lon="17.8898723066">
        <ele>123</ele>
        <time>2012-09-27T20:46:58Z</time>
      </trkpt>
      <trkpt lat="59.4005288152" lon="17.889549855">
        <ele>122</ele>
        <time>2012-09-27T20:47:02Z</time>
      </trkpt>
      <trkpt lat="59.4005901707" lon="17.8895023296">
        <ele>121.6</ele>
        <time>2012-09-27T20:47:03Z</time>
      </trkpt>
      <trkpt lat="59.4006532026" lon="17.8894667903">
        <ele>121</ele>
        <time>2012-09-27T20:47:04Z</time>
      </trkpt>
      <trkpt lat="59.4007147258" lon="17.8894448297">
        <ele>120.6</ele>
        <time>2012-09-27T20:47:05Z</time>
      </trkpt>
      <trkpt lat="59.4007734829" lon="17.8894078656">
        <ele>120.2</ele>
        <time>2012-09-27T20:47:06Z</time>
      </trkpt>
      <trkpt lat="59.4008286358" lon="17.8893589991">
        <ele>119.8</ele>
        <time>2012-09-27T20:47:07Z</time>
      </trkpt>
      <trkpt lat="59.4008875606" lon="17.8893172572">
        <ele>119.2</ele>
        <time>2012-09-27T20:47:08Z</time>
      </trkpt>
      <trkpt lat="59.4009539452" lon="17.8892924468">
        <ele>118.8</ele>
        <time>2012-09-27T20:47:09Z</time>
      </trkpt>
      <trkpt lat="59.4010234312" lon="17.8892824723">
        <ele>118.4</ele>
        <time>2012-09-27T20:47:10Z</time>
      </trkpt>
      <trkpt lat="59.4015392533" lon="17.8892681393">
        <ele>118.4</ele>
        <time>2012-09-27T20:47:17Z</time>
      </trkpt>
      <trkpt lat="59.4020611104" lon="17.8891437519">
        <ele>118.4</ele>
        <time>2012-09-27T20:47:24Z</time>
      </trkpt>
      <trkpt lat="59.4026334265" lon="17.8890041933">
        <ele>118.4</ele>
        <time>2012-09-27T20:47:32Z</time>
      </trkpt>
      <trkpt lat="59.4032077543" lon="17.8888611142">
        <ele>118.4</ele>
        <time>2012-09-27T20:47:40Z</time>
      </trkpt>
      <trkpt lat="59.4037116741" lon="17.8887720146">
        <ele>118.4</ele>
        <time>2012-09-27T20:47:47Z</time>
      </trkpt>
      <trkpt lat="59.4042611915" lon="17.8889485375">
        <ele>118.4</ele>
        <time>2012-09-27T20:47:54Z</time>
      </trkpt>
      <trkpt lat="59.4047609204" lon="17.8892409819">
        <ele>118.4</ele>
        <time>2012-09-27T20:48:01Z</time>
      </trkpt>
      <trkpt lat="59.4052764072" lon="17.8896302374">
        <ele>118.4</ele>
        <time>2012-09-27T20:48:09Z</time>
      </trkpt>
      <trkpt lat="59.4057402616" lon="17.8900293835">
        <ele>118.4</ele>
        <time>2012-09-27T20:48:16Z</time>
      </trkpt>
      <trkpt lat="59.4060085662" lon="17.8902908987">
        <ele>118.8</ele>
        <time>2012-09-27T20:48:20Z</time>
      </trkpt>
      <trkpt lat="59.4060753699" lon="17.8903546012">
        <ele>119.2</ele>
        <time>2012-09-27T20:48:21Z</time>
      </trkpt>
      <trkpt lat="59.4061422575" lon="17.8904132745">
        <ele>119.6</ele>
        <time>2012-09-27T20:48:22Z</time>
      </trkpt>
      <trkpt lat="59.4062079716" lon="17.8904692656">
        <ele>120</ele>
        <time>2012-09-27T20:48:23Z</time>
      </trkpt>
      <trkpt lat="59.4062727637" lon="17.890526933">
        <ele>120.4</ele>
        <time>2012-09-27T20:48:24Z</time>
      </trkpt>
      <trkpt lat="59.4067973868" lon="17.8910588484">
        <ele>120.4</ele>
        <time>2012-09-27T20:48:32Z</time>
      </trkpt>
      <trkpt lat="59.4073314815" lon="17.8916553882">
        <ele>120.4</ele>
        <time>2012-09-27T20:48:40Z</time>
      </trkpt>
      <trkpt lat="59.4074646699" lon="17.8918074359">
        <ele>120.4</ele>
        <time>2012-09-27T20:48:42Z</time>
      </trkpt>
      <trkpt lat="59.4079440307" lon="17.8923275328">
        <ele>120.4</ele>
        <time>2012-09-27T20:48:49Z</time>
      </trkpt>
      <trkpt lat="59.4080101639" lon="17.8924002039">
        <ele>120.4</ele>
        <time>2012-09-27T20:48:50Z</time>
      </trkpt>
      <trkpt lat="59.408525064" lon="17.8929584384">
        <ele>120.4</ele>
        <time>2012-09-27T20:48:58Z</time>
      </trkpt>
      <trkpt lat="59.4089734119" lon="17.8934741767">
        <ele>120.4</ele>
        <time>2012-09-27T20:49:06Z</time>
      </trkpt>
      <trkpt lat="59.409084472" lon="17.8935723288">
        <ele>120.4</ele>
        <time>2012-09-27T20:49:09Z</time>
      </trkpt>
      <trkpt lat="59.4090614218" lon="17.8937469237">
        <ele>120.4</ele>
        <time>2012-09-27T20:49:13Z</time>
      </trkpt>
      <trkpt lat="59.4090496871" lon="17.8937954549">
        <ele>120.4</ele>
        <time>2012-09-27T20:49:14Z</time>
      </trkpt>
      <trkpt lat="59.4089963783" lon="17.8940661903">
        <ele>120.4</ele>
        <time>2012-09-27T20:49:19Z</time>
      </trkpt>
      <trkpt lat="59.4088777744" lon="17.8942101075">
        <ele>120.4</ele>
        <time>2012-09-27T20:49:23Z</time>
      </trkpt>
      <trkpt lat="59.4088289917" lon="17.8942266199">
        <ele>120.4</ele>
        <time>2012-09-27T20:49:24Z</time>
      </trkpt>
      <trkpt lat="59.4087350306" lon="17.8943551144">
        <ele>120.4</ele>
        <time>2012-09-27T20:49:26Z</time>
      </trkpt>
      <trkpt lat="59.4086538938" lon="17.8946148695">
        <ele>120.4</ele>
        <time>2012-09-27T20:49:29Z</time>
      </trkpt>
      <trkpt lat="59.4086411533" lon="17.8947250077">
        <ele>120.4</ele>
        <time>2012-09-27T20:49:30Z</time>
      </trkpt>
      <trkpt lat="59.4086230484" lon="17.8948388339">
        <ele>120.4</ele>
        <time>2012-09-27T20:49:31Z</time>
      </trkpt>
      <trkpt lat="59.4085706616" lon="17.8951843358">
        <ele>120.4</ele>
        <time>2012-09-27T20:49:34Z</time>
      </trkpt>
      <trkpt lat="59.4084906144" lon="17.8959130582">
        <ele>120.4</ele>
        <time>2012-09-27T20:49:40Z</time>
      </trkpt>
      <trkpt lat="59.4084186977" lon="17.8965483224">
        <ele>120.4</ele>
        <time>2012-09-27T20:49:46Z</time>
      </trkpt>
      <trkpt lat="59.4083717591" lon="17.896664747">
        <ele>120.4</ele>
        <time>2012-09-27T20:49:48Z</time>
      </trkpt>
      <trkpt lat="59.408330101" lon="17.8966883001">
        <ele>120.4</ele>
        <time>2012-09-27T20:49:49Z</time>
      </trkpt>
      <trkpt lat="59.4081477947" lon="17.8966093426">
        <ele>120.4</ele>
        <time>2012-09-27T20:49:52Z</time>
      </trkpt>
      <trkpt lat="59.4077192282" lon="17.8963194127">
        <ele>120.4</ele>
        <time>2012-09-27T20:49:58Z</time>
      </trkpt>
      <trkpt lat="59.4075128658" lon="17.8962058379">
        <ele>120.4</ele>
        <time>2012-09-27T20:50:01Z</time>
      </trkpt>
      <trkpt lat="59.4073734748" lon="17.8961423869">
        <ele>120</ele>
        <time>2012-09-27T20:50:03Z</time>
      </trkpt>
      <trkpt lat="59.407303905" lon="17.8961025729">
        <ele>119.6</ele>
        <time>2012-09-27T20:50:04Z</time>
      </trkpt>
      <trkpt lat="59.407232575" lon="17.8960660278">
        <ele>119.2</ele>
        <time>2012-09-27T20:50:05Z</time>
      </trkpt>
      <trkpt lat="59.4071567188" lon="17.8960248727">
        <ele>118.8</ele>
        <time>2012-09-27T20:50:06Z</time>
      </trkpt>
      <trkpt lat="59.4070849698" lon="17.8959863998">
        <ele>118.4</ele>
        <time>2012-09-27T20:50:07Z</time>
      </trkpt>
      <trkpt lat="59.4068682138" lon="17.8958785247">
        <ele>118.4</ele>
        <time>2012-09-27T20:50:10Z</time>
      </trkpt>
      <trkpt lat="59.4063418305" lon="17.895630169">
        <ele>118.4</ele>
        <time>2012-09-27T20:50:17Z</time>
      </trkpt>
      <trkpt lat="59.4062675669" lon="17.8955878404">
        <ele>118.4</ele>
        <time>2012-09-27T20:50:18Z</time>
      </trkpt>
      <trkpt lat="59.4060602825" lon="17.8954073781">
        <ele>118</ele>
        <time>2012-09-27T20:50:21Z</time>
      </trkpt>
      <trkpt lat="59.4059993461" lon="17.8953343718">
        <ele>117.4</ele>
        <time>2012-09-27T20:50:22Z</time>
      </trkpt>
      <trkpt lat="59.405938745" lon="17.8952643829">
        <ele>117</ele>
        <time>2012-09-27T20:50:23Z</time>
      </trkpt>
      <trkpt lat="59.4058747072" lon="17.8952020216">
        <ele>116.6</ele>
        <time>2012-09-27T20:50:24Z</time>
      </trkpt>
      <trkpt lat="59.4058096637" lon="17.8951565079">
        <ele>116.2</ele>
        <time>2012-09-27T20:50:25Z</time>
      </trkpt>
      <trkpt lat="59.4057400939" lon="17.895143935">
        <ele>116.2</ele>
        <time>2012-09-27T20:50:26Z</time>
      </trkpt>
      <trkpt lat="59.4055905608" lon="17.8951933882">
        <ele>116.2</ele>
        <time>2012-09-27T20:50:28Z</time>
      </trkpt>
      <trkpt lat="59.4054504155" lon="17.895240243">
        <ele>116.2</ele>
        <time>2012-09-27T20:50:30Z</time>
      </trkpt>
      <trkpt lat="59.4052350845" lon="17.8953201226">
        <ele>116.2</ele>
        <time>2012-09-27T20:50:34Z</time>
      </trkpt>
      <trkpt lat="59.4051382735" lon="17.8953373893">
        <ele>116.2</ele>
        <time>2012-09-27T20:50:36Z</time>
      </trkpt>
      <trkpt lat="59.4050406244" lon="17.8953325278">
        <ele>116.6</ele>
        <time>2012-09-27T20:50:38Z</time>
      </trkpt>
      <trkpt lat="59.4049909197" lon="17.8953335336">
        <ele>117.2</ele>
        <time>2012-09-27T20:50:39Z</time>
      </trkpt>
      <trkpt lat="59.4049394548" lon="17.8953335336">
        <ele>117.6</ele>
        <time>2012-09-27T20:50:40Z</time>
      </trkpt>
      <trkpt lat="59.4048867327" lon="17.895331941">
        <ele>118.2</ele>
        <time>2012-09-27T20:50:41Z</time>
      </trkpt>
      <trkpt lat="59.4048298196" lon="17.8953316058">
        <ele>118.6</ele>
        <time>2012-09-27T20:50:42Z</time>
      </trkpt>
      <trkpt lat="59.4047706434" lon="17.8953368025">
        <ele>119.6</ele>
        <time>2012-09-27T20:50:43Z</time>
      </trkpt>
      <trkpt lat="59.4047110481" lon="17.8953425022">
        <ele>120</ele>
        <time>2012-09-27T20:50:44Z</time>
      </trkpt>
      <trkpt lat="59.404647178" lon="17.8953393171">
        <ele>120.4</ele>
        <time>2012-09-27T20:50:45Z</time>
      </trkpt>
      <trkpt lat="59.4045790331" lon="17.895330097">
        <ele>120.8</ele>
        <time>2012-09-27T20:50:46Z</time>
      </trkpt>
      <trkpt lat="59.4044303382" lon="17.8952888581">
        <ele>120.4</ele>
        <time>2012-09-27T20:50:48Z</time>
      </trkpt>
      <trkpt lat="59.4043538953" lon="17.8952617845">
        <ele>119.8</ele>
        <time>2012-09-27T20:50:49Z</time>
      </trkpt>
      <trkpt lat="59.4042808051" lon="17.8952303524">
        <ele>119.4</ele>
        <time>2012-09-27T20:50:50Z</time>
      </trkpt>
      <trkpt lat="59.404205871" lon="17.8951923824">
        <ele>119</ele>
        <time>2012-09-27T20:50:51Z</time>
      </trkpt>
      <trkpt lat="59.404136385" lon="17.8951572622">
        <ele>118.6</ele>
        <time>2012-09-27T20:50:52Z</time>
      </trkpt>
      <trkpt lat="59.4040706709" lon="17.8951187055">
        <ele>118</ele>
        <time>2012-09-27T20:50:53Z</time>
      </trkpt>
      <trkpt lat="59.4040102374" lon="17.8950860161">
        <ele>117.6</ele>
        <time>2012-09-27T20:50:54Z</time>
      </trkpt>
      <trkpt lat="59.4039516479" lon="17.8950570147">
        <ele>117</ele>
        <time>2012-09-27T20:50:55Z</time>
      </trkpt>
      <trkpt lat="59.4038938966" lon="17.8950256664">
        <ele>116.6</ele>
        <time>2012-09-27T20:50:56Z</time>
      </trkpt>
      <trkpt lat="59.4038378217" lon="17.8949885346">
        <ele>116.2</ele>
        <time>2012-09-27T20:50:57Z</time>
      </trkpt>
      <trkpt lat="59.4037863569" lon="17.8949360639">
        <ele>116.2</ele>
        <time>2012-09-27T20:50:58Z</time>
      </trkpt>
      <trkpt lat="59.4037502309" lon="17.8947891292">
        <ele>116.2</ele>
        <time>2012-09-27T20:51:00Z</time>
      </trkpt>
      <trkpt lat="59.4037836746" lon="17.8945580402">
        <ele>116.2</ele>
        <time>2012-09-27T20:51:03Z</time>
      </trkpt>
      <trkpt lat="59.4038875264" lon="17.8938738257">
        <ele>116.2</ele>
        <time>2012-09-27T20:51:09Z</time>
      </trkpt>
      <trkpt lat="59.4039870195" lon="17.8929145173">
        <ele>116.2</ele>
        <time>2012-09-27T20:51:17Z</time>
      </trkpt>
      <trkpt lat="59.4040043701" lon="17.8928063907">
        <ele>116.2</ele>
        <time>2012-09-27T20:51:18Z</time>
      </trkpt>
      <trkpt lat="59.404095649" lon="17.8925748827">
        <ele>116.2</ele>
        <time>2012-09-27T20:51:21Z</time>
      </trkpt>
      <trkpt lat="59.4041205432" lon="17.8925411874">
        <ele>116.2</ele>
        <time>2012-09-27T20:51:23Z</time>
      </trkpt>
      <trkpt lat="59.4041250694" lon="17.8925306262">
        <ele>116.2</ele>
        <time>2012-09-27T20:51:24Z</time>
      </trkpt>
      <trkpt lat="59.404122052" lon="17.8925202327">
        <ele>116.2</ele>
        <time>2012-09-27T20:51:27Z</time>
      </trkpt>
      <trkpt lat="59.4041041985" lon="17.8925520001">
        <ele>116.2</ele>
        <time>2012-09-27T20:51:29Z</time>
      </trkpt>
      <trkpt lat="59.4040618699" lon="17.89260204">
        <ele>116.2</ele>
        <time>2012-09-27T20:51:33Z</time>
      </trkpt>
      <trkpt lat="59.404040999" lon="17.8925912274">
        <ele>116.2</ele>
        <time>2012-09-27T20:51:34Z</time>
      </trkpt>
      <trkpt lat="59.4039233171" lon="17.8924168">
        <ele>116.2</ele>
        <time>2012-09-27T20:51:38Z</time>
      </trkpt>
      <trkpt lat="59.4038922203" lon="17.8922953463">
        <ele>116.2</ele>
        <time>2012-09-27T20:51:40Z</time>
      </trkpt>
      <trkpt lat="59.4038924717" lon="17.8922298837">
        <ele>116.2</ele>
        <time>2012-09-27T20:51:41Z</time>
      </trkpt>
      <trkpt lat="59.4039531567" lon="17.8919480004">
        <ele>116.2</ele>
        <time>2012-09-27T20:51:45Z</time>
      </trkpt>
      <trkpt lat="59.4039394103" lon="17.8916640216">
        <ele>116.2</ele>
        <time>2012-09-27T20:51:49Z</time>
      </trkpt>
      <trkpt lat="59.4037690901" lon="17.8911128278">
        <ele>116.2</ele>
        <time>2012-09-27T20:51:56Z</time>
      </trkpt>
      <trkpt lat="59.4036721116" lon="17.8908610356">
        <ele>116.2</ele>
        <time>2012-09-27T20:51:59Z</time>
      </trkpt>
      <trkpt lat="59.4036111751" lon="17.8907633026">
        <ele>116.2</ele>
        <time>2012-09-27T20:52:01Z</time>
      </trkpt>
      <trkpt lat="59.4033805053" lon="17.8903467222">
        <ele>116.2</ele>
        <time>2012-09-27T20:52:08Z</time>
      </trkpt>
      <trkpt lat="59.4033128633" lon="17.8901966862">
        <ele>116.2</ele>
        <time>2012-09-27T20:52:10Z</time>
      </trkpt>
      <trkpt lat="59.403234744" lon="17.8899231848">
        <ele>116.6</ele>
        <time>2012-09-27T20:52:13Z</time>
      </trkpt>
      <trkpt lat="59.4032173935" lon="17.8898340014">
        <ele>117</ele>
        <time>2012-09-27T20:52:14Z</time>
      </trkpt>
      <trkpt lat="59.4032020546" lon="17.8897484222">
        <ele>117.4</ele>
        <time>2012-09-27T20:52:15Z</time>
      </trkpt>
      <trkpt lat="59.4031882245" lon="17.8896654414">
        <ele>117.8</ele>
        <time>2012-09-27T20:52:16Z</time>
      </trkpt>
      <trkpt lat="59.4031751487" lon="17.8895859809">
        <ele>118.2</ele>
        <time>2012-09-27T20:52:17Z</time>
      </trkpt>
      <trkpt lat="59.4031539425" lon="17.8894152416">
        <ele>118.6</ele>
        <time>2012-09-27T20:52:19Z</time>
      </trkpt>
      <trkpt lat="59.4031434651" lon="17.8893395531">
        <ele>119</ele>
        <time>2012-09-27T20:52:20Z</time>
      </trkpt>
      <trkpt lat="59.4031367596" lon="17.8892681393">
        <ele>120</ele>
        <time>2012-09-27T20:52:21Z</time>
      </trkpt>
      <trkpt lat="59.4031273719" lon="17.8891880922">
        <ele>120.4</ele>
        <time>2012-09-27T20:52:22Z</time>
      </trkpt>
      <trkpt lat="59.4031054113" lon="17.8889960628">
        <ele>120.4</ele>
        <time>2012-09-27T20:52:24Z</time>
      </trkpt>
      <trkpt lat="59.4030800141" lon="17.8886410894">
        <ele>120.8</ele>
        <time>2012-09-27T20:52:28Z</time>
      </trkpt>
      <trkpt lat="59.4030774996" lon="17.8885527441">
        <ele>121.2</ele>
        <time>2012-09-27T20:52:29Z</time>
      </trkpt>
      <trkpt lat="59.4030728895" lon="17.8884602918">
        <ele>121.6</ele>
        <time>2012-09-27T20:52:30Z</time>
      </trkpt>
      <trkpt lat="59.4030693691" lon="17.8883732038">
        <ele>122</ele>
        <time>2012-09-27T20:52:31Z</time>
      </trkpt>
      <trkpt lat="59.4030676089" lon="17.888305981">
        <ele>122.4</ele>
        <time>2012-09-27T20:52:32Z</time>
      </trkpt>
      <trkpt lat="59.4030668546" lon="17.8880690247">
        <ele>122.4</ele>
        <time>2012-09-27T20:52:37Z</time>
      </trkpt>
      <trkpt lat="59.403069872" lon="17.8876836249">
        <ele>122.4</ele>
        <time>2012-09-27T20:52:43Z</time>
      </trkpt>
      <trkpt lat="59.4030855462" lon="17.8876183299">
        <ele>122.4</ele>
        <time>2012-09-27T20:52:44Z</time>
      </trkpt>
      <trkpt lat="59.4031457282" lon="17.8874402984">
        <ele>122.8</ele>
        <time>2012-09-27T20:52:47Z</time>
      </trkpt>
      <trkpt lat="59.4031634979" lon="17.8873836367">
        <ele>123.4</ele>
        <time>2012-09-27T20:52:48Z</time>
      </trkpt>
      <trkpt lat="59.403179172" lon="17.8873226165">
        <ele>123.8</ele>
        <time>2012-09-27T20:52:49Z</time>
      </trkpt>
      <trkpt lat="59.4031926669" lon="17.8872575729">
        <ele>124.2</ele>
        <time>2012-09-27T20:52:50Z</time>
      </trkpt>
      <trkpt lat="59.4032078381" lon="17.8871915236">
        <ele>124.6</ele>
        <time>2012-09-27T20:52:51Z</time>
      </trkpt>
      <trkpt lat="59.4032318942" lon="17.8870429963">
        <ele>124.6</ele>
        <time>2012-09-27T20:52:53Z</time>
      </trkpt>
      <trkpt lat="59.403240779" lon="17.8868718379">
        <ele>125</ele>
        <time>2012-09-27T20:52:55Z</time>
      </trkpt>
      <trkpt lat="59.4032481551" lon="17.8867861749">
        <ele>125.6</ele>
        <time>2012-09-27T20:52:56Z</time>
      </trkpt>
      <trkpt lat="59.403257459" lon="17.8866980811">
        <ele>126</ele>
        <time>2012-09-27T20:52:57Z</time>
      </trkpt>
      <trkpt lat="59.4032691936" lon="17.8866090653">
        <ele>126.4</ele>
        <time>2012-09-27T20:52:58Z</time>
      </trkpt>
      <trkpt lat="59.4032813474" lon="17.8865324548">
        <ele>126.8</ele>
        <time>2012-09-27T20:52:59Z</time>
      </trkpt>
      <trkpt lat="59.4033577903" lon="17.8859287065">
        <ele>126.8</ele>
        <time>2012-09-27T20:53:04Z</time>
      </trkpt>
      <trkpt lat="59.4034594628" lon="17.8852723199">
        <ele>126.8</ele>
        <time>2012-09-27T20:53:11Z</time>
      </trkpt>
      <trkpt lat="59.4034652463" lon="17.8848212899">
        <ele>126.8</ele>
        <time>2012-09-27T20:53:16Z</time>
      </trkpt>
      <trkpt lat="59.403463067" lon="17.8847181087">
        <ele>126.8</ele>
        <time>2012-09-27T20:53:17Z</time>
      </trkpt>
      <trkpt lat="59.4034531763" lon="17.8845248221">
        <ele>126.8</ele>
        <time>2012-09-27T20:53:19Z</time>
      </trkpt>
      <trkpt lat="59.4033955089" lon="17.8842190504">
        <ele>126.8</ele>
        <time>2012-09-27T20:53:22Z</time>
      </trkpt>
      <trkpt lat="59.403362568" lon="17.8839601335">
        <ele>126.4</ele>
        <time>2012-09-27T20:53:24Z</time>
      </trkpt>
      <trkpt lat="59.403356533" lon="17.8837992848">
        <ele>125.8</ele>
        <time>2012-09-27T20:53:25Z</time>
      </trkpt>
      <trkpt lat="59.4033472291" lon="17.8836780825">
        <ele>125.4</ele>
        <time>2012-09-27T20:53:26Z</time>
      </trkpt>
      <trkpt lat="59.4033467262" lon="17.883551432">
        <ele>125</ele>
        <time>2012-09-27T20:53:27Z</time>
      </trkpt>
      <trkpt lat="59.4033483188" lon="17.8834387793">
        <ele>124.4</ele>
        <time>2012-09-27T20:53:28Z</time>
      </trkpt>
      <trkpt lat="59.4033439602" lon="17.8833402082">
        <ele>124.4</ele>
        <time>2012-09-27T20:53:29Z</time>
      </trkpt>
      <trkpt lat="59.4033056549" lon="17.8830568999">
        <ele>124.4</ele>
        <time>2012-09-27T20:53:32Z</time>
      </trkpt>
      <trkpt lat="59.403258381" lon="17.8826036906">
        <ele>124.4</ele>
        <time>2012-09-27T20:53:36Z</time>
      </trkpt>
      <trkpt lat="59.4032547768" lon="17.8820829232">
        <ele>124.4</ele>
        <time>2012-09-27T20:53:40Z</time>
      </trkpt>
      <trkpt lat="59.403231056" lon="17.8818598808">
        <ele>124.8</ele>
        <time>2012-09-27T20:53:42Z</time>
      </trkpt>
      <trkpt lat="59.4032190699" lon="17.8817572863">
        <ele>125.2</ele>
        <time>2012-09-27T20:53:43Z</time>
      </trkpt>
      <trkpt lat="59.4032033119" lon="17.8816655045">
        <ele>125.6</ele>
        <time>2012-09-27T20:53:44Z</time>
      </trkpt>
      <trkpt lat="59.403184285" lon="17.8815810988">
        <ele>126</ele>
        <time>2012-09-27T20:53:45Z</time>
      </trkpt>
      <trkpt lat="59.4031645037" lon="17.8814987885">
        <ele>126.4</ele>
        <time>2012-09-27T20:53:46Z</time>
      </trkpt>
      <trkpt lat="59.403141202" lon="17.8814215912">
        <ele>126.4</ele>
        <time>2012-09-27T20:53:47Z</time>
      </trkpt>
      <trkpt lat="59.402963841" lon="17.8810184219">
        <ele>126.4</ele>
        <time>2012-09-27T20:53:52Z</time>
      </trkpt>
      <trkpt lat="59.4029390306" lon="17.8807041006">
        <ele>126.4</ele>
        <time>2012-09-27T20:53:55Z</time>
      </trkpt>
      <trkpt lat="59.4030110311" lon="17.8803984965">
        <ele>126.4</ele>
        <time>2012-09-27T20:53:58Z</time>
      </trkpt>
      <trkpt lat="59.4030402001" lon="17.8802970755">
        <ele>126.4</ele>
        <time>2012-09-27T20:53:59Z</time>
      </trkpt>
      <trkpt lat="59.4031336583" lon="17.8799085745">
        <ele>126.4</ele>
        <time>2012-09-27T20:54:03Z</time>
      </trkpt>
      <trkpt lat="59.4031558703" lon="17.879672624">
        <ele>126.4</ele>
        <time>2012-09-27T20:54:05Z</time>
      </trkpt>
      <trkpt lat="59.4031539425" lon="17.8794069178">
        <ele>126.4</ele>
        <time>2012-09-27T20:54:07Z</time>
      </trkpt>
      <trkpt lat="59.4031341612" lon="17.8791415468">
        <ele>126.4</ele>
        <time>2012-09-27T20:54:09Z</time>
      </trkpt>
      <trkpt lat="59.4031401124" lon="17.8789047581">
        <ele>126</ele>
        <time>2012-09-27T20:54:11Z</time>
      </trkpt>
      <trkpt lat="59.4031491648" lon="17.878783472">
        <ele>125.6</ele>
        <time>2012-09-27T20:54:12Z</time>
      </trkpt>
      <trkpt lat="59.4031593907" lon="17.8786671313">
        <ele>125.2</ele>
        <time>2012-09-27T20:54:13Z</time>
      </trkpt>
      <trkpt lat="59.4031711254" lon="17.8785342782">
        <ele>124.8</ele>
        <time>2012-09-27T20:54:14Z</time>
      </trkpt>
      <trkpt lat="59.403187973" lon="17.8784033529">
        <ele>124.4</ele>
        <time>2012-09-27T20:54:15Z</time>
      </trkpt>
      <trkpt lat="59.4032194051" lon="17.8781399936">
        <ele>124.4</ele>
        <time>2012-09-27T20:54:17Z</time>
      </trkpt>
      <trkpt lat="59.4032325647" lon="17.8780047935">
        <ele>124.4</ele>
        <time>2012-09-27T20:54:18Z</time>
      </trkpt>
      <trkpt lat="59.4032427068" lon="17.8778674142">
        <ele>124.4</ele>
        <time>2012-09-27T20:54:19Z</time>
      </trkpt>
      <trkpt lat="59.4032704509" lon="17.8773685235">
        <ele>124.4</ele>
        <time>2012-09-27T20:54:23Z</time>
      </trkpt>
      <trkpt lat="59.4032763182" lon="17.8772617381">
        <ele>124.4</ele>
        <time>2012-09-27T20:54:24Z</time>
      </trkpt>
      <trkpt lat="59.403326442" lon="17.8770859697">
        <ele>124.4</ele>
        <time>2012-09-27T20:54:26Z</time>
      </trkpt>
      <trkpt lat="59.403414871" lon="17.876904753">
        <ele>124.4</ele>
        <time>2012-09-27T20:54:28Z</time>
      </trkpt>
      <trkpt lat="59.4035509931" lon="17.8766115541">
        <ele>124.4</ele>
        <time>2012-09-27T20:54:31Z</time>
      </trkpt>
      <trkpt lat="59.4038546693" lon="17.8759494678">
        <ele>124.4</ele>
        <time>2012-09-27T20:54:37Z</time>
      </trkpt>
      <trkpt lat="59.4042411587" lon="17.8750930891">
        <ele>124.4</ele>
        <time>2012-09-27T20:54:45Z</time>
      </trkpt>
      <trkpt lat="59.4045339385" lon="17.8745449967">
        <ele>124.4</ele>
        <time>2012-09-27T20:54:51Z</time>
      </trkpt>
      <trkpt lat="59.4048362736" lon="17.8738848382">
        <ele>124.4</ele>
        <time>2012-09-27T20:54:57Z</time>
      </trkpt>
      <trkpt lat="59.4050388642" lon="17.8733551021">
        <ele>124</ele>
        <time>2012-09-27T20:55:01Z</time>
      </trkpt>
      <trkpt lat="59.4050842941" lon="17.8732126098">
        <ele>123.4</ele>
        <time>2012-09-27T20:55:02Z</time>
      </trkpt>
      <trkpt lat="59.4051328253" lon="17.8730780804">
        <ele>123</ele>
        <time>2012-09-27T20:55:03Z</time>
      </trkpt>
      <trkpt lat="59.4051815241" lon="17.8729475742">
        <ele>122.6</ele>
        <time>2012-09-27T20:55:04Z</time>
      </trkpt>
      <trkpt lat="59.4052290495" lon="17.8728260366">
        <ele>122.2</ele>
        <time>2012-09-27T20:55:05Z</time>
      </trkpt>
      <trkpt lat="59.4053838632" lon="17.8723379586">
        <ele>122.2</ele>
        <time>2012-09-27T20:55:09Z</time>
      </trkpt>
      <trkpt lat="59.4055782394" lon="17.871733875">
        <ele>122.2</ele>
        <time>2012-09-27T20:55:15Z</time>
      </trkpt>
      <trkpt lat="59.4057505713" lon="17.8711297077">
        <ele>122.2</ele>
        <time>2012-09-27T20:55:21Z</time>
      </trkpt>
      <trkpt lat="59.40597068" lon="17.8705165717">
        <ele>122.2</ele>
        <time>2012-09-27T20:55:27Z</time>
      </trkpt>
      <trkpt lat="59.4061717618" lon="17.8699411543">
        <ele>121.6</ele>
        <time>2012-09-27T20:55:32Z</time>
      </trkpt>
      <trkpt lat="59.4062128331" lon="17.8698223828">
        <ele>121.2</ele>
        <time>2012-09-27T20:55:33Z</time>
      </trkpt>
      <trkpt lat="59.4062535691" lon="17.8696946426">
        <ele>120.6</ele>
        <time>2012-09-27T20:55:34Z</time>
      </trkpt>
      <trkpt lat="59.4062973226" lon="17.8695579338">
        <ele>120</ele>
        <time>2012-09-27T20:55:35Z</time>
      </trkpt>
      <trkpt lat="59.4063396512" lon="17.8694282658">
        <ele>119.6</ele>
        <time>2012-09-27T20:55:36Z</time>
      </trkpt>
      <trkpt lat="59.4063711672" lon="17.8692933172">
        <ele>119.2</ele>
        <time>2012-09-27T20:55:37Z</time>
      </trkpt>
      <trkpt lat="59.4063956423" lon="17.8691529204">
        <ele>118.6</ele>
        <time>2012-09-27T20:55:38Z</time>
      </trkpt>
      <trkpt lat="59.4064125738" lon="17.869010009">
        <ele>117.6</ele>
        <time>2012-09-27T20:55:39Z</time>
      </trkpt>
      <trkpt lat="59.4064224644" lon="17.8688760662">
        <ele>117</ele>
        <time>2012-09-27T20:55:40Z</time>
      </trkpt>
      <trkpt lat="59.4064429162" lon="17.8687565404">
        <ele>116.4</ele>
        <time>2012-09-27T20:55:41Z</time>
      </trkpt>
      <trkpt lat="59.4064787908" lon="17.8686610705">
        <ele>116</ele>
        <time>2012-09-27T20:55:42Z</time>
      </trkpt>
      <trkpt lat="59.4065224605" lon="17.868578425">
        <ele>115.4</ele>
        <time>2012-09-27T20:55:43Z</time>
      </trkpt>
      <trkpt lat="59.4065728357" lon="17.8685096096">
        <ele>114.8</ele>
        <time>2012-09-27T20:55:44Z</time>
      </trkpt>
      <trkpt lat="59.4066274857" lon="17.8684376929">
        <ele>114.8</ele>
        <time>2012-09-27T20:55:45Z</time>
      </trkpt>
      <trkpt lat="59.4067901784" lon="17.8681957074">
        <ele>114.8</ele>
        <time>2012-09-27T20:55:48Z</time>
      </trkpt>
      <trkpt lat="59.4070185013" lon="17.8677723377">
        <ele>114.2</ele>
        <time>2012-09-27T20:55:53Z</time>
      </trkpt>
      <trkpt lat="59.4070651885" lon="17.8676849144">
        <ele>113.6</ele>
        <time>2012-09-27T20:55:54Z</time>
      </trkpt>
      <trkpt lat="59.4071123786" lon="17.8675935517">
        <ele>113</ele>
        <time>2012-09-27T20:55:55Z</time>
      </trkpt>
      <trkpt lat="59.407163592" lon="17.8675016861">
        <ele>112.4</ele>
        <time>2012-09-27T20:55:56Z</time>
      </trkpt>
      <trkpt lat="59.4072144701" lon="17.8674151011">
        <ele>111.8</ele>
        <time>2012-09-27T20:55:57Z</time>
      </trkpt>
      <trkpt lat="59.4073737262" lon="17.8671747082">
        <ele>111.8</ele>
        <time>2012-09-27T20:56:00Z</time>
      </trkpt>
      <trkpt lat="59.4075318927" lon="17.866924257">
        <ele>112.4</ele>
        <time>2012-09-27T20:56:03Z</time>
      </trkpt>
      <trkpt lat="59.4075879676" lon="17.8668416953">
        <ele>113.2</ele>
        <time>2012-09-27T20:56:04Z</time>
      </trkpt>
      <trkpt lat="59.4076399354" lon="17.8667639951">
        <ele>113.6</ele>
        <time>2012-09-27T20:56:05Z</time>
      </trkpt>
      <trkpt lat="59.4076890533" lon="17.8666872169">
        <ele>114</ele>
        <time>2012-09-27T20:56:06Z</time>
      </trkpt>
      <trkpt lat="59.4077393447" lon="17.8666077565">
        <ele>114</ele>
        <time>2012-09-27T20:56:07Z</time>
      </trkpt>
      <trkpt lat="59.4080764647" lon="17.8660434031">
        <ele>114</ele>
        <time>2012-09-27T20:56:14Z</time>
      </trkpt>
      <trkpt lat="59.4081222299" lon="17.865950364">
        <ele>114</ele>
        <time>2012-09-27T20:56:15Z</time>
      </trkpt>
      <trkpt lat="59.4082362237" lon="17.8657449237">
        <ele>114</ele>
        <time>2012-09-27T20:56:18Z</time>
      </trkpt>
      <trkpt lat="59.4084924584" lon="17.8653357193">
        <ele>114</ele>
        <time>2012-09-27T20:56:24Z</time>
      </trkpt>
      <trkpt lat="59.4087796223" lon="17.8648274409">
        <ele>114</ele>
        <time>2012-09-27T20:56:30Z</time>
      </trkpt>
      <trkpt lat="59.4088312548" lon="17.8647430352">
        <ele>114</ele>
        <time>2012-09-27T20:56:31Z</time>
      </trkpt>
      <trkpt lat="59.4091447379" lon="17.8642279674">
        <ele>114</ele>
        <time>2012-09-27T20:56:37Z</time>
      </trkpt>
      <trkpt lat="59.4095530202" lon="17.8635481115">
        <ele>114</ele>
        <time>2012-09-27T20:56:45Z</time>
      </trkpt>
      <trkpt lat="59.4098937445" lon="17.8629951576">
        <ele>114</ele>
        <time>2012-09-27T20:56:52Z</time>
      </trkpt>
      <trkpt lat="59.4101182118" lon="17.8626306287">
        <ele>114</ele>
        <time>2012-09-27T20:56:57Z</time>
      </trkpt>
      <trkpt lat="59.4103154379" lon="17.8623148826">
        <ele>114</ele>
        <time>2012-09-27T20:57:02Z</time>
      </trkpt>
      <trkpt lat="59.4103868516" lon="17.8621947699">
        <ele>114.4</ele>
        <time>2012-09-27T20:57:04Z</time>
      </trkpt>
      <trkpt lat="59.4104236482" lon="17.862129894">
        <ele>114.8</ele>
        <time>2012-09-27T20:57:05Z</time>
      </trkpt>
      <trkpt lat="59.4104578463" lon="17.8620682871">
        <ele>115.2</ele>
        <time>2012-09-27T20:57:06Z</time>
      </trkpt>
      <trkpt lat="59.4104939723" lon="17.8620091108">
        <ele>115.6</ele>
        <time>2012-09-27T20:57:07Z</time>
      </trkpt>
      <trkpt lat="59.4105299307" lon="17.8619541256">
        <ele>116</ele>
        <time>2012-09-27T20:57:08Z</time>
      </trkpt>
      <trkpt lat="59.410565889" lon="17.8618956199">
        <ele>116</ele>
        <time>2012-09-27T20:57:09Z</time>
      </trkpt>
      <trkpt lat="59.4107004185" lon="17.8616756789">
        <ele>116</ele>
        <time>2012-09-27T20:57:13Z</time>
      </trkpt>
      <trkpt lat="59.4107927871" lon="17.8615300014">
        <ele>116.4</ele>
        <time>2012-09-27T20:57:16Z</time>
      </trkpt>
      <trkpt lat="59.410822459" lon="17.8614775308">
        <ele>116.8</ele>
        <time>2012-09-27T20:57:17Z</time>
      </trkpt>
      <trkpt lat="59.4108491134" lon="17.8614243895">
        <ele>117.2</ele>
        <time>2012-09-27T20:57:18Z</time>
      </trkpt>
      <trkpt lat="59.4108754326" lon="17.8613699072">
        <ele>118</ele>
        <time>2012-09-27T20:57:19Z</time>
      </trkpt>
      <trkpt lat="59.4109719083" lon="17.861111577">
        <ele>118</ele>
        <time>2012-09-27T20:57:23Z</time>
      </trkpt>
      <trkpt lat="59.4110563978" lon="17.8609205535">
        <ele>118.4</ele>
        <time>2012-09-27T20:57:26Z</time>
      </trkpt>
      <trkpt lat="59.4110885843" lon="17.8608789793">
        <ele>119</ele>
        <time>2012-09-27T20:57:27Z</time>
      </trkpt>
      <trkpt lat="59.4111203517" lon="17.8608444458">
        <ele>119.4</ele>
        <time>2012-09-27T20:57:28Z</time>
      </trkpt>
      <trkpt lat="59.4111572321" lon="17.8608180429">
        <ele>119.8</ele>
        <time>2012-09-27T20:57:29Z</time>
      </trkpt>
      <trkpt lat="59.4111940286" lon="17.8607897959">
        <ele>120.2</ele>
        <time>2012-09-27T20:57:30Z</time>
      </trkpt>
      <trkpt lat="59.4113086092" lon="17.8606550987">
        <ele>120.2</ele>
        <time>2012-09-27T20:57:33Z</time>
      </trkpt>
      <trkpt lat="59.4113478365" lon="17.8606053102">
        <ele>120.2</ele>
        <time>2012-09-27T20:57:34Z</time>
      </trkpt>
      <trkpt lat="59.4114197532" lon="17.8604979381">
        <ele>120.6</ele>
        <time>2012-09-27T20:57:36Z</time>
      </trkpt>
      <trkpt lat="59.4114573041" lon="17.8604398515">
        <ele>121</ele>
        <time>2012-09-27T20:57:37Z</time>
      </trkpt>
      <trkpt lat="59.4114907479" lon="17.8603788313">
        <ele>121.4</ele>
        <time>2012-09-27T20:57:38Z</time>
      </trkpt>
      <trkpt lat="59.4115218447" lon="17.8603161347">
        <ele>121.8</ele>
        <time>2012-09-27T20:57:39Z</time>
      </trkpt>
      <trkpt lat="59.4115550371" lon="17.8602572099">
        <ele>122.2</ele>
        <time>2012-09-27T20:57:40Z</time>
      </trkpt>
      <trkpt lat="59.4116874711" lon="17.8600216785">
        <ele>122.6</ele>
        <time>2012-09-27T20:57:44Z</time>
      </trkpt>
      <trkpt lat="59.4117209987" lon="17.859960323">
        <ele>123</ele>
        <time>2012-09-27T20:57:45Z</time>
      </trkpt>
      <trkpt lat="59.4117535204" lon="17.8599048349">
        <ele>123.4</ele>
        <time>2012-09-27T20:57:46Z</time>
      </trkpt>
      <trkpt lat="59.411786126" lon="17.8598471674">
        <ele>123.8</ele>
        <time>2012-09-27T20:57:47Z</time>
      </trkpt>
      <trkpt lat="59.4118199051" lon="17.8597954511">
        <ele>124.2</ele>
        <time>2012-09-27T20:57:48Z</time>
      </trkpt>
      <trkpt lat="59.4119216614" lon="17.8596576526">
        <ele>124.2</ele>
        <time>2012-09-27T20:57:51Z</time>
      </trkpt>
      <trkpt lat="59.4120567776" lon="17.8594628573">
        <ele>124.6</ele>
        <time>2012-09-27T20:57:55Z</time>
      </trkpt>
      <trkpt lat="59.4120898861" lon="17.8594154995">
        <ele>125</ele>
        <time>2012-09-27T20:57:56Z</time>
      </trkpt>
      <trkpt lat="59.4121227431" lon="17.8593663816">
        <ele>125.4</ele>
        <time>2012-09-27T20:57:57Z</time>
      </trkpt>
      <trkpt lat="59.4121534209" lon="17.8593192753">
        <ele>125.8</ele>
        <time>2012-09-27T20:57:58Z</time>
      </trkpt>
      <trkpt lat="59.4121840148" lon="17.8592709118">
        <ele>126.2</ele>
        <time>2012-09-27T20:57:59Z</time>
      </trkpt>
      <trkpt lat="59.4123383256" lon="17.8589296008">
        <ele>126.2</ele>
        <time>2012-09-27T20:58:05Z</time>
      </trkpt>
      <trkpt lat="59.4124106614" lon="17.8588430996">
        <ele>126.2</ele>
        <time>2012-09-27T20:58:07Z</time>
      </trkpt>
      <trkpt lat="59.4124964082" lon="17.8587769664">
        <ele>126.2</ele>
        <time>2012-09-27T20:58:09Z</time>
      </trkpt>
      <trkpt lat="59.4125512259" lon="17.8587588615">
        <ele>126.2</ele>
        <time>2012-09-27T20:58:10Z</time>
      </trkpt>
      <trkpt lat="59.4126784631" lon="17.8588984201">
        <ele>126.2</ele>
        <time>2012-09-27T20:58:13Z</time>
      </trkpt>
      <trkpt lat="59.4127691553" lon="17.8589881065">
        <ele>126.8</ele>
        <time>2012-09-27T20:58:15Z</time>
      </trkpt>
      <trkpt lat="59.4128194467" lon="17.8589782996">
        <ele>127.2</ele>
        <time>2012-09-27T20:58:16Z</time>
      </trkpt>
      <trkpt lat="59.4128668882" lon="17.8589424251">
        <ele>127.6</ele>
        <time>2012-09-27T20:58:17Z</time>
      </trkpt>
      <trkpt lat="59.4129133239" lon="17.8588948997">
        <ele>128</ele>
        <time>2012-09-27T20:58:18Z</time>
      </trkpt>
      <trkpt lat="59.4129589215" lon="17.8588440216">
        <ele>128.4</ele>
        <time>2012-09-27T20:58:19Z</time>
      </trkpt>
      <trkpt lat="59.4130042676" lon="17.8587904613">
        <ele>128.4</ele>
        <time>2012-09-27T20:58:20Z</time>
      </trkpt>
      <trkpt lat="59.4132322552" lon="17.8585500684">
        <ele>128.4</ele>
        <time>2012-09-27T20:58:25Z</time>
      </trkpt>
      <trkpt lat="59.4132688003" lon="17.8585151158">
        <ele>128.4</ele>
        <time>2012-09-27T20:58:26Z</time>
      </trkpt>
      <trkpt lat="59.4133251267" lon="17.8584846895">
        <ele>128.4</ele>
        <time>2012-09-27T20:58:28Z</time>
      </trkpt>
      <trkpt lat="59.4133459138" lon="17.8584934067">
        <ele>128.4</ele>
        <time>2012-09-27T20:58:29Z</time>
      </trkpt>
      <trkpt lat="59.4134792698" lon="17.8586042154">
        <ele>128.8</ele>
        <time>2012-09-27T20:58:33Z</time>
      </trkpt>
      <trkpt lat="59.4135285554" lon="17.8586317919">
        <ele>129.2</ele>
        <time>2012-09-27T20:58:34Z</time>
      </trkpt>
      <trkpt lat="59.4135673636" lon="17.858626176">
        <ele>129.8</ele>
        <time>2012-09-27T20:58:35Z</time>
      </trkpt>
      <trkpt lat="59.4135933475" lon="17.8585878707">
        <ele>130.2</ele>
        <time>2012-09-27T20:58:36Z</time>
      </trkpt>
      <trkpt lat="59.4136133802" lon="17.8585206479">
        <ele>130.6</ele>
        <time>2012-09-27T20:58:37Z</time>
      </trkpt>
      <trkpt lat="59.4136369334" lon="17.8584345658">
        <ele>130.6</ele>
        <time>2012-09-27T20:58:38Z</time>
      </trkpt>
      <trkpt lat="59.4136703772" lon="17.8583444604">
        <ele>130.6</ele>
        <time>2012-09-27T20:58:39Z</time>
      </trkpt>
      <trkpt lat="59.4138783321" lon="17.8579558755">
        <ele>130.6</ele>
        <time>2012-09-27T20:58:44Z</time>
      </trkpt>
      <trkpt lat="59.4140231713" lon="17.8577594876">
        <ele>131</ele>
        <time>2012-09-27T20:58:47Z</time>
      </trkpt>
      <trkpt lat="59.414072876" lon="17.8576964557">
        <ele>131.4</ele>
        <time>2012-09-27T20:58:48Z</time>
      </trkpt>
      <trkpt lat="59.4141248438" lon="17.8576341781">
        <ele>132</ele>
        <time>2012-09-27T20:58:49Z</time>
      </trkpt>
      <trkpt lat="59.4141801643" lon="17.857576343">
        <ele>132.4</ele>
        <time>2012-09-27T20:58:50Z</time>
      </trkpt>
      <trkpt lat="59.4142338923" lon="17.8575159095">
        <ele>132.8</ele>
        <time>2012-09-27T20:58:51Z</time>
      </trkpt>
      <trkpt lat="59.4145236546" lon="17.8572310926">
        <ele>132.8</ele>
        <time>2012-09-27T20:58:56Z</time>
      </trkpt>
      <trkpt lat="59.4150108106" lon="17.8567637178">
        <ele>132.8</ele>
        <time>2012-09-27T20:59:04Z</time>
      </trkpt>
      <trkpt lat="59.4154221104" lon="17.8563675892">
        <ele>132.8</ele>
        <time>2012-09-27T20:59:10Z</time>
      </trkpt>
      <trkpt lat="59.4158371821" lon="17.8559651742">
        <ele>132.8</ele>
        <time>2012-09-27T20:59:16Z</time>
      </trkpt>
      <trkpt lat="59.4162284492" lon="17.8555413015">
        <ele>132.8</ele>
        <time>2012-09-27T20:59:22Z</time>
      </trkpt>
      <trkpt lat="59.4162840212" lon="17.8554630146">
        <ele>132.8</ele>
        <time>2012-09-27T20:59:23Z</time>
      </trkpt>
      <trkpt lat="59.4164789842" lon="17.8552377091">
        <ele>132.8</ele>
        <time>2012-09-27T20:59:26Z</time>
      </trkpt>
      <trkpt lat="59.4168597739" lon="17.854810316">
        <ele>132.8</ele>
        <time>2012-09-27T20:59:32Z</time>
      </trkpt>
      <trkpt lat="59.4172253086" lon="17.8544606232">
        <ele>133.2</ele>
        <time>2012-09-27T20:59:38Z</time>
      </trkpt>
      <trkpt lat="59.4172850715" lon="17.8544109185">
        <ele>133.8</ele>
        <time>2012-09-27T20:59:39Z</time>
      </trkpt>
      <trkpt lat="59.4173426552" lon="17.8543608786">
        <ele>134.2</ele>
        <time>2012-09-27T20:59:40Z</time>
      </trkpt>
      <trkpt lat="59.4174045974" lon="17.8543207293">
        <ele>134.6</ele>
        <time>2012-09-27T20:59:41Z</time>
      </trkpt>
      <trkpt lat="59.4174743348" lon="17.8543077373">
        <ele>135</ele>
        <time>2012-09-27T20:59:42Z</time>
      </trkpt>
      <trkpt lat="59.4175332596" lon="17.8543341403">
        <ele>135</ele>
        <time>2012-09-27T20:59:43Z</time>
      </trkpt>
      <trkpt lat="59.4177064296" lon="17.8545138482">
        <ele>135</ele>
        <time>2012-09-27T20:59:46Z</time>
      </trkpt>
      <trkpt lat="59.417760912" lon="17.8545857649">
        <ele>135</ele>
        <time>2012-09-27T20:59:47Z</time>
      </trkpt>
      <trkpt lat="59.417846575" lon="17.8548268284">
        <ele>135</ele>
        <time>2012-09-27T20:59:49Z</time>
      </trkpt>
      <trkpt lat="59.4179702919" lon="17.8552329314">
        <ele>134.6</ele>
        <time>2012-09-27T20:59:52Z</time>
      </trkpt>
      <trkpt lat="59.4180040709" lon="17.8553793632">
        <ele>134</ele>
        <time>2012-09-27T20:59:53Z</time>
      </trkpt>
      <trkpt lat="59.4180319826" lon="17.8555374459">
        <ele>133.6</ele>
        <time>2012-09-27T20:59:54Z</time>
      </trkpt>
      <trkpt lat="59.4180655941" lon="17.8557106159">
        <ele>133.2</ele>
        <time>2012-09-27T20:59:55Z</time>
      </trkpt>
      <trkpt lat="59.4181134547" lon="17.8558578859">
        <ele>132.6</ele>
        <time>2012-09-27T20:59:56Z</time>
      </trkpt>
      <trkpt lat="59.4182291249" lon="17.8561206585">
        <ele>132.6</ele>
        <time>2012-09-27T20:59:58Z</time>
      </trkpt>
      <trkpt lat="59.4184039714" lon="17.8565196369">
        <ele>132.2</ele>
        <time>2012-09-27T21:00:01Z</time>
      </trkpt>
      <trkpt lat="59.4184631476" lon="17.85664788">
        <ele>131.6</ele>
        <time>2012-09-27T21:00:02Z</time>
      </trkpt>
      <trkpt lat="59.418521318" lon="17.8567755363">
        <ele>131.2</ele>
        <time>2012-09-27T21:00:03Z</time>
      </trkpt>
      <trkpt lat="59.4185776443" lon="17.8569086409">
        <ele>130.8</ele>
        <time>2012-09-27T21:00:04Z</time>
      </trkpt>
      <trkpt lat="59.4186335516" lon="17.8570427513">
        <ele>130.2</ele>
        <time>2012-09-27T21:00:05Z</time>
      </trkpt>
      <trkpt lat="59.4189988348" lon="17.857894017">
        <ele>130.2</ele>
        <time>2012-09-27T21:00:12Z</time>
      </trkpt>
      <trkpt lat="59.4191449313" lon="17.8582022195">
        <ele>130.2</ele>
        <time>2012-09-27T21:00:15Z</time>
      </trkpt>
      <trkpt lat="59.4192740126" lon="17.8585047223">
        <ele>130.2</ele>
        <time>2012-09-27T21:00:18Z</time>
      </trkpt>
      <trkpt lat="59.4193921136" lon="17.8587801515">
        <ele>130.6</ele>
        <time>2012-09-27T21:00:21Z</time>
      </trkpt>
      <trkpt lat="59.4194383816" lon="17.8588806505">
        <ele>131</ele>
        <time>2012-09-27T21:00:22Z</time>
      </trkpt>
      <trkpt lat="59.4194827219" lon="17.8589737734">
        <ele>131.6</ele>
        <time>2012-09-27T21:00:23Z</time>
      </trkpt>
      <trkpt lat="59.4195303311" lon="17.8590719255">
        <ele>132</ele>
        <time>2012-09-27T21:00:24Z</time>
      </trkpt>
      <trkpt lat="59.4195802034" lon="17.8591750228">
        <ele>132.4</ele>
        <time>2012-09-27T21:00:25Z</time>
      </trkpt>
      <trkpt lat="59.4196755056" lon="17.8593789544">
        <ele>132.8</ele>
        <time>2012-09-27T21:00:27Z</time>
      </trkpt>
      <trkpt lat="59.4197219413" lon="17.8594716583">
        <ele>133.4</ele>
        <time>2012-09-27T21:00:28Z</time>
      </trkpt>
      <trkpt lat="59.4197735738" lon="17.8595636077">
        <ele>133.8</ele>
        <time>2012-09-27T21:00:29Z</time>
      </trkpt>
      <trkpt lat="59.4198269665" lon="17.8596439063">
        <ele>134.4</ele>
        <time>2012-09-27T21:00:30Z</time>
      </trkpt>
      <trkpt lat="59.4198865618" lon="17.8597229476">
        <ele>134.8</ele>
        <time>2012-09-27T21:00:31Z</time>
      </trkpt>
      <trkpt lat="59.4200857158" lon="17.859963592">
        <ele>134.8</ele>
        <time>2012-09-27T21:00:34Z</time>
      </trkpt>
      <trkpt lat="59.4205501569" lon="17.8605673402">
        <ele>134.8</ele>
        <time>2012-09-27T21:00:41Z</time>
      </trkpt>
      <trkpt lat="59.4208736982" lon="17.8610909575">
        <ele>134.8</ele>
        <time>2012-09-27T21:00:47Z</time>
      </trkpt>
      <trkpt lat="59.4210950642" lon="17.8612269958">
        <ele>134.8</ele>
        <time>2012-09-27T21:00:50Z</time>
      </trkpt>
      <trkpt lat="59.4211739379" lon="17.861245855">
        <ele>134.8</ele>
        <time>2012-09-27T21:00:51Z</time>
      </trkpt>
      <trkpt lat="59.4215588347" lon="17.861279215">
        <ele>134.8</ele>
        <time>2012-09-27T21:00:56Z</time>
      </trkpt>
      <trkpt lat="59.4219320807" lon="17.8612924584">
        <ele>134</ele>
        <time>2012-09-27T21:01:01Z</time>
      </trkpt>
      <trkpt lat="59.4220052547" lon="17.8613091384">
        <ele>133.6</ele>
        <time>2012-09-27T21:01:02Z</time>
      </trkpt>
      <trkpt lat="59.4220783449" lon="17.8613216274">
        <ele>133.2</ele>
        <time>2012-09-27T21:01:03Z</time>
      </trkpt>
      <trkpt lat="59.4221498425" lon="17.8613216274">
        <ele>132.8</ele>
        <time>2012-09-27T21:01:04Z</time>
      </trkpt>
      <trkpt lat="59.4222154727" lon="17.8613070429">
        <ele>132.8</ele>
        <time>2012-09-27T21:01:05Z</time>
      </trkpt>
      <trkpt lat="59.4222797619" lon="17.8612871778">
        <ele>132.8</ele>
        <time>2012-09-27T21:01:06Z</time>
      </trkpt>
      <trkpt lat="59.4223343281" lon="17.8612829869">
        <ele>132.8</ele>
        <time>2012-09-27T21:01:07Z</time>
      </trkpt>
      <trkpt lat="59.4224092623" lon="17.8612680671">
        <ele>132.8</ele>
        <time>2012-09-27T21:01:09Z</time>
      </trkpt>
      <trkpt lat="59.4224356653" lon="17.8612371379">
        <ele>132.8</ele>
        <time>2012-09-27T21:01:10Z</time>
      </trkpt>
      <trkpt lat="59.422525603" lon="17.8610925501">
        <ele>132.8</ele>
        <time>2012-09-27T21:01:13Z</time>
      </trkpt>
      <trkpt lat="59.4226185583" lon="17.8609841721">
        <ele>132.8</ele>
        <time>2012-09-27T21:01:15Z</time>
      </trkpt>
      <trkpt lat="59.4227281936" lon="17.8608888699">
        <ele>132.8</ele>
        <time>2012-09-27T21:01:17Z</time>
      </trkpt>
      <trkpt lat="59.4229260064" lon="17.8606954157">
        <ele>132.8</ele>
        <time>2012-09-27T21:01:21Z</time>
      </trkpt>
      <trkpt lat="59.4229415129" lon="17.8606069866">
        <ele>132.8</ele>
        <time>2012-09-27T21:01:22Z</time>
      </trkpt>
      <trkpt lat="59.4229483023" lon="17.8602005483">
        <ele>132.8</ele>
        <time>2012-09-27T21:01:26Z</time>
      </trkpt>
      <trkpt lat="59.4230547524" lon="17.8599407932">
        <ele>132.8</ele>
        <time>2012-09-27T21:01:29Z</time>
      </trkpt>
      <trkpt lat="59.4231074745" lon="17.8598518612">
        <ele>132.8</ele>
        <time>2012-09-27T21:01:30Z</time>
      </trkpt>
      <trkpt lat="59.4233420839" lon="17.8595214467">
        <ele>132.8</ele>
        <time>2012-09-27T21:01:34Z</time>
      </trkpt>
      <trkpt lat="59.4236621049" lon="17.8592602667">
        <ele>132.8</ele>
        <time>2012-09-27T21:01:39Z</time>
      </trkpt>
      <trkpt lat="59.4239885799" lon="17.8591581752">
        <ele>132.8</ele>
        <time>2012-09-27T21:01:44Z</time>
      </trkpt>
      <trkpt lat="59.424117242" lon="17.8590781281">
        <ele>132.4</ele>
        <time>2012-09-27T21:01:46Z</time>
      </trkpt>
      <trkpt lat="59.4241739037" lon="17.8590321952">
        <ele>131.8</ele>
        <time>2012-09-27T21:01:47Z</time>
      </trkpt>
      <trkpt lat="59.4242264582" lon="17.8589763718">
        <ele>131.4</ele>
        <time>2012-09-27T21:01:48Z</time>
      </trkpt>
      <trkpt lat="59.4242788451" lon="17.858907724">
        <ele>131</ele>
        <time>2012-09-27T21:01:49Z</time>
      </trkpt>
      <trkpt lat="59.4243341656" lon="17.8588313649">
        <ele>130.6</ele>
        <time>2012-09-27T21:01:50Z</time>
      </trkpt>
      <trkpt lat="59.4246044819" lon="17.8584416904">
        <ele>130.6</ele>
        <time>2012-09-27T21:01:55Z</time>
      </trkpt>
      <trkpt lat="59.4248858623" lon="17.8580838671">
        <ele>130.6</ele>
        <time>2012-09-27T21:02:00Z</time>
      </trkpt>
      <trkpt lat="59.4250579427" lon="17.857945901">
        <ele>130.6</ele>
        <time>2012-09-27T21:02:03Z</time>
      </trkpt>
      <trkpt lat="59.4251074797" lon="17.8579008902">
        <ele>130.6</ele>
        <time>2012-09-27T21:02:04Z</time>
      </trkpt>
      <trkpt lat="59.4251654825" lon="17.8578586454">
        <ele>130.6</ele>
        <time>2012-09-27T21:02:05Z</time>
      </trkpt>
      <trkpt lat="59.4253538237" lon="17.8577376108">
        <ele>130.6</ele>
        <time>2012-09-27T21:02:08Z</time>
      </trkpt>
      <trkpt lat="59.4256606013" lon="17.857533763">
        <ele>130.6</ele>
        <time>2012-09-27T21:02:13Z</time>
      </trkpt>
      <trkpt lat="59.4257833961" lon="17.857520771">
        <ele>130.6</ele>
        <time>2012-09-27T21:02:15Z</time>
      </trkpt>
      <trkpt lat="59.4259952906" lon="17.8575415582">
        <ele>130.6</ele>
        <time>2012-09-27T21:02:18Z</time>
      </trkpt>
      <trkpt lat="59.426487811" lon="17.8575565618">
        <ele>130.6</ele>
        <time>2012-09-27T21:02:24Z</time>
      </trkpt>
      <trkpt lat="59.4269366617" lon="17.8575449109">
        <ele>130.6</ele>
        <time>2012-09-27T21:02:30Z</time>
      </trkpt>
      <trkpt lat="59.4273208042" lon="17.857503672">
        <ele>130.6</ele>
        <time>2012-09-27T21:02:36Z</time>
      </trkpt>
      <trkpt lat="59.4276449323" lon="17.8574957092">
        <ele>130.6</ele>
        <time>2012-09-27T21:02:42Z</time>
      </trkpt>
      <trkpt lat="59.4278794579" lon="17.8574626007">
        <ele>130.6</ele>
        <time>2012-09-27T21:02:47Z</time>
      </trkpt>
      <trkpt lat="59.4279143266" lon="17.8574510336">
        <ele>130.6</ele>
        <time>2012-09-27T21:02:48Z</time>
      </trkpt>
      <trkpt lat="59.428045168" lon="17.8574757602">
        <ele>130.6</ele>
        <time>2012-09-27T21:02:53Z</time>
      </trkpt>
      <trkpt lat="59.428078528" lon="17.8574857347">
        <ele>130.6</ele>
        <time>2012-09-27T21:02:54Z</time>
      </trkpt>
      <trkpt lat="59.4281190964" lon="17.8574921888">
        <ele>131</ele>
        <time>2012-09-27T21:02:55Z</time>
      </trkpt>
      <trkpt lat="59.4281671247" lon="17.8574978885">
        <ele>131.4</ele>
        <time>2012-09-27T21:02:56Z</time>
      </trkpt>
      <trkpt lat="59.4282195954" lon="17.8574848127">
        <ele>131.8</ele>
        <time>2012-09-27T21:02:57Z</time>
      </trkpt>
      <trkpt lat="59.4282742453" lon="17.857455979">
        <ele>132.2</ele>
        <time>2012-09-27T21:02:58Z</time>
      </trkpt>
      <trkpt lat="59.4283283924" lon="17.8574303303">
        <ele>132.6</ele>
        <time>2012-09-27T21:02:59Z</time>
      </trkpt>
      <trkpt lat="59.4284234432" lon="17.857387415">
        <ele>132.6</ele>
        <time>2012-09-27T21:03:01Z</time>
      </trkpt>
      <trkpt lat="59.4285101958" lon="17.8572993212">
        <ele>133.2</ele>
        <time>2012-09-27T21:03:03Z</time>
      </trkpt>
      <trkpt lat="59.428549004" lon="17.8572320984">
        <ele>134</ele>
        <time>2012-09-27T21:03:04Z</time>
      </trkpt>
      <trkpt lat="59.428593009" lon="17.8571705753">
        <ele>134.4</ele>
        <time>2012-09-27T21:03:05Z</time>
      </trkpt>
      <trkpt lat="59.4286370978" lon="17.8571145003">
        <ele>134.8</ele>
        <time>2012-09-27T21:03:06Z</time>
      </trkpt>
      <trkpt lat="59.4288654208" lon="17.8567843373">
        <ele>134.8</ele>
        <time>2012-09-27T21:03:11Z</time>
      </trkpt>
      <trkpt lat="59.4291654928" lon="17.8563770608">
        <ele>134.8</ele>
        <time>2012-09-27T21:03:18Z</time>
      </trkpt>
      <trkpt lat="59.4294643075" lon="17.8559182356">
        <ele>134.8</ele>
        <time>2012-09-27T21:03:24Z</time>
      </trkpt>
      <trkpt lat="59.4296146788" lon="17.8556948579">
        <ele>134.4</ele>
        <time>2012-09-27T21:03:27Z</time>
      </trkpt>
      <trkpt lat="59.4296655569" lon="17.8556107037">
        <ele>134</ele>
        <time>2012-09-27T21:03:28Z</time>
      </trkpt>
      <trkpt lat="59.4297148425" lon="17.8555254597">
        <ele>133</ele>
        <time>2012-09-27T21:03:29Z</time>
      </trkpt>
      <trkpt lat="59.4297631222" lon="17.8554391262">
        <ele>132.4</ele>
        <time>2012-09-27T21:03:30Z</time>
      </trkpt>
      <trkpt lat="59.4300916927" lon="17.8549273274">
        <ele>132.4</ele>
        <time>2012-09-27T21:03:36Z</time>
      </trkpt>
      <trkpt lat="59.4301569877" lon="17.8548435922">
        <ele>132</ele>
        <time>2012-09-27T21:03:37Z</time>
      </trkpt>
      <trkpt lat="59.4302330954" lon="17.8547601923">
        <ele>131.6</ele>
        <time>2012-09-27T21:03:38Z</time>
      </trkpt>
      <trkpt lat="59.4303090354" lon="17.8546790555">
        <ele>131.2</ele>
        <time>2012-09-27T21:03:39Z</time>
      </trkpt>
      <trkpt lat="59.4303942793" lon="17.854592219">
        <ele>130.6</ele>
        <time>2012-09-27T21:03:40Z</time>
      </trkpt>
      <trkpt lat="59.4304817863" lon="17.8545064722">
        <ele>130.2</ele>
        <time>2012-09-27T21:03:41Z</time>
      </trkpt>
      <trkpt lat="59.4305749931" lon="17.8544076496">
        <ele>129.8</ele>
        <time>2012-09-27T21:03:42Z</time>
      </trkpt>
      <trkpt lat="59.4306609914" lon="17.8543075697">
        <ele>129.2</ele>
        <time>2012-09-27T21:03:43Z</time>
      </trkpt>
      <trkpt lat="59.4307335786" lon="17.8542112616">
        <ele>128.6</ele>
        <time>2012-09-27T21:03:44Z</time>
      </trkpt>
      <trkpt lat="59.43080055" lon="17.8540984413">
        <ele>127.8</ele>
        <time>2012-09-27T21:03:45Z</time>
      </trkpt>
      <trkpt lat="59.4308627437" lon="17.8539770714">
        <ele>127</ele>
        <time>2012-09-27T21:03:46Z</time>
      </trkpt>
      <trkpt lat="59.4309234287" lon="17.8538412846">
        <ele>126.4</ele>
        <time>2012-09-27T21:03:47Z</time>
      </trkpt>
      <trkpt lat="59.4309829401" lon="17.8536942661">
        <ele>125.6</ele>
        <time>2012-09-27T21:03:48Z</time>
      </trkpt>
      <trkpt lat="59.431048319" lon="17.8535695434">
        <ele>125.6</ele>
        <time>2012-09-27T21:03:49Z</time>
      </trkpt>
      <trkpt lat="59.4313070682" lon="17.8528896037">
        <ele>125.6</ele>
        <time>2012-09-27T21:03:54Z</time>
      </trkpt>
      <trkpt lat="59.4316133428" lon="17.8519923213">
        <ele>125.6</ele>
        <time>2012-09-27T21:04:01Z</time>
      </trkpt>
      <trkpt lat="59.4319044462" lon="17.8511333441">
        <ele>125.6</ele>
        <time>2012-09-27T21:04:08Z</time>
      </trkpt>
      <trkpt lat="59.4321833959" lon="17.8503259157">
        <ele>125.6</ele>
        <time>2012-09-27T21:04:15Z</time>
      </trkpt>
      <trkpt lat="59.4324568134" lon="17.8494819422">
        <ele>125.6</ele>
        <time>2012-09-27T21:04:23Z</time>
      </trkpt>
      <trkpt lat="59.4327217653" lon="17.8486650422">
        <ele>125.6</ele>
        <time>2012-09-27T21:04:30Z</time>
      </trkpt>
      <trkpt lat="59.4328907444" lon="17.8481912134">
        <ele>125.6</ele>
        <time>2012-09-27T21:04:35Z</time>
      </trkpt>
      <trkpt lat="59.4329888965" lon="17.8478594578">
        <ele>125.6</ele>
        <time>2012-09-27T21:04:40Z</time>
      </trkpt>
      <trkpt lat="59.4330582148" lon="17.847711182">
        <ele>125.6</ele>
        <time>2012-09-27T21:04:44Z</time>
      </trkpt>
      <trkpt lat="59.4331612283" lon="17.8474371777">
        <ele>125.6</ele>
        <time>2012-09-27T21:04:50Z</time>
      </trkpt>
      <trkpt lat="59.4332085861" lon="17.8473256984">
        <ele>126</ele>
        <time>2012-09-27T21:04:52Z</time>
      </trkpt>
      <trkpt lat="59.4332292055" lon="17.8472636724">
        <ele>126.4</ele>
        <time>2012-09-27T21:04:53Z</time>
      </trkpt>
      <trkpt lat="59.4332551056" lon="17.8472074298">
        <ele>127</ele>
        <time>2012-09-27T21:04:54Z</time>
      </trkpt>
      <trkpt lat="59.4332881303" lon="17.847156887">
        <ele>127.4</ele>
        <time>2012-09-27T21:04:55Z</time>
      </trkpt>
      <trkpt lat="59.43331973" lon="17.8471078528">
        <ele>127.8</ele>
        <time>2012-09-27T21:04:56Z</time>
      </trkpt>
      <trkpt lat="59.4334446204" lon="17.8469062682">
        <ele>128.4</ele>
        <time>2012-09-27T21:05:00Z</time>
      </trkpt>
      <trkpt lat="59.4334741246" lon="17.8468649454">
        <ele>128.8</ele>
        <time>2012-09-27T21:05:01Z</time>
      </trkpt>
      <trkpt lat="59.4335085743" lon="17.8468341">
        <ele>129.2</ele>
        <time>2012-09-27T21:05:02Z</time>
      </trkpt>
      <trkpt lat="59.4335447841" lon="17.8468046795">
        <ele>129.8</ele>
        <time>2012-09-27T21:05:03Z</time>
      </trkpt>
      <trkpt lat="59.4335821673" lon="17.846772493">
        <ele>130.2</ele>
        <time>2012-09-27T21:05:04Z</time>
      </trkpt>
      <trkpt lat="59.4337006036" lon="17.8466900151">
        <ele>130.6</ele>
        <time>2012-09-27T21:05:07Z</time>
      </trkpt>
      <trkpt lat="59.4337462011" lon="17.8466751792">
        <ele>131.4</ele>
        <time>2012-09-27T21:05:08Z</time>
      </trkpt>
      <trkpt lat="59.4337912119" lon="17.8466596727">
        <ele>131.8</ele>
        <time>2012-09-27T21:05:09Z</time>
      </trkpt>
      <trkpt lat="59.4338375638" lon="17.8466486085">
        <ele>132.2</ele>
        <time>2012-09-27T21:05:10Z</time>
      </trkpt>
      <trkpt lat="59.4339716742" lon="17.8466302522">
        <ele>132.6</ele>
        <time>2012-09-27T21:05:13Z</time>
      </trkpt>
      <trkpt lat="59.4340132485" lon="17.8466320962">
        <ele>133.2</ele>
        <time>2012-09-27T21:05:14Z</time>
      </trkpt>
      <trkpt lat="59.4340559123" lon="17.8466414839">
        <ele>133.6</ele>
        <time>2012-09-27T21:05:15Z</time>
      </trkpt>
      <trkpt lat="59.434096816" lon="17.8466421545">
        <ele>134</ele>
        <time>2012-09-27T21:05:16Z</time>
      </trkpt>
      <trkpt lat="59.4341361271" lon="17.8466369577">
        <ele>134.4</ele>
        <time>2012-09-27T21:05:17Z</time>
      </trkpt>
      <trkpt lat="59.434308459" lon="17.8466165059">
        <ele>134.4</ele>
        <time>2012-09-27T21:05:22Z</time>
      </trkpt>
      <trkpt lat="59.4344589979" lon="17.8466609299">
        <ele>134.8</ele>
        <time>2012-09-27T21:05:26Z</time>
      </trkpt>
      <trkpt lat="59.4344996501" lon="17.8466740057">
        <ele>135.2</ele>
        <time>2012-09-27T21:05:27Z</time>
      </trkpt>
      <trkpt lat="59.4345357761" lon="17.8466809627">
        <ele>135.6</ele>
        <time>2012-09-27T21:05:28Z</time>
      </trkpt>
      <trkpt lat="59.4345693875" lon="17.8466917753">
        <ele>136</ele>
        <time>2012-09-27T21:05:29Z</time>
      </trkpt>
      <trkpt lat="59.4346037533" lon="17.8467057731">
        <ele>136.4</ele>
        <time>2012-09-27T21:05:30Z</time>
      </trkpt>
      <trkpt lat="59.4347021568" lon="17.8467535499">
        <ele>136.4</ele>
        <time>2012-09-27T21:05:33Z</time>
      </trkpt>
      <trkpt lat="59.4347364388" lon="17.8467783604">
        <ele>136.8</ele>
        <time>2012-09-27T21:05:34Z</time>
      </trkpt>
      <trkpt lat="59.4347723133" lon="17.8468107983">
        <ele>137.4</ele>
        <time>2012-09-27T21:05:35Z</time>
      </trkpt>
      <trkpt lat="59.4348094451" lon="17.8468567311">
        <ele>137.8</ele>
        <time>2012-09-27T21:05:36Z</time>
      </trkpt>
      <trkpt lat="59.43484423" lon="17.8469038374">
        <ele>138.2</ele>
        <time>2012-09-27T21:05:37Z</time>
      </trkpt>
      <trkpt lat="59.4348819486" lon="17.8469450764">
        <ele>138.6</ele>
        <time>2012-09-27T21:05:38Z</time>
      </trkpt>
      <trkpt lat="59.4351487444" lon="17.8472233554">
        <ele>138.6</ele>
        <time>2012-09-27T21:05:45Z</time>
      </trkpt>
      <trkpt lat="59.4351853734" lon="17.8472790112">
        <ele>138.6</ele>
        <time>2012-09-27T21:05:46Z</time>
      </trkpt>
      <trkpt lat="59.4353857008" lon="17.8475509201">
        <ele>138.6</ele>
        <time>2012-09-27T21:05:51Z</time>
      </trkpt>
      <trkpt lat="59.4356653209" lon="17.847938583">
        <ele>138.6</ele>
        <time>2012-09-27T21:05:58Z</time>
      </trkpt>
      <trkpt lat="59.4357376567" lon="17.8480635571">
        <ele>138.6</ele>
        <time>2012-09-27T21:06:00Z</time>
      </trkpt>
      <trkpt lat="59.4358481302" lon="17.8482428459">
        <ele>138.6</ele>
        <time>2012-09-27T21:06:03Z</time>
      </trkpt>
      <trkpt lat="59.435886184" lon="17.8483140083">
        <ele>138.6</ele>
        <time>2012-09-27T21:06:04Z</time>
      </trkpt>
      <trkpt lat="59.4360564204" lon="17.848639226">
        <ele>138.6</ele>
        <time>2012-09-27T21:06:08Z</time>
      </trkpt>
      <trkpt lat="59.4363260661" lon="17.8490801139">
        <ele>138.6</ele>
        <time>2012-09-27T21:06:13Z</time>
      </trkpt>
      <trkpt lat="59.4364281577" lon="17.8492244502">
        <ele>138.2</ele>
        <time>2012-09-27T21:06:14Z</time>
      </trkpt>
      <trkpt lat="59.4365213644" lon="17.8493410425">
        <ele>137.8</ele>
        <time>2012-09-27T21:06:15Z</time>
      </trkpt>
      <trkpt lat="59.4366203546" lon="17.8494502586">
        <ele>137.4</ele>
        <time>2012-09-27T21:06:16Z</time>
      </trkpt>
      <trkpt lat="59.4367187581" lon="17.8495514282">
        <ele>137</ele>
        <time>2012-09-27T21:06:17Z</time>
      </trkpt>
      <trkpt lat="59.4368132221" lon="17.8496363368">
        <ele>136.4</ele>
        <time>2012-09-27T21:06:18Z</time>
      </trkpt>
      <trkpt lat="59.4369671138" lon="17.849784445">
        <ele>136</ele>
        <time>2012-09-27T21:06:20Z</time>
      </trkpt>
      <trkpt lat="59.4370437244" lon="17.8498474769">
        <ele>135.6</ele>
        <time>2012-09-27T21:06:21Z</time>
      </trkpt>
      <trkpt lat="59.4371146353" lon="17.8499067369">
        <ele>135.2</ele>
        <time>2012-09-27T21:06:22Z</time>
      </trkpt>
      <trkpt lat="59.4371883122" lon="17.8499659131">
        <ele>134.4</ele>
        <time>2012-09-27T21:06:23Z</time>
      </trkpt>
      <trkpt lat="59.4376798268" lon="17.8503435177">
        <ele>134.4</ele>
        <time>2012-09-27T21:06:30Z</time>
      </trkpt>
      <trkpt lat="59.4377389192" lon="17.8504117464">
        <ele>134.4</ele>
        <time>2012-09-27T21:06:31Z</time>
      </trkpt>
      <trkpt lat="59.4379078983" lon="17.8505869281">
        <ele>134</ele>
        <time>2012-09-27T21:06:34Z</time>
      </trkpt>
      <trkpt lat="59.4379511489" lon="17.8506320227">
        <ele>133.4</ele>
        <time>2012-09-27T21:06:35Z</time>
      </trkpt>
      <trkpt lat="59.4379754564" lon="17.8506646283">
        <ele>133</ele>
        <time>2012-09-27T21:06:36Z</time>
      </trkpt>
      <trkpt lat="59.4379953215" lon="17.8506858345">
        <ele>132.6</ele>
        <time>2012-09-27T21:06:37Z</time>
      </trkpt>
      <trkpt lat="59.4379227343" lon="17.8505913705">
        <ele>132.2</ele>
        <time>2012-09-27T21:08:02Z</time>
      </trkpt>
      <trkpt lat="59.4381128357" lon="17.8508017562">
        <ele>132.2</ele>
        <time>2012-09-27T21:08:07Z</time>
      </trkpt>
      <trkpt lat="59.4381512248" lon="17.8508657939">
        <ele>132.2</ele>
        <time>2012-09-27T21:08:08Z</time>
      </trkpt>
      <trkpt lat="59.4382569206" lon="17.8512714779">
        <ele>132.2</ele>
        <time>2012-09-27T21:08:12Z</time>
      </trkpt>
      <trkpt lat="59.4382746064" lon="17.8515609049">
        <ele>132.2</ele>
        <time>2012-09-27T21:08:14Z</time>
      </trkpt>
      <trkpt lat="59.4382814796" lon="17.8517094321">
        <ele>131.8</ele>
        <time>2012-09-27T21:08:15Z</time>
      </trkpt>
      <trkpt lat="59.4382902806" lon="17.8518559477">
        <ele>131.4</ele>
        <time>2012-09-27T21:08:16Z</time>
      </trkpt>
      <trkpt lat="59.4382999198" lon="17.8520017928">
        <ele>131</ele>
        <time>2012-09-27T21:08:17Z</time>
      </trkpt>
      <trkpt lat="59.4383093075" lon="17.8521456262">
        <ele>130.6</ele>
        <time>2012-09-27T21:08:18Z</time>
      </trkpt>
      <trkpt lat="59.4383162645" lon="17.8522900463">
        <ele>130.2</ele>
        <time>2012-09-27T21:08:19Z</time>
      </trkpt>
      <trkpt lat="59.4383575034" lon="17.8529248914">
        <ele>130.2</ele>
        <time>2012-09-27T21:08:24Z</time>
      </trkpt>
      <trkpt lat="59.4384089683" lon="17.853671132">
        <ele>130.2</ele>
        <time>2012-09-27T21:08:31Z</time>
      </trkpt>
      <trkpt lat="59.4384426635" lon="17.8542735392">
        <ele>130.2</ele>
        <time>2012-09-27T21:08:36Z</time>
      </trkpt>
      <trkpt lat="59.4385771092" lon="17.8546063844">
        <ele>130.2</ele>
        <time>2012-09-27T21:08:39Z</time>
      </trkpt>
      <trkpt lat="59.4386684719" lon="17.8548131659">
        <ele>130.2</ele>
        <time>2012-09-27T21:08:41Z</time>
      </trkpt>
      <trkpt lat="59.4387558951" lon="17.8550010043">
        <ele>130.2</ele>
        <time>2012-09-27T21:08:43Z</time>
      </trkpt>
      <trkpt lat="59.438914313" lon="17.8552723264">
        <ele>130.2</ele>
        <time>2012-09-27T21:08:46Z</time>
      </trkpt>
      <trkpt lat="59.4390532849" lon="17.8553951212">
        <ele>130.2</ele>
        <time>2012-09-27T21:08:48Z</time>
      </trkpt>
      <trkpt lat="59.439267191" lon="17.8554770124">
        <ele>130.2</ele>
        <time>2012-09-27T21:08:51Z</time>
      </trkpt>
      <trkpt lat="59.4393328213" lon="17.8555073548">
        <ele>130.2</ele>
        <time>2012-09-27T21:08:52Z</time>
      </trkpt>
      <trkpt lat="59.4398057281" lon="17.8557561296">
        <ele>130.2</ele>
        <time>2012-09-27T21:08:59Z</time>
      </trkpt>
      <trkpt lat="59.4403255735" lon="17.8560661761">
        <ele>130.2</ele>
        <time>2012-09-27T21:09:06Z</time>
      </trkpt>
      <trkpt lat="59.4404751904" lon="17.8561057387">
        <ele>130.2</ele>
        <time>2012-09-27T21:09:08Z</time>
      </trkpt>
      <trkpt lat="59.4406227119" lon="17.8560895616">
        <ele>130.2</ele>
        <time>2012-09-27T21:09:10Z</time>
      </trkpt>
      <trkpt lat="59.4406956344" lon="17.8560696965">
        <ele>130.2</ele>
        <time>2012-09-27T21:09:11Z</time>
      </trkpt>
      <trkpt lat="59.4409981372" lon="17.8560194889">
        <ele>130.2</ele>
        <time>2012-09-27T21:09:15Z</time>
      </trkpt>
      <trkpt lat="59.4414263685" lon="17.8559800102">
        <ele>130.2</ele>
        <time>2012-09-27T21:09:21Z</time>
      </trkpt>
      <trkpt lat="59.4416240975" lon="17.8559202472">
        <ele>130.2</ele>
        <time>2012-09-27T21:09:24Z</time>
      </trkpt>
      <trkpt lat="59.4417540169" lon="17.8558287169">
        <ele>130.2</ele>
        <time>2012-09-27T21:09:26Z</time>
      </trkpt>
      <trkpt lat="59.441910507" lon="17.8556185827">
        <ele>130.2</ele>
        <time>2012-09-27T21:09:29Z</time>
      </trkpt>
      <trkpt lat="59.4419602955" lon="17.8555520304">
        <ele>130.2</ele>
        <time>2012-09-27T21:09:30Z</time>
      </trkpt>
      <trkpt lat="59.4420164542" lon="17.8554993082">
        <ele>130.2</ele>
        <time>2012-09-27T21:09:31Z</time>
      </trkpt>
      <trkpt lat="59.4421256704" lon="17.8555028286">
        <ele>130.2</ele>
        <time>2012-09-27T21:09:33Z</time>
      </trkpt>
      <trkpt lat="59.4422401671" lon="17.8557762462">
        <ele>130.2</ele>
        <time>2012-09-27T21:09:36Z</time>
      </trkpt>
      <trkpt lat="59.4422750358" lon="17.8558899886">
        <ele>130.2</ele>
        <time>2012-09-27T21:09:37Z</time>
      </trkpt>
      <trkpt lat="59.442430101" lon="17.8564716924">
        <ele>130.2</ele>
        <time>2012-09-27T21:09:42Z</time>
      </trkpt>
      <trkpt lat="59.4426836535" lon="17.8570098942">
        <ele>130.2</ele>
        <time>2012-09-27T21:09:48Z</time>
      </trkpt>
      <trkpt lat="59.4429312548" lon="17.8571796277">
        <ele>130.2</ele>
        <time>2012-09-27T21:09:52Z</time>
      </trkpt>
      <trkpt lat="59.4429958792" lon="17.8571953857">
        <ele>130.2</ele>
        <time>2012-09-27T21:09:53Z</time>
      </trkpt>
      <trkpt lat="59.443312715" lon="17.8572221239">
        <ele>130.2</ele>
        <time>2012-09-27T21:09:57Z</time>
      </trkpt>
      <trkpt lat="59.4437442153" lon="17.8572375466">
        <ele>130.2</ele>
        <time>2012-09-27T21:10:03Z</time>
      </trkpt>
      <trkpt lat="59.4442892902" lon="17.8572639496">
        <ele>130.2</ele>
        <time>2012-09-27T21:10:11Z</time>
      </trkpt>
      <trkpt lat="59.4448143324" lon="17.8571997443">
        <ele>130.2</ele>
        <time>2012-09-27T21:10:19Z</time>
      </trkpt>
      <trkpt lat="59.4452356905" lon="17.8569596867">
        <ele>130.2</ele>
        <time>2012-09-27T21:10:25Z</time>
      </trkpt>
      <trkpt lat="59.4454445675" lon="17.8566443596">
        <ele>130.2</ele>
        <time>2012-09-27T21:10:29Z</time>
      </trkpt>
      <trkpt lat="59.4456301428" lon="17.8562451297">
        <ele>130.6</ele>
        <time>2012-09-27T21:10:33Z</time>
      </trkpt>
      <trkpt lat="59.4456771652" lon="17.856143122">
        <ele>131</ele>
        <time>2012-09-27T21:10:34Z</time>
      </trkpt>
      <trkpt lat="59.4457255288" lon="17.8560416171">
        <ele>131.6</ele>
        <time>2012-09-27T21:10:35Z</time>
      </trkpt>
      <trkpt lat="59.4457697014" lon="17.8559517632">
        <ele>132</ele>
        <time>2012-09-27T21:10:36Z</time>
      </trkpt>
      <trkpt lat="59.4458136226" lon="17.8558561257">
        <ele>132.4</ele>
        <time>2012-09-27T21:10:37Z</time>
      </trkpt>
      <trkpt lat="59.4458598068" lon="17.8557649306">
        <ele>133</ele>
        <time>2012-09-27T21:10:38Z</time>
      </trkpt>
      <trkpt lat="59.4459131157" lon="17.8556771721">
        <ele>133.6</ele>
        <time>2012-09-27T21:10:39Z</time>
      </trkpt>
      <trkpt lat="59.44596391" lon="17.8555847198">
        <ele>134.2</ele>
        <time>2012-09-27T21:10:40Z</time>
      </trkpt>
      <trkpt lat="59.4460105972" lon="17.8554931894">
        <ele>134.6</ele>
        <time>2012-09-27T21:10:41Z</time>
      </trkpt>
      <trkpt lat="59.4460618944" lon="17.855404928">
        <ele>134.6</ele>
        <time>2012-09-27T21:10:42Z</time>
      </trkpt>
      <trkpt lat="59.446114868" lon="17.8553372861">
        <ele>134.6</ele>
        <time>2012-09-27T21:10:43Z</time>
      </trkpt>
      <trkpt lat="59.4462824222" lon="17.8551589193">
        <ele>134.6</ele>
        <time>2012-09-27T21:10:46Z</time>
      </trkpt>
      <trkpt lat="59.446632618" lon="17.854802018">
        <ele>134.6</ele>
        <time>2012-09-27T21:10:52Z</time>
      </trkpt>
      <trkpt lat="59.4470122343" lon="17.8543861919">
        <ele>134.6</ele>
        <time>2012-09-27T21:10:58Z</time>
      </trkpt>
      <trkpt lat="59.4472291578" lon="17.8542278578">
        <ele>134.2</ele>
        <time>2012-09-27T21:11:01Z</time>
      </trkpt>
      <trkpt lat="59.4473046787" lon="17.8541648259">
        <ele>133.8</ele>
        <time>2012-09-27T21:11:02Z</time>
      </trkpt>
      <trkpt lat="59.4473727398" lon="17.8540966811">
        <ele>133.4</ele>
        <time>2012-09-27T21:11:03Z</time>
      </trkpt>
      <trkpt lat="59.4474390406" lon="17.854020322">
        <ele>133</ele>
        <time>2012-09-27T21:11:04Z</time>
      </trkpt>
      <trkpt lat="59.4475053414" lon="17.8539391852">
        <ele>132.6</ele>
        <time>2012-09-27T21:11:05Z</time>
      </trkpt>
      <trkpt lat="59.4476190838" lon="17.8538130376">
        <ele>132</ele>
        <time>2012-09-27T21:11:07Z</time>
      </trkpt>
      <trkpt lat="59.4476738176" lon="17.8537440545">
        <ele>131.6</ele>
        <time>2012-09-27T21:11:08Z</time>
      </trkpt>
      <trkpt lat="59.4477307307" lon="17.8536776699">
        <ele>131.2</ele>
        <time>2012-09-27T21:11:09Z</time>
      </trkpt>
      <trkpt lat="59.4477827823" lon="17.8536013108">
        <ele>130.8</ele>
        <time>2012-09-27T21:11:10Z</time>
      </trkpt>
      <trkpt lat="59.4478358397" lon="17.8535267119">
        <ele>130.4</ele>
        <time>2012-09-27T21:11:11Z</time>
      </trkpt>
      <trkpt lat="59.4480614805" lon="17.8532811222">
        <ele>130.4</ele>
        <time>2012-09-27T21:11:15Z</time>
      </trkpt>
      <trkpt lat="59.4482953355" lon="17.8531956268">
        <ele>130.4</ele>
        <time>2012-09-27T21:11:19Z</time>
      </trkpt>
      <trkpt lat="59.4485049668" lon="17.8531991472">
        <ele>130.4</ele>
        <time>2012-09-27T21:11:23Z</time>
      </trkpt>
      <trkpt lat="59.4485555935" lon="17.8531865744">
        <ele>130.4</ele>
        <time>2012-09-27T21:11:24Z</time>
      </trkpt>
      <trkpt lat="59.4488342079" lon="17.8530059444">
        <ele>130.4</ele>
        <time>2012-09-27T21:11:29Z</time>
      </trkpt>
      <trkpt lat="59.4491118164" lon="17.8526651364">
        <ele>130.4</ele>
        <time>2012-09-27T21:11:34Z</time>
      </trkpt>
      <trkpt lat="59.4495316658" lon="17.8521385016">
        <ele>130.4</ele>
        <time>2012-09-27T21:11:41Z</time>
      </trkpt>
      <trkpt lat="59.4498656006" lon="17.8517251901">
        <ele>130.4</ele>
        <time>2012-09-27T21:11:47Z</time>
      </trkpt>
      <trkpt lat="59.4499256989" lon="17.851675234">
        <ele>130.4</ele>
        <time>2012-09-27T21:11:48Z</time>
      </trkpt>
      <trkpt lat="59.4501066641" lon="17.8515644253">
        <ele>130.4</ele>
        <time>2012-09-27T21:11:51Z</time>
      </trkpt>
      <trkpt lat="59.4501677681" lon="17.8515512657">
        <ele>130.4</ele>
        <time>2012-09-27T21:11:52Z</time>
      </trkpt>
      <trkpt lat="59.4505761343" lon="17.8515697059">
        <ele>130.4</ele>
        <time>2012-09-27T21:11:59Z</time>
      </trkpt>
      <trkpt lat="59.4509731849" lon="17.8515267905">
        <ele>130.4</ele>
        <time>2012-09-27T21:12:05Z</time>
      </trkpt>
      <trkpt lat="59.4513972252" lon="17.8515018963">
        <ele>130.4</ele>
        <time>2012-09-27T21:12:12Z</time>
      </trkpt>
      <trkpt lat="59.4518125484" lon="17.8515082665">
        <ele>130.4</ele>
        <time>2012-09-27T21:12:19Z</time>
      </trkpt>
      <trkpt lat="59.4521487464" lon="17.851666433">
        <ele>130.4</ele>
        <time>2012-09-27T21:12:24Z</time>
      </trkpt>
      <trkpt lat="59.4525094195" lon="17.8519393476">
        <ele>130.4</ele>
        <time>2012-09-27T21:12:29Z</time>
      </trkpt>
      <trkpt lat="59.4526952463" lon="17.8521114281">
        <ele>130.4</ele>
        <time>2012-09-27T21:12:32Z</time>
      </trkpt>
      <trkpt lat="59.4527612956" lon="17.8523171199">
        <ele>130.4</ele>
        <time>2012-09-27T21:12:34Z</time>
      </trkpt>
      <trkpt lat="59.452769007" lon="17.8526735183">
        <ele>130.4</ele>
        <time>2012-09-27T21:12:37Z</time>
      </trkpt>
      <trkpt lat="59.4527546739" lon="17.8528938784">
        <ele>130.4</ele>
        <time>2012-09-27T21:12:39Z</time>
      </trkpt>
      <trkpt lat="59.4527184641" lon="17.8533569784">
        <ele>130.4</ele>
        <time>2012-09-27T21:12:43Z</time>
      </trkpt>
      <trkpt lat="59.4527003592" lon="17.8538215871">
        <ele>130.8</ele>
        <time>2012-09-27T21:12:47Z</time>
      </trkpt>
      <trkpt lat="59.4526985152" lon="17.8539339046">
        <ele>131.2</ele>
        <time>2012-09-27T21:12:48Z</time>
      </trkpt>
      <trkpt lat="59.4526991858" lon="17.8540370858">
        <ele>131.6</ele>
        <time>2012-09-27T21:12:49Z</time>
      </trkpt>
      <trkpt lat="59.452700946" lon="17.8541416919">
        <ele>132</ele>
        <time>2012-09-27T21:12:50Z</time>
      </trkpt>
      <trkpt lat="59.4527093279" lon="17.8542291151">
        <ele>132.4</ele>
        <time>2012-09-27T21:12:51Z</time>
      </trkpt>
      <trkpt lat="59.4527276842" lon="17.8544679154">
        <ele>132.4</ele>
        <time>2012-09-27T21:12:54Z</time>
      </trkpt>
      <trkpt lat="59.4527439451" lon="17.8546504732">
        <ele>132.8</ele>
        <time>2012-09-27T21:12:57Z</time>
      </trkpt>
      <trkpt lat="59.4527480522" lon="17.8547201268">
        <ele>133.8</ele>
        <time>2012-09-27T21:12:58Z</time>
      </trkpt>
      <trkpt lat="59.4527555959" lon="17.8547964859">
        <ele>134.2</ele>
        <time>2012-09-27T21:12:59Z</time>
      </trkpt>
      <trkpt lat="59.4527618824" lon="17.8548735156">
        <ele>134.8</ele>
        <time>2012-09-27T21:13:00Z</time>
      </trkpt>
      <trkpt lat="59.4527237447" lon="17.855103934">
        <ele>134.8</ele>
        <time>2012-09-27T21:13:03Z</time>
      </trkpt>
      <trkpt lat="59.45268611" lon="17.8554608353">
        <ele>134.8</ele>
        <time>2012-09-27T21:13:07Z</time>
      </trkpt>
      <trkpt lat="59.4527002754" lon="17.8555350989">
        <ele>134.8</ele>
        <time>2012-09-27T21:13:08Z</time>
      </trkpt>
      <trkpt lat="59.4528042948" lon="17.8555894136">
        <ele>134.8</ele>
        <time>2012-09-27T21:13:11Z</time>
      </trkpt>
      <trkpt lat="59.4529388243" lon="17.8554997273">
        <ele>134.8</ele>
        <time>2012-09-27T21:13:14Z</time>
      </trkpt>
      <trkpt lat="59.4529853438" lon="17.8554676246">
        <ele>134.8</ele>
        <time>2012-09-27T21:13:15Z</time>
      </trkpt>
      <trkpt lat="59.4532798" lon="17.8552269803">
        <ele>134.8</ele>
        <time>2012-09-27T21:13:21Z</time>
      </trkpt>
      <trkpt lat="59.4536967995" lon="17.8548703304">
        <ele>134.8</ele>
        <time>2012-09-27T21:13:29Z</time>
      </trkpt>
      <trkpt lat="59.4537990587" lon="17.8548077176">
        <ele>134.8</ele>
        <time>2012-09-27T21:13:31Z</time>
      </trkpt>
      <trkpt lat="59.4539486756" lon="17.8547087274">
        <ele>134.8</ele>
        <time>2012-09-27T21:13:34Z</time>
      </trkpt>
      <trkpt lat="59.453995279" lon="17.85467235">
        <ele>135.2</ele>
        <time>2012-09-27T21:13:35Z</time>
      </trkpt>
      <trkpt lat="59.4540421338" lon="17.8546351343">
        <ele>135.6</ele>
        <time>2012-09-27T21:13:36Z</time>
      </trkpt>
      <trkpt lat="59.4540901621" lon="17.8545891177">
        <ele>136</ele>
        <time>2012-09-27T21:13:37Z</time>
      </trkpt>
      <trkpt lat="59.4541397829" lon="17.8545395807">
        <ele>136.4</ele>
        <time>2012-09-27T21:13:38Z</time>
      </trkpt>
      <trkpt lat="59.454186051" lon="17.854494486">
        <ele>137</ele>
        <time>2012-09-27T21:13:39Z</time>
      </trkpt>
      <trkpt lat="59.4542645056" lon="17.8543967531">
        <ele>137</ele>
        <time>2012-09-27T21:13:41Z</time>
      </trkpt>
      <trkpt lat="59.4542992905" lon="17.8543466293">
        <ele>137</ele>
        <time>2012-09-27T21:13:42Z</time>
      </trkpt>
      <trkpt lat="59.4544084228" lon="17.8541808353">
        <ele>137.4</ele>
        <time>2012-09-27T21:13:45Z</time>
      </trkpt>
      <trkpt lat="59.4544463928" lon="17.8541201504">
        <ele>137.8</ele>
        <time>2012-09-27T21:13:46Z</time>
      </trkpt>
      <trkpt lat="59.4544860392" lon="17.854066171">
        <ele>138.6</ele>
        <time>2012-09-27T21:13:47Z</time>
      </trkpt>
      <trkpt lat="59.4545275296" lon="17.8540104313">
        <ele>139</ele>
        <time>2012-09-27T21:13:48Z</time>
      </trkpt>
      <trkpt lat="59.4547210677" lon="17.8537301406">
        <ele>139.4</ele>
        <time>2012-09-27T21:13:53Z</time>
      </trkpt>
      <trkpt lat="59.4547607141" lon="17.8536869738">
        <ele>140</ele>
        <time>2012-09-27T21:13:54Z</time>
      </trkpt>
      <trkpt lat="59.4548093291" lon="17.8536287196">
        <ele>140.4</ele>
        <time>2012-09-27T21:13:55Z</time>
      </trkpt>
      <trkpt lat="59.4548638953" lon="17.8535684537">
        <ele>140.8</ele>
        <time>2012-09-27T21:13:56Z</time>
      </trkpt>
      <trkpt lat="59.4549108339" lon="17.8535222695">
        <ele>141.2</ele>
        <time>2012-09-27T21:13:57Z</time>
      </trkpt>
      <trkpt lat="59.4549985086" lon="17.8534453236">
        <ele>141.6</ele>
        <time>2012-09-27T21:13:59Z</time>
      </trkpt>
      <trkpt lat="59.4550400828" lon="17.8534185854">
        <ele>142</ele>
        <time>2012-09-27T21:14:00Z</time>
      </trkpt>
      <trkpt lat="59.4550830819" lon="17.8533903384">
        <ele>142.4</ele>
        <time>2012-09-27T21:14:01Z</time>
      </trkpt>
      <trkpt lat="59.4551285957" lon="17.8533533742">
        <ele>143</ele>
        <time>2012-09-27T21:14:02Z</time>
      </trkpt>
      <trkpt lat="59.4551737741" lon="17.8533117161">
        <ele>143.4</ele>
        <time>2012-09-27T21:14:03Z</time>
      </trkpt>
      <trkpt lat="59.4552523125" lon="17.8532301602">
        <ele>143.4</ele>
        <time>2012-09-27T21:14:05Z</time>
      </trkpt>
      <trkpt lat="59.4555719143" lon="17.8528909448">
        <ele>143.4</ele>
        <time>2012-09-27T21:14:12Z</time>
      </trkpt>
      <trkpt lat="59.4556709046" lon="17.8527965646">
        <ele>143.8</ele>
        <time>2012-09-27T21:14:14Z</time>
      </trkpt>
      <trkpt lat="59.4557236267" lon="17.8527468599">
        <ele>144.2</ele>
        <time>2012-09-27T21:14:15Z</time>
      </trkpt>
      <trkpt lat="59.4557770194" lon="17.8526989992">
        <ele>144.6</ele>
        <time>2012-09-27T21:14:16Z</time>
      </trkpt>
      <trkpt lat="59.4558237066" lon="17.8526523959">
        <ele>145</ele>
        <time>2012-09-27T21:14:17Z</time>
      </trkpt>
      <trkpt lat="59.4558702262" lon="17.8525995899">
        <ele>145.4</ele>
        <time>2012-09-27T21:14:18Z</time>
      </trkpt>
      <trkpt lat="59.4559149855" lon="17.8525507234">
        <ele>145.4</ele>
        <time>2012-09-27T21:14:19Z</time>
      </trkpt>
      <trkpt lat="59.4561126307" lon="17.8524060518">
        <ele>145.4</ele>
        <time>2012-09-27T21:14:23Z</time>
      </trkpt>
      <trkpt lat="59.4562099446" lon="17.8523731948">
        <ele>145.4</ele>
        <time>2012-09-27T21:14:25Z</time>
      </trkpt>
      <trkpt lat="59.4563096054" lon="17.8523560119">
        <ele>145.4</ele>
        <time>2012-09-27T21:14:27Z</time>
      </trkpt>
      <trkpt lat="59.456475567" lon="17.8524255817">
        <ele>145.4</ele>
        <time>2012-09-27T21:14:30Z</time>
      </trkpt>
      <trkpt lat="59.4568376651" lon="17.8525612846">
        <ele>145.4</ele>
        <time>2012-09-27T21:14:36Z</time>
      </trkpt>
      <trkpt lat="59.4569011161" lon="17.8525663976">
        <ele>145.4</ele>
        <time>2012-09-27T21:14:37Z</time>
      </trkpt>
      <trkpt lat="59.4571480468" lon="17.8524856799">
        <ele>145.4</ele>
        <time>2012-09-27T21:14:41Z</time>
      </trkpt>
      <trkpt lat="59.4575056187" lon="17.8522633081">
        <ele>145.4</ele>
        <time>2012-09-27T21:14:47Z</time>
      </trkpt>
      <trkpt lat="59.457815749" lon="17.8520380864">
        <ele>145.4</ele>
        <time>2012-09-27T21:14:53Z</time>
      </trkpt>
      <trkpt lat="59.4581861451" lon="17.8518010463">
        <ele>145.4</ele>
        <time>2012-09-27T21:15:01Z</time>
      </trkpt>
      <trkpt lat="59.4582369395" lon="17.8517696142">
        <ele>145.8</ele>
        <time>2012-09-27T21:15:02Z</time>
      </trkpt>
      <trkpt lat="59.4582948584" lon="17.8517313089">
        <ele>146.2</ele>
        <time>2012-09-27T21:15:03Z</time>
      </trkpt>
      <trkpt lat="59.4583464071" lon="17.8516931712">
        <ele>146.6</ele>
        <time>2012-09-27T21:15:04Z</time>
      </trkpt>
      <trkpt lat="59.4583989616" lon="17.8516596436">
        <ele>147</ele>
        <time>2012-09-27T21:15:05Z</time>
      </trkpt>
      <trkpt lat="59.4584488339" lon="17.851631229">
        <ele>147.6</ele>
        <time>2012-09-27T21:15:06Z</time>
      </trkpt>
      <trkpt lat="59.4585390231" lon="17.8515712146">
        <ele>147.6</ele>
        <time>2012-09-27T21:15:08Z</time>
      </trkpt>
      <trkpt lat="59.4586718762" lon="17.8514891558">
        <ele>147.6</ele>
        <time>2012-09-27T21:15:11Z</time>
      </trkpt>
      <trkpt lat="59.4587186472" lon="17.851452024">
        <ele>147.6</ele>
        <time>2012-09-27T21:15:12Z</time>
      </trkpt>
      <trkpt lat="59.4589369119" lon="17.8512709749">
        <ele>147.6</ele>
        <time>2012-09-27T21:15:17Z</time>
      </trkpt>
      <trkpt lat="59.4589852755" lon="17.8512401295">
        <ele>147.6</ele>
        <time>2012-09-27T21:15:18Z</time>
      </trkpt>
      <trkpt lat="59.4591812443" lon="17.8511415584">
        <ele>147.6</ele>
        <time>2012-09-27T21:15:22Z</time>
      </trkpt>
      <trkpt lat="59.459343937" lon="17.8510797">
        <ele>147.6</ele>
        <time>2012-09-27T21:15:25Z</time>
      </trkpt>
      <trkpt lat="59.4595238126" lon="17.8510856511">
        <ele>147.6</ele>
        <time>2012-09-27T21:15:28Z</time>
      </trkpt>
      <trkpt lat="59.4599839789" lon="17.8511133114">
        <ele>147.6</ele>
        <time>2012-09-27T21:15:35Z</time>
      </trkpt>
      <trkpt lat="59.4603772576" lon="17.8512506907">
        <ele>147.6</ele>
        <time>2012-09-27T21:15:41Z</time>
      </trkpt>
      <trkpt lat="59.4609578718" lon="17.8513824542">
        <ele>147.6</ele>
        <time>2012-09-27T21:15:50Z</time>
      </trkpt>
      <trkpt lat="59.4613418467" lon="17.8514829532">
        <ele>147.6</ele>
        <time>2012-09-27T21:15:56Z</time>
      </trkpt>
      <trkpt lat="59.4616306869" lon="17.8515603181">
        <ele>147</ele>
        <time>2012-09-27T21:16:00Z</time>
      </trkpt>
      <trkpt lat="59.4617043638" lon="17.8515781716">
        <ele>146.6</ele>
        <time>2012-09-27T21:16:01Z</time>
      </trkpt>
      <trkpt lat="59.4617849139" lon="17.8515939295">
        <ele>146.2</ele>
        <time>2012-09-27T21:16:02Z</time>
      </trkpt>
      <trkpt lat="59.4618657154" lon="17.851607592">
        <ele>145.8</ele>
        <time>2012-09-27T21:16:03Z</time>
      </trkpt>
      <trkpt lat="59.4619449244" lon="17.8516237691">
        <ele>145.4</ele>
        <time>2012-09-27T21:16:04Z</time>
      </trkpt>
      <trkpt lat="59.4620206129" lon="17.8516405329">
        <ele>144.8</ele>
        <time>2012-09-27T21:16:05Z</time>
      </trkpt>
      <trkpt lat="59.4620900989" lon="17.851643718">
        <ele>144.4</ele>
        <time>2012-09-27T21:16:06Z</time>
      </trkpt>
      <trkpt lat="59.4621440783" lon="17.8516153872">
        <ele>143.8</ele>
        <time>2012-09-27T21:16:07Z</time>
      </trkpt>
      <trkpt lat="59.4621891729" lon="17.8515670236">
        <ele>143.4</ele>
        <time>2012-09-27T21:16:08Z</time>
      </trkpt>
      <trkpt lat="59.4622285679" lon="17.8514770859">
        <ele>143</ele>
        <time>2012-09-27T21:16:09Z</time>
      </trkpt>
      <trkpt lat="59.4622675437" lon="17.8513828733">
        <ele>142.4</ele>
        <time>2012-09-27T21:16:10Z</time>
      </trkpt>
      <trkpt lat="59.462306771" lon="17.8512699691">
        <ele>142</ele>
        <time>2012-09-27T21:16:11Z</time>
      </trkpt>
      <trkpt lat="59.4623470879" lon="17.8511591604">
        <ele>141.6</ele>
        <time>2012-09-27T21:16:12Z</time>
      </trkpt>
      <trkpt lat="59.4623959544" lon="17.8510460047">
        <ele>141.2</ele>
        <time>2012-09-27T21:16:13Z</time>
      </trkpt>
      <trkpt lat="59.4624924301" lon="17.8508129879">
        <ele>141.2</ele>
        <time>2012-09-27T21:16:15Z</time>
      </trkpt>
      <trkpt lat="59.4627769118" lon="17.8500136899">
        <ele>141.2</ele>
        <time>2012-09-27T21:16:22Z</time>
      </trkpt>
      <trkpt lat="59.4628688612" lon="17.849802047">
        <ele>141.2</ele>
        <time>2012-09-27T21:16:24Z</time>
      </trkpt>
      <trkpt lat="59.462982436" lon="17.8496129513">
        <ele>140.8</ele>
        <time>2012-09-27T21:16:26Z</time>
      </trkpt>
      <trkpt lat="59.4630473957" lon="17.8495153022">
        <ele>140.4</ele>
        <time>2012-09-27T21:16:27Z</time>
      </trkpt>
      <trkpt lat="59.4631074939" lon="17.849416731">
        <ele>139.8</ele>
        <time>2012-09-27T21:16:28Z</time>
      </trkpt>
      <trkpt lat="59.4631722022" lon="17.8493206744">
        <ele>139.4</ele>
        <time>2012-09-27T21:16:29Z</time>
      </trkpt>
      <trkpt lat="59.4632386706" lon="17.8492396215">
        <ele>138.8</ele>
        <time>2012-09-27T21:16:30Z</time>
      </trkpt>
      <trkpt lat="59.4633017025" lon="17.8491485102">
        <ele>138.2</ele>
        <time>2012-09-27T21:16:31Z</time>
      </trkpt>
      <trkpt lat="59.4633643153" lon="17.8490595783">
        <ele>137.6</ele>
        <time>2012-09-27T21:16:32Z</time>
      </trkpt>
      <trkpt lat="59.4634270119" lon="17.8489687185">
        <ele>137</ele>
        <time>2012-09-27T21:16:33Z</time>
      </trkpt>
      <trkpt lat="59.4634887027" lon="17.8488772719">
        <ele>136.2</ele>
        <time>2012-09-27T21:16:34Z</time>
      </trkpt>
      <trkpt lat="59.4635539977" lon="17.848786496">
        <ele>135.6</ele>
        <time>2012-09-27T21:16:35Z</time>
      </trkpt>
      <trkpt lat="59.4636132578" lon="17.8487048563">
        <ele>134.8</ele>
        <time>2012-09-27T21:16:36Z</time>
      </trkpt>
      <trkpt lat="59.4636679916" lon="17.8486259826">
        <ele>133.8</ele>
        <time>2012-09-27T21:16:37Z</time>
      </trkpt>
      <trkpt lat="59.4637222225" lon="17.8485413254">
        <ele>133</ele>
        <time>2012-09-27T21:16:38Z</time>
      </trkpt>
      <trkpt lat="59.4637774592" lon="17.8484543213">
        <ele>132.4</ele>
        <time>2012-09-27T21:16:39Z</time>
      </trkpt>
      <trkpt lat="59.4638351266" lon="17.8483611145">
        <ele>130.8</ele>
        <time>2012-09-27T21:16:40Z</time>
      </trkpt>
      <trkpt lat="59.4638917045" lon="17.8482670696">
        <ele>130</ele>
        <time>2012-09-27T21:16:41Z</time>
      </trkpt>
      <trkpt lat="59.4639460192" lon="17.8481707616">
        <ele>129.4</ele>
        <time>2012-09-27T21:16:42Z</time>
      </trkpt>
      <trkpt lat="59.4641601767" lon="17.8477730404">
        <ele>129.4</ele>
        <time>2012-09-27T21:16:46Z</time>
      </trkpt>
      <trkpt lat="59.4642620168" lon="17.8475235951">
        <ele>129</ele>
        <time>2012-09-27T21:16:48Z</time>
      </trkpt>
      <trkpt lat="59.4643084525" lon="17.8473891494">
        <ele>128.4</ele>
        <time>2012-09-27T21:16:49Z</time>
      </trkpt>
      <trkpt lat="59.4643489371" lon="17.8472474115">
        <ele>128</ele>
        <time>2012-09-27T21:16:50Z</time>
      </trkpt>
      <trkpt lat="59.4643677964" lon="17.8471117923">
        <ele>127.6</ele>
        <time>2012-09-27T21:16:51Z</time>
      </trkpt>
      <trkpt lat="59.4643808722" lon="17.8469836331">
        <ele>127.2</ele>
        <time>2012-09-27T21:16:52Z</time>
      </trkpt>
      <trkpt lat="59.4644232846" lon="17.8464363788">
        <ele>127.2</ele>
        <time>2012-09-27T21:16:56Z</time>
      </trkpt>
      <trkpt lat="59.4644445746" lon="17.8460349696">
        <ele>126.6</ele>
        <time>2012-09-27T21:16:59Z</time>
      </trkpt>
      <trkpt lat="59.4644487655" lon="17.8459230713">
        <ele>126</ele>
        <time>2012-09-27T21:17:00Z</time>
      </trkpt>
      <trkpt lat="59.4644654455" lon="17.8458115082">
        <ele>125.4</ele>
        <time>2012-09-27T21:17:01Z</time>
      </trkpt>
      <trkpt lat="59.4644730731" lon="17.8456927367">
        <ele>125.8</ele>
        <time>2012-09-27T21:17:02Z</time>
      </trkpt>
      <trkpt lat="59.4644785213" lon="17.8455774855">
        <ele>126.2</ele>
        <time>2012-09-27T21:17:03Z</time>
      </trkpt>
      <trkpt lat="59.4644915971" lon="17.8454838597">
        <ele>126.8</ele>
        <time>2012-09-27T21:17:04Z</time>
      </trkpt>
      <trkpt lat="59.4644988055" lon="17.8453785831">
        <ele>127.6</ele>
        <time>2012-09-27T21:17:05Z</time>
      </trkpt>
      <trkpt lat="59.4645117136" lon="17.8451702928">
        <ele>127.6</ele>
        <time>2012-09-27T21:17:07Z</time>
      </trkpt>
      <trkpt lat="59.4645209337" lon="17.845069291">
        <ele>128</ele>
        <time>2012-09-27T21:17:08Z</time>
      </trkpt>
      <trkpt lat="59.4645371108" lon="17.8449764195">
        <ele>128.6</ele>
        <time>2012-09-27T21:17:09Z</time>
      </trkpt>
      <trkpt lat="59.4645500189" lon="17.8448836319">
        <ele>129</ele>
        <time>2012-09-27T21:17:10Z</time>
      </trkpt>
      <trkpt lat="59.4645611668" lon="17.8447959572">
        <ele>129.4</ele>
        <time>2012-09-27T21:17:11Z</time>
      </trkpt>
      <trkpt lat="59.4645693811" lon="17.8447044268">
        <ele>130</ele>
        <time>2012-09-27T21:17:12Z</time>
      </trkpt>
      <trkpt lat="59.4645840494" lon="17.8445231263">
        <ele>130</ele>
        <time>2012-09-27T21:17:14Z</time>
      </trkpt>
      <trkpt lat="59.4646073511" lon="17.844261192">
        <ele>130</ele>
        <time>2012-09-27T21:17:17Z</time>
      </trkpt>
      <trkpt lat="59.4646331673" lon="17.8439907081">
        <ele>130.4</ele>
        <time>2012-09-27T21:17:20Z</time>
      </trkpt>
      <trkpt lat="59.4646386156" lon="17.8439093198">
        <ele>130.8</ele>
        <time>2012-09-27T21:17:21Z</time>
      </trkpt>
      <trkpt lat="59.4646556308" lon="17.8438352238">
        <ele>131.4</ele>
        <time>2012-09-27T21:17:22Z</time>
      </trkpt>
      <trkpt lat="59.4646832911" lon="17.8437675819">
        <ele>131.8</ele>
        <time>2012-09-27T21:17:23Z</time>
      </trkpt>
      <trkpt lat="59.4647158129" lon="17.8437213138">
        <ele>132.2</ele>
        <time>2012-09-27T21:17:24Z</time>
      </trkpt>
      <trkpt lat="59.4648774159" lon="17.8436041348">
        <ele>132.2</ele>
        <time>2012-09-27T21:17:28Z</time>
      </trkpt>
      <trkpt lat="59.4650097661" lon="17.843416045">
        <ele>132.2</ele>
        <time>2012-09-27T21:17:32Z</time>
      </trkpt>
      <trkpt lat="59.4650490772" lon="17.8433814277">
        <ele>132.8</ele>
        <time>2012-09-27T21:17:33Z</time>
      </trkpt>
      <trkpt lat="59.4650858738" lon="17.8433430386">
        <ele>133.2</ele>
        <time>2012-09-27T21:17:34Z</time>
      </trkpt>
      <trkpt lat="59.4651199043" lon="17.8432848683">
        <ele>133.6</ele>
        <time>2012-09-27T21:17:35Z</time>
      </trkpt>
      <trkpt lat="59.4651509173" lon="17.8432255244">
        <ele>134</ele>
        <time>2012-09-27T21:17:36Z</time>
      </trkpt>
      <trkpt lat="59.465181176" lon="17.8431693657">
        <ele>134.4</ele>
        <time>2012-09-27T21:17:37Z</time>
      </trkpt>
      <trkpt lat="59.4653084132" lon="17.8428862251">
        <ele>134.8</ele>
        <time>2012-09-27T21:17:42Z</time>
      </trkpt>
      <trkpt lat="59.4653382528" lon="17.8428266298">
        <ele>135.2</ele>
        <time>2012-09-27T21:17:43Z</time>
      </trkpt>
      <trkpt lat="59.465358537" lon="17.8427563895">
        <ele>135.6</ele>
        <time>2012-09-27T21:17:44Z</time>
      </trkpt>
      <trkpt lat="59.4653882089" lon="17.8426913459">
        <ele>136</ele>
        <time>2012-09-27T21:17:45Z</time>
      </trkpt>
      <trkpt lat="59.4654177132" lon="17.8426247936">
        <ele>136.4</ele>
        <time>2012-09-27T21:17:46Z</time>
      </trkpt>
      <trkpt lat="59.4654478042" lon="17.8425501947">
        <ele>136.4</ele>
        <time>2012-09-27T21:17:47Z</time>
      </trkpt>
      <trkpt lat="59.4657400811" lon="17.841855419">
        <ele>136.4</ele>
        <time>2012-09-27T21:17:56Z</time>
      </trkpt>
      <trkpt lat="59.465965638" lon="17.8413341487">
        <ele>136.4</ele>
        <time>2012-09-27T21:18:03Z</time>
      </trkpt>
      <trkpt lat="59.4660028536" lon="17.84124924">
        <ele>137</ele>
        <time>2012-09-27T21:18:04Z</time>
      </trkpt>
      <trkpt lat="59.4660432544" lon="17.8411690252">
        <ele>137.4</ele>
        <time>2012-09-27T21:18:05Z</time>
      </trkpt>
      <trkpt lat="59.466081392" lon="17.841090403">
        <ele>137.8</ele>
        <time>2012-09-27T21:18:06Z</time>
      </trkpt>
      <trkpt lat="59.4661136623" lon="17.8410148821">
        <ele>138.2</ele>
        <time>2012-09-27T21:18:07Z</time>
      </trkpt>
      <trkpt lat="59.4661472738" lon="17.8409408699">
        <ele>138.6</ele>
        <time>2012-09-27T21:18:08Z</time>
      </trkpt>
      <trkpt lat="59.4661757722" lon="17.8408702105">
        <ele>138.6</ele>
        <time>2012-09-27T21:18:09Z</time>
      </trkpt>
      <trkpt lat="59.466236541" lon="17.8407518581">
        <ele>139</ele>
        <time>2012-09-27T21:18:11Z</time>
      </trkpt>
      <trkpt lat="59.4662651233" lon="17.840697711">
        <ele>139.4</ele>
        <time>2012-09-27T21:18:12Z</time>
      </trkpt>
      <trkpt lat="59.4662953819" lon="17.8406239503">
        <ele>139.8</ele>
        <time>2012-09-27T21:18:13Z</time>
      </trkpt>
      <trkpt lat="59.4663285743" lon="17.8405519498">
        <ele>140.2</ele>
        <time>2012-09-27T21:18:14Z</time>
      </trkpt>
      <trkpt lat="59.466364365" lon="17.8404762612">
        <ele>140.6</ele>
        <time>2012-09-27T21:18:15Z</time>
      </trkpt>
      <trkpt lat="59.4666138103" lon="17.8399276659">
        <ele>140.6</ele>
        <time>2012-09-27T21:18:22Z</time>
      </trkpt>
      <trkpt lat="59.4668708832" lon="17.8393559365">
        <ele>140.6</ele>
        <time>2012-09-27T21:18:29Z</time>
      </trkpt>
      <trkpt lat="59.4669053328" lon="17.8392420264">
        <ele>140.6</ele>
        <time>2012-09-27T21:18:30Z</time>
      </trkpt>
      <trkpt lat="59.4669196658" lon="17.8389797568">
        <ele>140.6</ele>
        <time>2012-09-27T21:18:32Z</time>
      </trkpt>
      <trkpt lat="59.4668811929" lon="17.8385917586">
        <ele>140.6</ele>
        <time>2012-09-27T21:18:35Z</time>
      </trkpt>
      <trkpt lat="59.4668634233" lon="17.8384821234">
        <ele>140.6</ele>
        <time>2012-09-27T21:18:36Z</time>
      </trkpt>
      <trkpt lat="59.4668062587" lon="17.8382043472">
        <ele>140.2</ele>
        <time>2012-09-27T21:18:39Z</time>
      </trkpt>
      <trkpt lat="59.4667818674" lon="17.8381147447">
        <ele>139.8</ele>
        <time>2012-09-27T21:18:40Z</time>
      </trkpt>
      <trkpt lat="59.4667576437" lon="17.8380158383">
        <ele>139.4</ele>
        <time>2012-09-27T21:18:41Z</time>
      </trkpt>
      <trkpt lat="59.4667319113" lon="17.8379135791">
        <ele>139</ele>
        <time>2012-09-27T21:18:42Z</time>
      </trkpt>
      <trkpt lat="59.4667086096" lon="17.8378061231">
        <ele>138.6</ele>
        <time>2012-09-27T21:18:43Z</time>
      </trkpt>
      <trkpt lat="59.4665818753" lon="17.8372478886">
        <ele>138.6</ele>
        <time>2012-09-27T21:18:48Z</time>
      </trkpt>
      <trkpt lat="59.4664318393" lon="17.8366603174">
        <ele>138.6</ele>
        <time>2012-09-27T21:18:53Z</time>
      </trkpt>
      <trkpt lat="59.466218939" lon="17.8359270688">
        <ele>138.6</ele>
        <time>2012-09-27T21:18:59Z</time>
      </trkpt>
      <trkpt lat="59.4661343656" lon="17.8357129951">
        <ele>138.6</ele>
        <time>2012-09-27T21:19:01Z</time>
      </trkpt>
      <trkpt lat="59.4660039433" lon="17.8354194609">
        <ele>138.6</ele>
        <time>2012-09-27T21:19:04Z</time>
      </trkpt>
      <trkpt lat="59.4657861815" lon="17.8350210692">
        <ele>139</ele>
        <time>2012-09-27T21:19:08Z</time>
      </trkpt>
      <trkpt lat="59.4657322021" lon="17.834925767">
        <ele>139.4</ele>
        <time>2012-09-27T21:19:09Z</time>
      </trkpt>
      <trkpt lat="59.4656811563" lon="17.8348320574">
        <ele>140</ele>
        <time>2012-09-27T21:19:10Z</time>
      </trkpt>
      <trkpt lat="59.465633128" lon="17.8347389345">
        <ele>140.4</ele>
        <time>2012-09-27T21:19:11Z</time>
      </trkpt>
      <trkpt lat="59.4655850997" lon="17.8346425426">
        <ele>140.8</ele>
        <time>2012-09-27T21:19:12Z</time>
      </trkpt>
      <trkpt lat="59.4654514084" lon="17.8342892455">
        <ele>140.8</ele>
        <time>2012-09-27T21:19:15Z</time>
      </trkpt>
      <trkpt lat="59.4654162883" lon="17.8341586555">
        <ele>140.8</ele>
        <time>2012-09-27T21:19:16Z</time>
      </trkpt>
      <trkpt lat="59.4653907235" lon="17.8340139001">
        <ele>140.8</ele>
        <time>2012-09-27T21:19:17Z</time>
      </trkpt>
      <trkpt lat="59.4653426952" lon="17.8335228884">
        <ele>140.8</ele>
        <time>2012-09-27T21:19:20Z</time>
      </trkpt>
      <trkpt lat="59.4653258476" lon="17.8333524844">
        <ele>140.4</ele>
        <time>2012-09-27T21:19:21Z</time>
      </trkpt>
      <trkpt lat="59.4653144482" lon="17.8331682502">
        <ele>140</ele>
        <time>2012-09-27T21:19:22Z</time>
      </trkpt>
      <trkpt lat="59.4653043899" lon="17.8329965889">
        <ele>139.6</ele>
        <time>2012-09-27T21:19:23Z</time>
      </trkpt>
      <trkpt lat="59.4652948345" lon="17.8328213234">
        <ele>139.2</ele>
        <time>2012-09-27T21:19:24Z</time>
      </trkpt>
      <trkpt lat="59.4652812559" lon="17.8326539369">
        <ele>138.8</ele>
        <time>2012-09-27T21:19:25Z</time>
      </trkpt>
      <trkpt lat="59.4652683477" lon="17.832487137">
        <ele>138.4</ele>
        <time>2012-09-27T21:19:26Z</time>
      </trkpt>
      <trkpt lat="59.465252925" lon="17.8323304793">
        <ele>137.8</ele>
        <time>2012-09-27T21:19:27Z</time>
      </trkpt>
      <trkpt lat="59.4652343172" lon="17.8321690439">
        <ele>137.4</ele>
        <time>2012-09-27T21:19:28Z</time>
      </trkpt>
      <trkpt lat="59.4652223311" lon="17.832019427">
        <ele>137</ele>
        <time>2012-09-27T21:19:29Z</time>
      </trkpt>
      <trkpt lat="59.4652125243" lon="17.8318799522">
        <ele>136.4</ele>
        <time>2012-09-27T21:19:30Z</time>
      </trkpt>
      <trkpt lat="59.4651835229" lon="17.8314744359">
        <ele>136.4</ele>
        <time>2012-09-27T21:19:33Z</time>
      </trkpt>
      <trkpt lat="59.4651168868" lon="17.8307687637">
        <ele>136.4</ele>
        <time>2012-09-27T21:19:39Z</time>
      </trkpt>
      <trkpt lat="59.4650226742" lon="17.8302842899">
        <ele>136</ele>
        <time>2012-09-27T21:19:43Z</time>
      </trkpt>
      <trkpt lat="59.4649950978" lon="17.8301627524">
        <ele>135.6</ele>
        <time>2012-09-27T21:19:44Z</time>
      </trkpt>
      <trkpt lat="59.4649670184" lon="17.8300438132">
        <ele>135.2</ele>
        <time>2012-09-27T21:19:45Z</time>
      </trkpt>
      <trkpt lat="59.4649368436" lon="17.8299179171">
        <ele>134.8</ele>
        <time>2012-09-27T21:19:46Z</time>
      </trkpt>
      <trkpt lat="59.4649118655" lon="17.8297895063">
        <ele>134.4</ele>
        <time>2012-09-27T21:19:47Z</time>
      </trkpt>
      <trkpt lat="59.4647702114" lon="17.8291767056">
        <ele>134.4</ele>
        <time>2012-09-27T21:19:52Z</time>
      </trkpt>
      <trkpt lat="59.4645480072" lon="17.8281752362">
        <ele>134.4</ele>
        <time>2012-09-27T21:20:00Z</time>
      </trkpt>
      <trkpt lat="59.4645215204" lon="17.8280546207">
        <ele>134.4</ele>
        <time>2012-09-27T21:20:01Z</time>
      </trkpt>
      <trkpt lat="59.4643119729" lon="17.827075028">
        <ele>134.4</ele>
        <time>2012-09-27T21:20:09Z</time>
      </trkpt>
      <trkpt lat="59.4642588317" lon="17.8268348866">
        <ele>134.4</ele>
        <time>2012-09-27T21:20:11Z</time>
      </trkpt>
      <trkpt lat="59.4640566603" lon="17.8261355847">
        <ele>134.4</ele>
        <time>2012-09-27T21:20:17Z</time>
      </trkpt>
      <trkpt lat="59.4638163512" lon="17.8254956266">
        <ele>135.2</ele>
        <time>2012-09-27T21:20:23Z</time>
      </trkpt>
      <trkpt lat="59.4637762019" lon="17.8253983128">
        <ele>135.8</ele>
        <time>2012-09-27T21:20:24Z</time>
      </trkpt>
      <trkpt lat="59.4637359688" lon="17.8253118115">
        <ele>136.2</ele>
        <time>2012-09-27T21:20:25Z</time>
      </trkpt>
      <trkpt lat="59.4636944784" lon="17.8252247236">
        <ele>136.6</ele>
        <time>2012-09-27T21:20:26Z</time>
      </trkpt>
      <trkpt lat="59.4635419278" lon="17.8248858434">
        <ele>136.6</ele>
        <time>2012-09-27T21:20:30Z</time>
      </trkpt>
      <trkpt lat="59.4633013673" lon="17.8244771419">
        <ele>136.6</ele>
        <time>2012-09-27T21:20:35Z</time>
      </trkpt>
      <trkpt lat="59.4630700268" lon="17.8240721285">
        <ele>136.6</ele>
        <time>2012-09-27T21:20:40Z</time>
      </trkpt>
      <trkpt lat="59.4627748163" lon="17.8235431468">
        <ele>136.6</ele>
        <time>2012-09-27T21:20:46Z</time>
      </trkpt>
      <trkpt lat="59.4627285482" lon="17.823461088">
        <ele>137</ele>
        <time>2012-09-27T21:20:47Z</time>
      </trkpt>
      <trkpt lat="59.4626922546" lon="17.8233926917">
        <ele>138.2</ele>
        <time>2012-09-27T21:20:48Z</time>
      </trkpt>
      <trkpt lat="59.4626603195" lon="17.8233255527">
        <ele>138.6</ele>
        <time>2012-09-27T21:20:49Z</time>
      </trkpt>
      <trkpt lat="59.4626306476" lon="17.8232657059">
        <ele>139.2</ele>
        <time>2012-09-27T21:20:50Z</time>
      </trkpt>
      <trkpt lat="59.4626016462" lon="17.8232175938">
        <ele>139.2</ele>
        <time>2012-09-27T21:20:51Z</time>
      </trkpt>
      <trkpt lat="59.4624433122" lon="17.8231634468">
        <ele>139.2</ele>
        <time>2012-09-27T21:20:55Z</time>
      </trkpt>
      <trkpt lat="59.4621869936" lon="17.8233205236">
        <ele>139.2</ele>
        <time>2012-09-27T21:20:59Z</time>
      </trkpt>
      <trkpt lat="59.4620911047" lon="17.8231673024">
        <ele>139.2</ele>
        <time>2012-09-27T21:21:01Z</time>
      </trkpt>
      <trkpt lat="59.4620207806" lon="17.8229556595">
        <ele>139.2</ele>
        <time>2012-09-27T21:21:03Z</time>
      </trkpt>
      <trkpt lat="59.4619079602" lon="17.8226726027">
        <ele>139.2</ele>
        <time>2012-09-27T21:21:06Z</time>
      </trkpt>
      <trkpt lat="59.4617773702" lon="17.8224266777">
        <ele>139.2</ele>
        <time>2012-09-27T21:21:09Z</time>
      </trkpt>
      <trkpt lat="59.461636219" lon="17.8221932418">
        <ele>139.2</ele>
        <time>2012-09-27T21:21:12Z</time>
      </trkpt>
      <trkpt lat="59.4612831734" lon="17.8217500908">
        <ele>139.2</ele>
        <time>2012-09-27T21:21:18Z</time>
      </trkpt>
      <trkpt lat="59.4607829416" lon="17.8211952928">
        <ele>138.8</ele>
        <time>2012-09-27T21:21:26Z</time>
      </trkpt>
      <trkpt lat="59.4607266152" lon="17.8211325962">
        <ele>138.4</ele>
        <time>2012-09-27T21:21:27Z</time>
      </trkpt>
      <trkpt lat="59.4606690316" lon="17.8210749287">
        <ele>138</ele>
        <time>2012-09-27T21:21:28Z</time>
      </trkpt>
      <trkpt lat="59.4606042395" lon="17.8210098014">
        <ele>137.6</ele>
        <time>2012-09-27T21:21:29Z</time>
      </trkpt>
      <trkpt lat="59.4605424649" lon="17.8209453446">
        <ele>137.2</ele>
        <time>2012-09-27T21:21:30Z</time>
      </trkpt>
      <trkpt lat="59.4604801035" lon="17.8208755233">
        <ele>136.6</ele>
        <time>2012-09-27T21:21:31Z</time>
      </trkpt>
      <trkpt lat="59.4604192509" lon="17.8208093901">
        <ele>136.2</ele>
        <time>2012-09-27T21:21:32Z</time>
      </trkpt>
      <trkpt lat="59.4603571411" lon="17.8207400718">
        <ele>135.8</ele>
        <time>2012-09-27T21:21:33Z</time>
      </trkpt>
      <trkpt lat="59.4602924328" lon="17.8206661435">
        <ele>135.2</ele>
        <time>2012-09-27T21:21:34Z</time>
      </trkpt>
      <trkpt lat="59.4602309096" lon="17.8205912093">
        <ele>134.8</ele>
        <time>2012-09-27T21:21:35Z</time>
      </trkpt>
      <trkpt lat="59.4598340267" lon="17.820126852">
        <ele>134.8</ele>
        <time>2012-09-27T21:21:41Z</time>
      </trkpt>
      <trkpt lat="59.4594046219" lon="17.8196648417">
        <ele>134.8</ele>
        <time>2012-09-27T21:21:47Z</time>
      </trkpt>
      <trkpt lat="59.4592635546" lon="17.8195064238">
        <ele>134.4</ele>
        <time>2012-09-27T21:21:49Z</time>
      </trkpt>
      <trkpt lat="59.459194823" lon="17.8194293941">
        <ele>133.8</ele>
        <time>2012-09-27T21:21:50Z</time>
      </trkpt>
      <trkpt lat="59.4591232416" lon="17.8193516939">
        <ele>133.4</ele>
        <time>2012-09-27T21:21:51Z</time>
      </trkpt>
      <trkpt lat="59.4590509896" lon="17.8192722335">
        <ele>133</ele>
        <time>2012-09-27T21:21:52Z</time>
      </trkpt>
      <trkpt lat="59.4589738761" lon="17.81917844">
        <ele>132.4</ele>
        <time>2012-09-27T21:21:53Z</time>
      </trkpt>
      <trkpt lat="59.4588986066" lon="17.8190906815">
        <ele>132.4</ele>
        <time>2012-09-27T21:21:54Z</time>
      </trkpt>
      <trkpt lat="59.4584314834" lon="17.8185558325">
        <ele>132.4</ele>
        <time>2012-09-27T21:22:00Z</time>
      </trkpt>
      <trkpt lat="59.4581236162" lon="17.8182028707">
        <ele>132</ele>
        <time>2012-09-27T21:22:04Z</time>
      </trkpt>
      <trkpt lat="59.4580528729" lon="17.8181140226">
        <ele>131.6</ele>
        <time>2012-09-27T21:22:05Z</time>
      </trkpt>
      <trkpt lat="59.4579830517" lon="17.8180237495">
        <ele>131</ele>
        <time>2012-09-27T21:22:06Z</time>
      </trkpt>
      <trkpt lat="59.4579107997" lon="17.8179251784">
        <ele>130.6</ele>
        <time>2012-09-27T21:22:07Z</time>
      </trkpt>
      <trkpt lat="59.4578437445" lon="17.8178275292">
        <ele>130.2</ele>
        <time>2012-09-27T21:22:08Z</time>
      </trkpt>
      <trkpt lat="59.457782389" lon="17.8177328137">
        <ele>129.6</ele>
        <time>2012-09-27T21:22:09Z</time>
      </trkpt>
      <trkpt lat="59.4577244701" lon="17.8176241005">
        <ele>129</ele>
        <time>2012-09-27T21:22:10Z</time>
      </trkpt>
      <trkpt lat="59.4576655453" lon="17.817503485">
        <ele>128.6</ele>
        <time>2012-09-27T21:22:11Z</time>
      </trkpt>
      <trkpt lat="59.4576073749" lon="17.8173704642">
        <ele>128</ele>
        <time>2012-09-27T21:22:12Z</time>
      </trkpt>
      <trkpt lat="59.4574326123" lon="17.8169756767">
        <ele>128</ele>
        <time>2012-09-27T21:22:15Z</time>
      </trkpt>
      <trkpt lat="59.4570648146" lon="17.8161596149">
        <ele>128</ele>
        <time>2012-09-27T21:22:22Z</time>
      </trkpt>
      <trkpt lat="59.4567634014" lon="17.8156577068">
        <ele>128</ele>
        <time>2012-09-27T21:22:27Z</time>
      </trkpt>
      <trkpt lat="59.4563592262" lon="17.8149598298">
        <ele>128</ele>
        <time>2012-09-27T21:22:34Z</time>
      </trkpt>
      <trkpt lat="59.4563092701" lon="17.8148566486">
        <ele>128</ele>
        <time>2012-09-27T21:22:35Z</time>
      </trkpt>
      <trkpt lat="59.456016658" lon="17.8142390702">
        <ele>127.6</ele>
        <time>2012-09-27T21:22:41Z</time>
      </trkpt>
      <trkpt lat="59.4559727368" lon="17.814140499">
        <ele>127.2</ele>
        <time>2012-09-27T21:22:42Z</time>
      </trkpt>
      <trkpt lat="59.4559301568" lon="17.814045113">
        <ele>126.8</ele>
        <time>2012-09-27T21:22:43Z</time>
      </trkpt>
      <trkpt lat="59.4558842239" lon="17.813940004">
        <ele>126.4</ele>
        <time>2012-09-27T21:22:44Z</time>
      </trkpt>
      <trkpt lat="59.4558416439" lon="17.8138440312">
        <ele>126</ele>
        <time>2012-09-27T21:22:45Z</time>
      </trkpt>
      <trkpt lat="59.45566378" lon="17.8134227569">
        <ele>126</ele>
        <time>2012-09-27T21:22:49Z</time>
      </trkpt>
      <trkpt lat="59.4555898516" lon="17.8131934282">
        <ele>126</ele>
        <time>2012-09-27T21:22:51Z</time>
      </trkpt>
      <trkpt lat="59.4553981576" lon="17.8124971437">
        <ele>126</ele>
        <time>2012-09-27T21:22:57Z</time>
      </trkpt>
      <trkpt lat="59.455239572" lon="17.8117957463">
        <ele>126</ele>
        <time>2012-09-27T21:23:03Z</time>
      </trkpt>
      <trkpt lat="59.4550410886" lon="17.810916485">
        <ele>126</ele>
        <time>2012-09-27T21:23:10Z</time>
      </trkpt>
      <trkpt lat="59.4547580319" lon="17.8099711743">
        <ele>126</ele>
        <time>2012-09-27T21:23:18Z</time>
      </trkpt>
      <trkpt lat="59.4544739693" lon="17.8093328088">
        <ele>126</ele>
        <time>2012-09-27T21:23:24Z</time>
      </trkpt>
      <trkpt lat="59.4540757452" lon="17.8084980554">
        <ele>126</ele>
        <time>2012-09-27T21:23:32Z</time>
      </trkpt>
      <trkpt lat="59.4540242803" lon="17.8083947904">
        <ele>125.6</ele>
        <time>2012-09-27T21:23:33Z</time>
      </trkpt>
      <trkpt lat="59.4539713067" lon="17.8082906034">
        <ele>125</ele>
        <time>2012-09-27T21:23:34Z</time>
      </trkpt>
      <trkpt lat="59.453918836" lon="17.8081883442">
        <ele>124.6</ele>
        <time>2012-09-27T21:23:35Z</time>
      </trkpt>
      <trkpt lat="59.4538649404" lon="17.8080945508">
        <ele>124.2</ele>
        <time>2012-09-27T21:23:36Z</time>
      </trkpt>
      <trkpt lat="59.453807692" lon="17.8080108994">
        <ele>123.6</ele>
        <time>2012-09-27T21:23:37Z</time>
      </trkpt>
      <trkpt lat="59.4536311692" lon="17.8077831632">
        <ele>123.6</ele>
        <time>2012-09-27T21:23:40Z</time>
      </trkpt>
      <trkpt lat="59.4535812969" lon="17.8077006853">
        <ele>123.6</ele>
        <time>2012-09-27T21:23:41Z</time>
      </trkpt>
      <trkpt lat="59.4534586697" lon="17.8073929857">
        <ele>123.6</ele>
        <time>2012-09-27T21:23:44Z</time>
      </trkpt>
      <trkpt lat="59.4534232143" lon="17.8072962586">
        <ele>123.6</ele>
        <time>2012-09-27T21:23:45Z</time>
      </trkpt>
      <trkpt lat="59.453361272" lon="17.8071055704">
        <ele>123.6</ele>
        <time>2012-09-27T21:23:47Z</time>
      </trkpt>
      <trkpt lat="59.4533305105" lon="17.8069030637">
        <ele>123.6</ele>
        <time>2012-09-27T21:23:49Z</time>
      </trkpt>
      <trkpt lat="59.4534252259" lon="17.8066166541">
        <ele>123.6</ele>
        <time>2012-09-27T21:23:52Z</time>
      </trkpt>
      <trkpt lat="59.4535412314" lon="17.8064411372">
        <ele>123.6</ele>
        <time>2012-09-27T21:23:54Z</time>
      </trkpt>
      <trkpt lat="59.4537063549" lon="17.8061577451">
        <ele>123.6</ele>
        <time>2012-09-27T21:23:57Z</time>
      </trkpt>
      <trkpt lat="59.4540542875" lon="17.8055715989">
        <ele>123.6</ele>
        <time>2012-09-27T21:24:04Z</time>
      </trkpt>
      <trkpt lat="59.4543541919" lon="17.8050964289">
        <ele>123.6</ele>
        <time>2012-09-27T21:24:10Z</time>
      </trkpt>
      <trkpt lat="59.4546261008" lon="17.804705078">
        <ele>123.6</ele>
        <time>2012-09-27T21:24:15Z</time>
      </trkpt>
      <trkpt lat="59.4546953352" lon="17.8046277969">
        <ele>123.6</ele>
        <time>2012-09-27T21:24:16Z</time>
      </trkpt>
      <trkpt lat="59.4547695989" lon="17.8045749909">
        <ele>123.6</ele>
        <time>2012-09-27T21:24:17Z</time>
      </trkpt>
      <trkpt lat="59.4550034539" lon="17.8044611647">
        <ele>123.6</ele>
        <time>2012-09-27T21:24:20Z</time>
      </trkpt>
      <trkpt lat="59.4553725089" lon="17.8044576443">
        <ele>123.6</ele>
        <time>2012-09-27T21:24:25Z</time>
      </trkpt>
      <trkpt lat="59.4556718266" lon="17.8046583909">
        <ele>123.6</ele>
        <time>2012-09-27T21:24:29Z</time>
      </trkpt>
      <trkpt lat="59.4557475152" lon="17.8047288826">
        <ele>124.2</ele>
        <time>2012-09-27T21:24:30Z</time>
      </trkpt>
      <trkpt lat="59.4558264727" lon="17.8047979495">
        <ele>124.6</ele>
        <time>2012-09-27T21:24:31Z</time>
      </trkpt>
      <trkpt lat="59.4559035861" lon="17.8048739733">
        <ele>125.6</ele>
        <time>2012-09-27T21:24:32Z</time>
      </trkpt>
      <trkpt lat="59.4559850582" lon="17.8049495781">
        <ele>126.2</ele>
        <time>2012-09-27T21:24:33Z</time>
      </trkpt>
      <trkpt lat="59.4561434761" lon="17.8050780726">
        <ele>126.6</ele>
        <time>2012-09-27T21:24:35Z</time>
      </trkpt>
      <trkpt lat="59.4562232718" lon="17.8051381708">
        <ele>127</ele>
        <time>2012-09-27T21:24:36Z</time>
      </trkpt>
      <trkpt lat="59.4563041571" lon="17.8051977661">
        <ele>127.4</ele>
        <time>2012-09-27T21:24:37Z</time>
      </trkpt>
      <trkpt lat="59.4563863836" lon="17.8052523323">
        <ele>127.8</ele>
        <time>2012-09-27T21:24:38Z</time>
      </trkpt>
      <trkpt lat="59.4564696158" lon="17.805312682">
        <ele>128.2</ele>
        <time>2012-09-27T21:24:39Z</time>
      </trkpt>
      <trkpt lat="59.4567297062" lon="17.8054835889">
        <ele>128.2</ele>
        <time>2012-09-27T21:24:42Z</time>
      </trkpt>
      <trkpt lat="59.4570741185" lon="17.8056910409">
        <ele>128.2</ele>
        <time>2012-09-27T21:24:47Z</time>
      </trkpt>
      <trkpt lat="59.4571146869" lon="17.8056572619">
        <ele>128.2</ele>
        <time>2012-09-27T21:24:49Z</time>
      </trkpt>
      <trkpt lat="59.4571959075" lon="17.8054374885">
        <ele>128.2</ele>
        <time>2012-09-27T21:24:52Z</time>
      </trkpt>
      <trkpt lat="59.4573575943" lon="17.8051212394">
        <ele>128.2</ele>
        <time>2012-09-27T21:24:56Z</time>
      </trkpt>
      <trkpt lat="59.4573968216" lon="17.8050428686">
        <ele>128.2</ele>
        <time>2012-09-27T21:24:57Z</time>
      </trkpt>
      <trkpt lat="59.4574395693" lon="17.8049795853">
        <ele>128.2</ele>
        <time>2012-09-27T21:24:58Z</time>
      </trkpt>
      <trkpt lat="59.4576502065" lon="17.804719914">
        <ele>128.2</ele>
        <time>2012-09-27T21:25:02Z</time>
      </trkpt>
      <trkpt lat="59.4579498594" lon="17.8044532019">
        <ele>128.2</ele>
        <time>2012-09-27T21:25:07Z</time>
      </trkpt>
      <trkpt lat="59.4580143162" lon="17.8044440657">
        <ele>128.2</ele>
        <time>2012-09-27T21:25:08Z</time>
      </trkpt>
      <trkpt lat="59.4583945192" lon="17.8044290621">
        <ele>128.2</ele>
        <time>2012-09-27T21:25:14Z</time>
      </trkpt>
      <trkpt lat="59.458634493" lon="17.8044368572">
        <ele>127.8</ele>
        <time>2012-09-27T21:25:18Z</time>
      </trkpt>
      <trkpt lat="59.4586905679" lon="17.8044334207">
        <ele>127.4</ele>
        <time>2012-09-27T21:25:19Z</time>
      </trkpt>
      <trkpt lat="59.4587399373" lon="17.8044195067">
        <ele>127</ele>
        <time>2012-09-27T21:25:20Z</time>
      </trkpt>
      <trkpt lat="59.4587880494" lon="17.8044086941">
        <ele>126.2</ele>
        <time>2012-09-27T21:25:21Z</time>
      </trkpt>
      <trkpt lat="59.4588313838" lon="17.8043851409">
        <ele>126.2</ele>
        <time>2012-09-27T21:25:22Z</time>
      </trkpt>
    </trkseg>
  </trk>
</gpx>